<?xml version="1.0" encoding="UTF-8" standalone="no" ?>
<gpx xmlns="http://www.topografix.com/GPX/1/1" xmlns:xsi="http://www.w3.org/2001/XMLSchema-instance" xsi:schemaLocation="http://www.topografix.com/GPX/1/1 http://www.topografix.com/GPX/1/1/gpx.xsd" version="1.1" creator="VisuGPX - https://www.visugpx.com">
  <metadata>
    <name>Voiteur,Domblans,Bois Vernois Courbeau</name>
  </metadata>
  <trk>
    <name><![CDATA[Voiteur,Domblans,Bois Vernois Courbeau_1]]></name>
    <extensions>
      <line xmlns="http://www.topografix.com/GPX/gpx_style/0/2">
        <color>0000FF</color>
        <width>4</width>
      </line>
    </extensions>
    <trkseg>
      <trkpt lat="46.75478" lon="5.6116">
        <ele>260.3</ele>
        <time>2021-05-20T11:52:57Z</time>
      </trkpt>
      <trkpt lat="46.75473" lon="5.61164">
        <ele>256.9</ele>
        <time>2021-05-20T11:53:19Z</time>
      </trkpt>
      <trkpt lat="46.75468" lon="5.61169">
        <ele>255.2</ele>
        <time>2021-05-20T11:53:23Z</time>
      </trkpt>
      <trkpt lat="46.75464" lon="5.61174">
        <ele>253.1</ele>
        <time>2021-05-20T11:53:30Z</time>
      </trkpt>
      <trkpt lat="46.75462" lon="5.61181">
        <ele>251.9</ele>
        <time>2021-05-20T11:53:38Z</time>
      </trkpt>
      <trkpt lat="46.75464" lon="5.61188">
        <ele>251</ele>
        <time>2021-05-20T11:53:46Z</time>
      </trkpt>
      <trkpt lat="46.75468" lon="5.61194">
        <ele>250.8</ele>
        <time>2021-05-20T11:53:52Z</time>
      </trkpt>
      <trkpt lat="46.75471" lon="5.612">
        <ele>250.9</ele>
        <time>2021-05-20T11:53:57Z</time>
      </trkpt>
      <trkpt lat="46.75474" lon="5.61206">
        <ele>251.1</ele>
        <time>2021-05-20T11:54:02Z</time>
      </trkpt>
      <trkpt lat="46.75476" lon="5.61213">
        <ele>251.5</ele>
        <time>2021-05-20T11:54:09Z</time>
      </trkpt>
      <trkpt lat="46.75475" lon="5.61221">
        <ele>253</ele>
        <time>2021-05-20T11:54:16Z</time>
      </trkpt>
      <trkpt lat="46.75474" lon="5.61227">
        <ele>254.7</ele>
        <time>2021-05-20T11:54:21Z</time>
      </trkpt>
      <trkpt lat="46.75476" lon="5.61234">
        <ele>256.1</ele>
        <time>2021-05-20T11:54:27Z</time>
      </trkpt>
      <trkpt lat="46.75478" lon="5.6124">
        <ele>256.9</ele>
        <time>2021-05-20T11:54:32Z</time>
      </trkpt>
      <trkpt lat="46.75477" lon="5.61248">
        <ele>256.8</ele>
        <time>2021-05-20T11:54:36Z</time>
      </trkpt>
      <trkpt lat="46.7548" lon="5.61256">
        <ele>256.7</ele>
        <time>2021-05-20T11:54:40Z</time>
      </trkpt>
      <trkpt lat="46.75484" lon="5.61262">
        <ele>256.7</ele>
        <time>2021-05-20T11:54:44Z</time>
      </trkpt>
      <trkpt lat="46.75488" lon="5.61266">
        <ele>256.5</ele>
        <time>2021-05-20T11:54:48Z</time>
      </trkpt>
      <trkpt lat="46.75492" lon="5.61269">
        <ele>255.7</ele>
        <time>2021-05-20T11:54:52Z</time>
      </trkpt>
      <trkpt lat="46.75497" lon="5.61271">
        <ele>255.2</ele>
        <time>2021-05-20T11:54:57Z</time>
      </trkpt>
      <trkpt lat="46.75503" lon="5.6127">
        <ele>253.8</ele>
        <time>2021-05-20T11:55:01Z</time>
      </trkpt>
      <trkpt lat="46.75508" lon="5.61271">
        <ele>251.6</ele>
        <time>2021-05-20T11:55:05Z</time>
      </trkpt>
      <trkpt lat="46.75512" lon="5.61273">
        <ele>248.8</ele>
        <time>2021-05-20T11:55:11Z</time>
      </trkpt>
      <trkpt lat="46.75517" lon="5.61273">
        <ele>247.4</ele>
        <time>2021-05-20T11:55:15Z</time>
      </trkpt>
      <trkpt lat="46.75522" lon="5.61275">
        <ele>247.1</ele>
        <time>2021-05-20T11:55:19Z</time>
      </trkpt>
      <trkpt lat="46.75527" lon="5.61277">
        <ele>248.2</ele>
        <time>2021-05-20T11:55:24Z</time>
      </trkpt>
      <trkpt lat="46.75532" lon="5.61282">
        <ele>249.6</ele>
        <time>2021-05-20T11:55:29Z</time>
      </trkpt>
      <trkpt lat="46.75536" lon="5.61285">
        <ele>250.4</ele>
        <time>2021-05-20T11:55:33Z</time>
      </trkpt>
      <trkpt lat="46.7554" lon="5.61287">
        <ele>251.3</ele>
        <time>2021-05-20T11:55:37Z</time>
      </trkpt>
      <trkpt lat="46.75545" lon="5.61289">
        <ele>252.4</ele>
        <time>2021-05-20T11:55:41Z</time>
      </trkpt>
      <trkpt lat="46.75549" lon="5.61292">
        <ele>253.5</ele>
        <time>2021-05-20T11:55:45Z</time>
      </trkpt>
      <trkpt lat="46.75555" lon="5.61293">
        <ele>254.8</ele>
        <time>2021-05-20T11:55:50Z</time>
      </trkpt>
      <trkpt lat="46.7556" lon="5.61296">
        <ele>255.9</ele>
        <time>2021-05-20T11:55:55Z</time>
      </trkpt>
      <trkpt lat="46.75565" lon="5.61299">
        <ele>256.2</ele>
        <time>2021-05-20T11:56:00Z</time>
      </trkpt>
      <trkpt lat="46.75569" lon="5.613">
        <ele>256</ele>
        <time>2021-05-20T11:56:04Z</time>
      </trkpt>
      <trkpt lat="46.75575" lon="5.613">
        <ele>255.9</ele>
        <time>2021-05-20T11:56:11Z</time>
      </trkpt>
      <trkpt lat="46.7558" lon="5.61303">
        <ele>255.9</ele>
        <time>2021-05-20T11:56:15Z</time>
      </trkpt>
      <trkpt lat="46.75585" lon="5.61304">
        <ele>255.5</ele>
        <time>2021-05-20T11:56:19Z</time>
      </trkpt>
      <trkpt lat="46.7559" lon="5.61306">
        <ele>253.7</ele>
        <time>2021-05-20T11:56:25Z</time>
      </trkpt>
      <trkpt lat="46.75595" lon="5.61307">
        <ele>252.9</ele>
        <time>2021-05-20T11:56:29Z</time>
      </trkpt>
      <trkpt lat="46.756" lon="5.61308">
        <ele>252.9</ele>
        <time>2021-05-20T11:56:33Z</time>
      </trkpt>
      <trkpt lat="46.75604" lon="5.61312">
        <ele>253.2</ele>
        <time>2021-05-20T11:56:37Z</time>
      </trkpt>
      <trkpt lat="46.75609" lon="5.61315">
        <ele>253.1</ele>
        <time>2021-05-20T11:56:41Z</time>
      </trkpt>
      <trkpt lat="46.75615" lon="5.61316">
        <ele>252.4</ele>
        <time>2021-05-20T11:56:45Z</time>
      </trkpt>
      <trkpt lat="46.75619" lon="5.61321">
        <ele>251.7</ele>
        <time>2021-05-20T11:56:49Z</time>
      </trkpt>
      <trkpt lat="46.75621" lon="5.61327">
        <ele>251.1</ele>
        <time>2021-05-20T11:56:53Z</time>
      </trkpt>
      <trkpt lat="46.75625" lon="5.61331">
        <ele>250.7</ele>
        <time>2021-05-20T11:56:58Z</time>
      </trkpt>
      <trkpt lat="46.7563" lon="5.61333">
        <ele>250.3</ele>
        <time>2021-05-20T11:57:03Z</time>
      </trkpt>
      <trkpt lat="46.75635" lon="5.61336">
        <ele>250</ele>
        <time>2021-05-20T11:57:08Z</time>
      </trkpt>
      <trkpt lat="46.7564" lon="5.61335">
        <ele>250.4</ele>
        <time>2021-05-20T11:57:13Z</time>
      </trkpt>
      <trkpt lat="46.75645" lon="5.61333">
        <ele>252</ele>
        <time>2021-05-20T11:57:21Z</time>
      </trkpt>
      <trkpt lat="46.75649" lon="5.61329">
        <ele>252.3</ele>
        <time>2021-05-20T11:57:26Z</time>
      </trkpt>
      <trkpt lat="46.75656" lon="5.6133">
        <ele>252.5</ele>
        <time>2021-05-20T11:57:30Z</time>
      </trkpt>
      <trkpt lat="46.7566" lon="5.61333">
        <ele>252.7</ele>
        <time>2021-05-20T11:57:34Z</time>
      </trkpt>
      <trkpt lat="46.75665" lon="5.61338">
        <ele>252.4</ele>
        <time>2021-05-20T11:57:39Z</time>
      </trkpt>
      <trkpt lat="46.75669" lon="5.61343">
        <ele>251.7</ele>
        <time>2021-05-20T11:57:43Z</time>
      </trkpt>
      <trkpt lat="46.75672" lon="5.61348">
        <ele>250.9</ele>
        <time>2021-05-20T11:57:47Z</time>
      </trkpt>
      <trkpt lat="46.75676" lon="5.61353">
        <ele>249.9</ele>
        <time>2021-05-20T11:57:51Z</time>
      </trkpt>
      <trkpt lat="46.7568" lon="5.61358">
        <ele>249.2</ele>
        <time>2021-05-20T11:57:55Z</time>
      </trkpt>
      <trkpt lat="46.75684" lon="5.61363">
        <ele>248.6</ele>
        <time>2021-05-20T11:57:59Z</time>
      </trkpt>
      <trkpt lat="46.75688" lon="5.61367">
        <ele>248.1</ele>
        <time>2021-05-20T11:58:03Z</time>
      </trkpt>
      <trkpt lat="46.75691" lon="5.61373">
        <ele>248</ele>
        <time>2021-05-20T11:58:07Z</time>
      </trkpt>
      <trkpt lat="46.75694" lon="5.61379">
        <ele>247.8</ele>
        <time>2021-05-20T11:58:11Z</time>
      </trkpt>
      <trkpt lat="46.75696" lon="5.61384">
        <ele>247.6</ele>
        <time>2021-05-20T11:58:15Z</time>
      </trkpt>
      <trkpt lat="46.75699" lon="5.61389">
        <ele>247.9</ele>
        <time>2021-05-20T11:58:19Z</time>
      </trkpt>
      <trkpt lat="46.75702" lon="5.61395">
        <ele>247.8</ele>
        <time>2021-05-20T11:58:23Z</time>
      </trkpt>
      <trkpt lat="46.75705" lon="5.61401">
        <ele>247.6</ele>
        <time>2021-05-20T11:58:27Z</time>
      </trkpt>
      <trkpt lat="46.75707" lon="5.61407">
        <ele>247.3</ele>
        <time>2021-05-20T11:58:32Z</time>
      </trkpt>
      <trkpt lat="46.75709" lon="5.61414">
        <ele>247</ele>
        <time>2021-05-20T11:58:37Z</time>
      </trkpt>
      <trkpt lat="46.7571" lon="5.6142">
        <ele>246.8</ele>
        <time>2021-05-20T11:58:42Z</time>
      </trkpt>
      <trkpt lat="46.75713" lon="5.61426">
        <ele>246.9</ele>
        <time>2021-05-20T11:58:47Z</time>
      </trkpt>
      <trkpt lat="46.75715" lon="5.61433">
        <ele>247</ele>
        <time>2021-05-20T11:58:52Z</time>
      </trkpt>
      <trkpt lat="46.75718" lon="5.61439">
        <ele>247.4</ele>
        <time>2021-05-20T11:58:57Z</time>
      </trkpt>
      <trkpt lat="46.75721" lon="5.61445">
        <ele>247.3</ele>
        <time>2021-05-20T11:59:01Z</time>
      </trkpt>
      <trkpt lat="46.75725" lon="5.6145">
        <ele>246.9</ele>
        <time>2021-05-20T11:59:05Z</time>
      </trkpt>
      <trkpt lat="46.75727" lon="5.61455">
        <ele>246.3</ele>
        <time>2021-05-20T11:59:09Z</time>
      </trkpt>
      <trkpt lat="46.75729" lon="5.61463">
        <ele>245.7</ele>
        <time>2021-05-20T11:59:14Z</time>
      </trkpt>
      <trkpt lat="46.75732" lon="5.61469">
        <ele>245.4</ele>
        <time>2021-05-20T11:59:18Z</time>
      </trkpt>
      <trkpt lat="46.75734" lon="5.61475">
        <ele>245</ele>
        <time>2021-05-20T11:59:23Z</time>
      </trkpt>
      <trkpt lat="46.75737" lon="5.61479">
        <ele>245.3</ele>
        <time>2021-05-20T11:59:27Z</time>
      </trkpt>
      <trkpt lat="46.75741" lon="5.61485">
        <ele>246.2</ele>
        <time>2021-05-20T11:59:31Z</time>
      </trkpt>
      <trkpt lat="46.75742" lon="5.61492">
        <ele>246.5</ele>
        <time>2021-05-20T11:59:37Z</time>
      </trkpt>
      <trkpt lat="46.75746" lon="5.61496">
        <ele>246.4</ele>
        <time>2021-05-20T11:59:47Z</time>
      </trkpt>
      <trkpt lat="46.7575" lon="5.61501">
        <ele>246.5</ele>
        <time>2021-05-20T11:59:51Z</time>
      </trkpt>
      <trkpt lat="46.75753" lon="5.61506">
        <ele>246.7</ele>
        <time>2021-05-20T11:59:55Z</time>
      </trkpt>
      <trkpt lat="46.75757" lon="5.6151">
        <ele>247.1</ele>
        <time>2021-05-20T11:59:59Z</time>
      </trkpt>
      <trkpt lat="46.75761" lon="5.61515">
        <ele>247.8</ele>
        <time>2021-05-20T12:00:03Z</time>
      </trkpt>
      <trkpt lat="46.75765" lon="5.61519">
        <ele>248.3</ele>
        <time>2021-05-20T12:00:07Z</time>
      </trkpt>
      <trkpt lat="46.75769" lon="5.61523">
        <ele>248.5</ele>
        <time>2021-05-20T12:00:11Z</time>
      </trkpt>
      <trkpt lat="46.75772" lon="5.61529">
        <ele>249</ele>
        <time>2021-05-20T12:00:16Z</time>
      </trkpt>
      <trkpt lat="46.75775" lon="5.61535">
        <ele>249.7</ele>
        <time>2021-05-20T12:00:21Z</time>
      </trkpt>
      <trkpt lat="46.75778" lon="5.61541">
        <ele>250.9</ele>
        <time>2021-05-20T12:00:26Z</time>
      </trkpt>
      <trkpt lat="46.7578" lon="5.61547">
        <ele>251.7</ele>
        <time>2021-05-20T12:00:30Z</time>
      </trkpt>
      <trkpt lat="46.75784" lon="5.61552">
        <ele>252.8</ele>
        <time>2021-05-20T12:00:35Z</time>
      </trkpt>
      <trkpt lat="46.75789" lon="5.61555">
        <ele>253.5</ele>
        <time>2021-05-20T12:00:39Z</time>
      </trkpt>
      <trkpt lat="46.75793" lon="5.61556">
        <ele>254.1</ele>
        <time>2021-05-20T12:00:44Z</time>
      </trkpt>
      <trkpt lat="46.75798" lon="5.6156">
        <ele>254</ele>
        <time>2021-05-20T12:00:50Z</time>
      </trkpt>
      <trkpt lat="46.75803" lon="5.61564">
        <ele>253.9</ele>
        <time>2021-05-20T12:00:55Z</time>
      </trkpt>
      <trkpt lat="46.75808" lon="5.61567">
        <ele>253.5</ele>
        <time>2021-05-20T12:01:01Z</time>
      </trkpt>
      <trkpt lat="46.75813" lon="5.61565">
        <ele>253.1</ele>
        <time>2021-05-20T12:01:06Z</time>
      </trkpt>
      <trkpt lat="46.75818" lon="5.61564">
        <ele>252.8</ele>
        <time>2021-05-20T12:01:10Z</time>
      </trkpt>
      <trkpt lat="46.75822" lon="5.61562">
        <ele>252.3</ele>
        <time>2021-05-20T12:01:14Z</time>
      </trkpt>
      <trkpt lat="46.75827" lon="5.61559">
        <ele>251.9</ele>
        <time>2021-05-20T12:01:19Z</time>
      </trkpt>
      <trkpt lat="46.75831" lon="5.61556">
        <ele>251.4</ele>
        <time>2021-05-20T12:01:24Z</time>
      </trkpt>
      <trkpt lat="46.75836" lon="5.61553">
        <ele>250.8</ele>
        <time>2021-05-20T12:01:29Z</time>
      </trkpt>
      <trkpt lat="46.75841" lon="5.6155">
        <ele>250.2</ele>
        <time>2021-05-20T12:01:34Z</time>
      </trkpt>
      <trkpt lat="46.75845" lon="5.61548">
        <ele>249.9</ele>
        <time>2021-05-20T12:01:39Z</time>
      </trkpt>
      <trkpt lat="46.75851" lon="5.61545">
        <ele>249.6</ele>
        <time>2021-05-20T12:01:44Z</time>
      </trkpt>
      <trkpt lat="46.75855" lon="5.61543">
        <ele>249.5</ele>
        <time>2021-05-20T12:01:48Z</time>
      </trkpt>
      <trkpt lat="46.7586" lon="5.61541">
        <ele>249.5</ele>
        <time>2021-05-20T12:01:52Z</time>
      </trkpt>
      <trkpt lat="46.75864" lon="5.61538">
        <ele>249.8</ele>
        <time>2021-05-20T12:01:56Z</time>
      </trkpt>
      <trkpt lat="46.75868" lon="5.61535">
        <ele>250</ele>
        <time>2021-05-20T12:02:00Z</time>
      </trkpt>
      <trkpt lat="46.75873" lon="5.61532">
        <ele>250</ele>
        <time>2021-05-20T12:02:05Z</time>
      </trkpt>
      <trkpt lat="46.75878" lon="5.61529">
        <ele>249.6</ele>
        <time>2021-05-20T12:02:10Z</time>
      </trkpt>
      <trkpt lat="46.75882" lon="5.61526">
        <ele>249.1</ele>
        <time>2021-05-20T12:02:14Z</time>
      </trkpt>
      <trkpt lat="46.75887" lon="5.61523">
        <ele>248.7</ele>
        <time>2021-05-20T12:02:19Z</time>
      </trkpt>
      <trkpt lat="46.75892" lon="5.61519">
        <ele>248.8</ele>
        <time>2021-05-20T12:02:24Z</time>
      </trkpt>
      <trkpt lat="46.75897" lon="5.61516">
        <ele>249.1</ele>
        <time>2021-05-20T12:02:29Z</time>
      </trkpt>
      <trkpt lat="46.75901" lon="5.61513">
        <ele>249.4</ele>
        <time>2021-05-20T12:02:34Z</time>
      </trkpt>
      <trkpt lat="46.75906" lon="5.6151">
        <ele>249.6</ele>
        <time>2021-05-20T12:02:38Z</time>
      </trkpt>
      <trkpt lat="46.75911" lon="5.61508">
        <ele>249.9</ele>
        <time>2021-05-20T12:02:43Z</time>
      </trkpt>
      <trkpt lat="46.75916" lon="5.61505">
        <ele>250.4</ele>
        <time>2021-05-20T12:02:48Z</time>
      </trkpt>
      <trkpt lat="46.7592" lon="5.61501">
        <ele>250.3</ele>
        <time>2021-05-20T12:02:52Z</time>
      </trkpt>
      <trkpt lat="46.75925" lon="5.61498">
        <ele>250.2</ele>
        <time>2021-05-20T12:02:56Z</time>
      </trkpt>
      <trkpt lat="46.75929" lon="5.61493">
        <ele>250.1</ele>
        <time>2021-05-20T12:03:01Z</time>
      </trkpt>
      <trkpt lat="46.75934" lon="5.61489">
        <ele>249.8</ele>
        <time>2021-05-20T12:03:07Z</time>
      </trkpt>
      <trkpt lat="46.75938" lon="5.61486">
        <ele>249.6</ele>
        <time>2021-05-20T12:03:11Z</time>
      </trkpt>
      <trkpt lat="46.75943" lon="5.61484">
        <ele>249.5</ele>
        <time>2021-05-20T12:03:15Z</time>
      </trkpt>
      <trkpt lat="46.75949" lon="5.61483">
        <ele>249.7</ele>
        <time>2021-05-20T12:03:19Z</time>
      </trkpt>
      <trkpt lat="46.75954" lon="5.61483">
        <ele>249.8</ele>
        <time>2021-05-20T12:03:23Z</time>
      </trkpt>
      <trkpt lat="46.75959" lon="5.61482">
        <ele>250.1</ele>
        <time>2021-05-20T12:03:29Z</time>
      </trkpt>
      <trkpt lat="46.75964" lon="5.61482">
        <ele>250.6</ele>
        <time>2021-05-20T12:03:34Z</time>
      </trkpt>
      <trkpt lat="46.75968" lon="5.61481">
        <ele>251.3</ele>
        <time>2021-05-20T12:03:38Z</time>
      </trkpt>
      <trkpt lat="46.75974" lon="5.61479">
        <ele>251.8</ele>
        <time>2021-05-20T12:03:43Z</time>
      </trkpt>
      <trkpt lat="46.75979" lon="5.61477">
        <ele>252</ele>
        <time>2021-05-20T12:03:47Z</time>
      </trkpt>
      <trkpt lat="46.75984" lon="5.61472">
        <ele>252.3</ele>
        <time>2021-05-20T12:03:51Z</time>
      </trkpt>
      <trkpt lat="46.75986" lon="5.61465">
        <ele>253.1</ele>
        <time>2021-05-20T12:03:56Z</time>
      </trkpt>
      <trkpt lat="46.75985" lon="5.61458">
        <ele>253.9</ele>
        <time>2021-05-20T12:04:01Z</time>
      </trkpt>
      <trkpt lat="46.75984" lon="5.61451">
        <ele>254.4</ele>
        <time>2021-05-20T12:04:05Z</time>
      </trkpt>
      <trkpt lat="46.75983" lon="5.61445">
        <ele>254.7</ele>
        <time>2021-05-20T12:04:09Z</time>
      </trkpt>
      <trkpt lat="46.75982" lon="5.61439">
        <ele>255</ele>
        <time>2021-05-20T12:04:13Z</time>
      </trkpt>
      <trkpt lat="46.7598" lon="5.61432">
        <ele>255.1</ele>
        <time>2021-05-20T12:04:17Z</time>
      </trkpt>
      <trkpt lat="46.75979" lon="5.61424">
        <ele>255.5</ele>
        <time>2021-05-20T12:04:22Z</time>
      </trkpt>
      <trkpt lat="46.7598" lon="5.61416">
        <ele>256</ele>
        <time>2021-05-20T12:04:27Z</time>
      </trkpt>
      <trkpt lat="46.75982" lon="5.61409">
        <ele>256.1</ele>
        <time>2021-05-20T12:04:32Z</time>
      </trkpt>
      <trkpt lat="46.75983" lon="5.61402">
        <ele>256.3</ele>
        <time>2021-05-20T12:04:37Z</time>
      </trkpt>
      <trkpt lat="46.75985" lon="5.61395">
        <ele>256.4</ele>
        <time>2021-05-20T12:04:41Z</time>
      </trkpt>
      <trkpt lat="46.75986" lon="5.61387">
        <ele>256.2</ele>
        <time>2021-05-20T12:04:46Z</time>
      </trkpt>
      <trkpt lat="46.75986" lon="5.61379">
        <ele>256</ele>
        <time>2021-05-20T12:04:51Z</time>
      </trkpt>
      <trkpt lat="46.75987" lon="5.61373">
        <ele>255.7</ele>
        <time>2021-05-20T12:04:55Z</time>
      </trkpt>
      <trkpt lat="46.75989" lon="5.61366">
        <ele>255.2</ele>
        <time>2021-05-20T12:05:00Z</time>
      </trkpt>
      <trkpt lat="46.7599" lon="5.61359">
        <ele>254.6</ele>
        <time>2021-05-20T12:05:04Z</time>
      </trkpt>
      <trkpt lat="46.75991" lon="5.61352">
        <ele>253.8</ele>
        <time>2021-05-20T12:05:09Z</time>
      </trkpt>
      <trkpt lat="46.75992" lon="5.61345">
        <ele>252.9</ele>
        <time>2021-05-20T12:05:14Z</time>
      </trkpt>
      <trkpt lat="46.75994" lon="5.61337">
        <ele>252.3</ele>
        <time>2021-05-20T12:05:19Z</time>
      </trkpt>
      <trkpt lat="46.75996" lon="5.61329">
        <ele>252.3</ele>
        <time>2021-05-20T12:05:24Z</time>
      </trkpt>
      <trkpt lat="46.75997" lon="5.61321">
        <ele>252.9</ele>
        <time>2021-05-20T12:05:28Z</time>
      </trkpt>
      <trkpt lat="46.75998" lon="5.61314">
        <ele>253.5</ele>
        <time>2021-05-20T12:05:32Z</time>
      </trkpt>
      <trkpt lat="46.76001" lon="5.61307">
        <ele>254.2</ele>
        <time>2021-05-20T12:05:36Z</time>
      </trkpt>
      <trkpt lat="46.76004" lon="5.613">
        <ele>254.6</ele>
        <time>2021-05-20T12:05:40Z</time>
      </trkpt>
      <trkpt lat="46.76006" lon="5.61293">
        <ele>254.7</ele>
        <time>2021-05-20T12:05:44Z</time>
      </trkpt>
      <trkpt lat="46.7601" lon="5.61289">
        <ele>254.4</ele>
        <time>2021-05-20T12:05:48Z</time>
      </trkpt>
      <trkpt lat="46.76013" lon="5.61284">
        <ele>254.1</ele>
        <time>2021-05-20T12:05:52Z</time>
      </trkpt>
      <trkpt lat="46.76016" lon="5.61279">
        <ele>253.7</ele>
        <time>2021-05-20T12:05:56Z</time>
      </trkpt>
      <trkpt lat="46.76021" lon="5.61275">
        <ele>253.2</ele>
        <time>2021-05-20T12:06:01Z</time>
      </trkpt>
      <trkpt lat="46.76024" lon="5.6127">
        <ele>252.8</ele>
        <time>2021-05-20T12:06:06Z</time>
      </trkpt>
      <trkpt lat="46.76028" lon="5.61266">
        <ele>252.1</ele>
        <time>2021-05-20T12:06:11Z</time>
      </trkpt>
      <trkpt lat="46.76033" lon="5.61262">
        <ele>251.5</ele>
        <time>2021-05-20T12:06:16Z</time>
      </trkpt>
      <trkpt lat="46.76037" lon="5.61258">
        <ele>251.2</ele>
        <time>2021-05-20T12:06:21Z</time>
      </trkpt>
      <trkpt lat="46.76041" lon="5.61254">
        <ele>251</ele>
        <time>2021-05-20T12:06:25Z</time>
      </trkpt>
      <trkpt lat="46.76045" lon="5.61249">
        <ele>250.9</ele>
        <time>2021-05-20T12:06:29Z</time>
      </trkpt>
      <trkpt lat="46.76048" lon="5.61243">
        <ele>250.8</ele>
        <time>2021-05-20T12:06:33Z</time>
      </trkpt>
      <trkpt lat="46.76052" lon="5.61236">
        <ele>250.9</ele>
        <time>2021-05-20T12:06:37Z</time>
      </trkpt>
      <trkpt lat="46.76055" lon="5.61229">
        <ele>250.9</ele>
        <time>2021-05-20T12:06:41Z</time>
      </trkpt>
      <trkpt lat="46.76057" lon="5.61223">
        <ele>251.3</ele>
        <time>2021-05-20T12:06:45Z</time>
      </trkpt>
      <trkpt lat="46.76061" lon="5.61216">
        <ele>251.9</ele>
        <time>2021-05-20T12:06:50Z</time>
      </trkpt>
      <trkpt lat="46.76064" lon="5.61211">
        <ele>252.4</ele>
        <time>2021-05-20T12:06:55Z</time>
      </trkpt>
      <trkpt lat="46.76065" lon="5.61205">
        <ele>252.6</ele>
        <time>2021-05-20T12:06:59Z</time>
      </trkpt>
      <trkpt lat="46.76067" lon="5.61198">
        <ele>252.8</ele>
        <time>2021-05-20T12:07:04Z</time>
      </trkpt>
      <trkpt lat="46.76069" lon="5.61192">
        <ele>252.7</ele>
        <time>2021-05-20T12:07:09Z</time>
      </trkpt>
      <trkpt lat="46.76074" lon="5.61187">
        <ele>252.7</ele>
        <time>2021-05-20T12:07:14Z</time>
      </trkpt>
      <trkpt lat="46.76074" lon="5.6118">
        <ele>252.9</ele>
        <time>2021-05-20T12:07:19Z</time>
      </trkpt>
      <trkpt lat="46.76072" lon="5.61174">
        <ele>253.3</ele>
        <time>2021-05-20T12:07:24Z</time>
      </trkpt>
      <trkpt lat="46.76067" lon="5.61172">
        <ele>254</ele>
        <time>2021-05-20T12:07:31Z</time>
      </trkpt>
      <trkpt lat="46.76063" lon="5.61176">
        <ele>254.3</ele>
        <time>2021-05-20T12:07:42Z</time>
      </trkpt>
      <trkpt lat="46.7606" lon="5.61175">
        <ele>252.9</ele>
        <time>2021-05-20T12:08:21Z</time>
      </trkpt>
      <trkpt lat="46.76064" lon="5.61172">
        <ele>252.2</ele>
        <time>2021-05-20T12:08:26Z</time>
      </trkpt>
      <trkpt lat="46.76059" lon="5.61173">
        <ele>249.8</ele>
        <time>2021-05-20T12:09:00Z</time>
      </trkpt>
      <trkpt lat="46.76058" lon="5.61165">
        <ele>248.7</ele>
        <time>2021-05-20T12:09:05Z</time>
      </trkpt>
      <trkpt lat="46.76057" lon="5.61158">
        <ele>247.9</ele>
        <time>2021-05-20T12:09:11Z</time>
      </trkpt>
      <trkpt lat="46.76062" lon="5.61159">
        <ele>245.7</ele>
        <time>2021-05-20T12:09:30Z</time>
      </trkpt>
      <trkpt lat="46.76071" lon="5.61167">
        <ele>249.7</ele>
        <time>2021-05-20T12:09:34Z</time>
      </trkpt>
      <trkpt lat="46.76076" lon="5.61173">
        <ele>253.1</ele>
        <time>2021-05-20T12:09:38Z</time>
      </trkpt>
      <trkpt lat="46.76081" lon="5.61177">
        <ele>255.7</ele>
        <time>2021-05-20T12:09:43Z</time>
      </trkpt>
      <trkpt lat="46.76086" lon="5.61176">
        <ele>257</ele>
        <time>2021-05-20T12:09:48Z</time>
      </trkpt>
      <trkpt lat="46.76089" lon="5.6117">
        <ele>257.8</ele>
        <time>2021-05-20T12:09:54Z</time>
      </trkpt>
      <trkpt lat="46.76092" lon="5.61164">
        <ele>257.5</ele>
        <time>2021-05-20T12:09:59Z</time>
      </trkpt>
      <trkpt lat="46.76096" lon="5.6116">
        <ele>255.9</ele>
        <time>2021-05-20T12:10:05Z</time>
      </trkpt>
      <trkpt lat="46.761" lon="5.61155">
        <ele>254.7</ele>
        <time>2021-05-20T12:10:10Z</time>
      </trkpt>
      <trkpt lat="46.76102" lon="5.61148">
        <ele>253.7</ele>
        <time>2021-05-20T12:10:16Z</time>
      </trkpt>
      <trkpt lat="46.76105" lon="5.61142">
        <ele>253.1</ele>
        <time>2021-05-20T12:10:21Z</time>
      </trkpt>
      <trkpt lat="46.76108" lon="5.61136">
        <ele>252.8</ele>
        <time>2021-05-20T12:10:25Z</time>
      </trkpt>
      <trkpt lat="46.76111" lon="5.6113">
        <ele>252.8</ele>
        <time>2021-05-20T12:10:29Z</time>
      </trkpt>
      <trkpt lat="46.76112" lon="5.61123">
        <ele>252.8</ele>
        <time>2021-05-20T12:10:34Z</time>
      </trkpt>
      <trkpt lat="46.76116" lon="5.61117">
        <ele>252.3</ele>
        <time>2021-05-20T12:10:40Z</time>
      </trkpt>
      <trkpt lat="46.76119" lon="5.61112">
        <ele>251.7</ele>
        <time>2021-05-20T12:10:44Z</time>
      </trkpt>
      <trkpt lat="46.76123" lon="5.61107">
        <ele>251.1</ele>
        <time>2021-05-20T12:10:49Z</time>
      </trkpt>
      <trkpt lat="46.76126" lon="5.61103">
        <ele>250.9</ele>
        <time>2021-05-20T12:10:54Z</time>
      </trkpt>
      <trkpt lat="46.76131" lon="5.61099">
        <ele>250.5</ele>
        <time>2021-05-20T12:10:58Z</time>
      </trkpt>
      <trkpt lat="46.76135" lon="5.61094">
        <ele>250.1</ele>
        <time>2021-05-20T12:11:02Z</time>
      </trkpt>
      <trkpt lat="46.76138" lon="5.6109">
        <ele>249.7</ele>
        <time>2021-05-20T12:11:06Z</time>
      </trkpt>
      <trkpt lat="46.76142" lon="5.61085">
        <ele>249.1</ele>
        <time>2021-05-20T12:11:11Z</time>
      </trkpt>
      <trkpt lat="46.76147" lon="5.6108">
        <ele>248.9</ele>
        <time>2021-05-20T12:11:15Z</time>
      </trkpt>
      <trkpt lat="46.7615" lon="5.61076">
        <ele>248.8</ele>
        <time>2021-05-20T12:11:19Z</time>
      </trkpt>
      <trkpt lat="46.76154" lon="5.61071">
        <ele>248.4</ele>
        <time>2021-05-20T12:11:23Z</time>
      </trkpt>
      <trkpt lat="46.76158" lon="5.61067">
        <ele>247.7</ele>
        <time>2021-05-20T12:11:27Z</time>
      </trkpt>
      <trkpt lat="46.76162" lon="5.61061">
        <ele>247.1</ele>
        <time>2021-05-20T12:11:31Z</time>
      </trkpt>
      <trkpt lat="46.76165" lon="5.61055">
        <ele>246.4</ele>
        <time>2021-05-20T12:11:36Z</time>
      </trkpt>
      <trkpt lat="46.76169" lon="5.6105">
        <ele>245.8</ele>
        <time>2021-05-20T12:11:41Z</time>
      </trkpt>
      <trkpt lat="46.76173" lon="5.61046">
        <ele>245.2</ele>
        <time>2021-05-20T12:11:46Z</time>
      </trkpt>
      <trkpt lat="46.76177" lon="5.6104">
        <ele>244.9</ele>
        <time>2021-05-20T12:11:51Z</time>
      </trkpt>
      <trkpt lat="46.76181" lon="5.61035">
        <ele>244.6</ele>
        <time>2021-05-20T12:11:56Z</time>
      </trkpt>
      <trkpt lat="46.76186" lon="5.61033">
        <ele>244.3</ele>
        <time>2021-05-20T12:12:01Z</time>
      </trkpt>
      <trkpt lat="46.7619" lon="5.6103">
        <ele>244.2</ele>
        <time>2021-05-20T12:12:07Z</time>
      </trkpt>
      <trkpt lat="46.76195" lon="5.61028">
        <ele>244.3</ele>
        <time>2021-05-20T12:12:12Z</time>
      </trkpt>
      <trkpt lat="46.76201" lon="5.61026">
        <ele>244.5</ele>
        <time>2021-05-20T12:12:17Z</time>
      </trkpt>
      <trkpt lat="46.76205" lon="5.61025">
        <ele>244.5</ele>
        <time>2021-05-20T12:12:21Z</time>
      </trkpt>
      <trkpt lat="46.76211" lon="5.61023">
        <ele>244.7</ele>
        <time>2021-05-20T12:12:26Z</time>
      </trkpt>
      <trkpt lat="46.76215" lon="5.6102">
        <ele>244.8</ele>
        <time>2021-05-20T12:12:30Z</time>
      </trkpt>
      <trkpt lat="46.7622" lon="5.61017">
        <ele>245.1</ele>
        <time>2021-05-20T12:12:35Z</time>
      </trkpt>
      <trkpt lat="46.76224" lon="5.61013">
        <ele>245.4</ele>
        <time>2021-05-20T12:12:40Z</time>
      </trkpt>
      <trkpt lat="46.76228" lon="5.61008">
        <ele>245.6</ele>
        <time>2021-05-20T12:12:44Z</time>
      </trkpt>
      <trkpt lat="46.76233" lon="5.61004">
        <ele>246.1</ele>
        <time>2021-05-20T12:12:48Z</time>
      </trkpt>
      <trkpt lat="46.76237" lon="5.61">
        <ele>247.3</ele>
        <time>2021-05-20T12:12:52Z</time>
      </trkpt>
      <trkpt lat="46.76242" lon="5.60995">
        <ele>248.1</ele>
        <time>2021-05-20T12:12:56Z</time>
      </trkpt>
      <trkpt lat="46.76245" lon="5.60988">
        <ele>249.8</ele>
        <time>2021-05-20T12:13:00Z</time>
      </trkpt>
      <trkpt lat="46.76247" lon="5.60982">
        <ele>251.1</ele>
        <time>2021-05-20T12:13:04Z</time>
      </trkpt>
      <trkpt lat="46.76249" lon="5.60975">
        <ele>252.3</ele>
        <time>2021-05-20T12:13:09Z</time>
      </trkpt>
      <trkpt lat="46.76253" lon="5.60969">
        <ele>252.8</ele>
        <time>2021-05-20T12:13:13Z</time>
      </trkpt>
      <trkpt lat="46.76258" lon="5.60966">
        <ele>253.1</ele>
        <time>2021-05-20T12:13:17Z</time>
      </trkpt>
      <trkpt lat="46.76262" lon="5.60962">
        <ele>252.8</ele>
        <time>2021-05-20T12:13:23Z</time>
      </trkpt>
      <trkpt lat="46.76265" lon="5.60957">
        <ele>252.2</ele>
        <time>2021-05-20T12:13:28Z</time>
      </trkpt>
      <trkpt lat="46.76269" lon="5.60951">
        <ele>252</ele>
        <time>2021-05-20T12:13:32Z</time>
      </trkpt>
      <trkpt lat="46.76272" lon="5.60947">
        <ele>251.9</ele>
        <time>2021-05-20T12:13:36Z</time>
      </trkpt>
      <trkpt lat="46.76275" lon="5.60941">
        <ele>251.5</ele>
        <time>2021-05-20T12:13:40Z</time>
      </trkpt>
      <trkpt lat="46.76278" lon="5.60936">
        <ele>251</ele>
        <time>2021-05-20T12:13:44Z</time>
      </trkpt>
      <trkpt lat="46.76281" lon="5.6093">
        <ele>250.2</ele>
        <time>2021-05-20T12:13:48Z</time>
      </trkpt>
      <trkpt lat="46.76285" lon="5.60925">
        <ele>249.6</ele>
        <time>2021-05-20T12:13:52Z</time>
      </trkpt>
      <trkpt lat="46.76288" lon="5.60919">
        <ele>248.9</ele>
        <time>2021-05-20T12:13:56Z</time>
      </trkpt>
      <trkpt lat="46.76292" lon="5.60914">
        <ele>248.3</ele>
        <time>2021-05-20T12:14:00Z</time>
      </trkpt>
      <trkpt lat="46.76296" lon="5.6091">
        <ele>248</ele>
        <time>2021-05-20T12:14:04Z</time>
      </trkpt>
      <trkpt lat="46.76299" lon="5.60905">
        <ele>247.9</ele>
        <time>2021-05-20T12:14:08Z</time>
      </trkpt>
      <trkpt lat="46.76302" lon="5.60899">
        <ele>248</ele>
        <time>2021-05-20T12:14:12Z</time>
      </trkpt>
      <trkpt lat="46.76305" lon="5.60893">
        <ele>248.1</ele>
        <time>2021-05-20T12:14:16Z</time>
      </trkpt>
      <trkpt lat="46.76306" lon="5.60886">
        <ele>248.1</ele>
        <time>2021-05-20T12:14:21Z</time>
      </trkpt>
      <trkpt lat="46.76308" lon="5.60879">
        <ele>248.6</ele>
        <time>2021-05-20T12:14:26Z</time>
      </trkpt>
      <trkpt lat="46.76311" lon="5.60872">
        <ele>249.8</ele>
        <time>2021-05-20T12:14:31Z</time>
      </trkpt>
      <trkpt lat="46.76315" lon="5.60867">
        <ele>250.8</ele>
        <time>2021-05-20T12:14:36Z</time>
      </trkpt>
      <trkpt lat="46.76318" lon="5.6086">
        <ele>251.7</ele>
        <time>2021-05-20T12:14:41Z</time>
      </trkpt>
      <trkpt lat="46.7632" lon="5.60853">
        <ele>251.8</ele>
        <time>2021-05-20T12:14:45Z</time>
      </trkpt>
      <trkpt lat="46.76324" lon="5.60848">
        <ele>251.8</ele>
        <time>2021-05-20T12:14:49Z</time>
      </trkpt>
      <trkpt lat="46.76329" lon="5.60845">
        <ele>252</ele>
        <time>2021-05-20T12:14:53Z</time>
      </trkpt>
      <trkpt lat="46.76332" lon="5.60838">
        <ele>252</ele>
        <time>2021-05-20T12:14:57Z</time>
      </trkpt>
      <trkpt lat="46.76336" lon="5.60833">
        <ele>251.8</ele>
        <time>2021-05-20T12:15:02Z</time>
      </trkpt>
      <trkpt lat="46.7634" lon="5.60828">
        <ele>251.7</ele>
        <time>2021-05-20T12:15:06Z</time>
      </trkpt>
      <trkpt lat="46.76344" lon="5.60823">
        <ele>251.5</ele>
        <time>2021-05-20T12:15:10Z</time>
      </trkpt>
      <trkpt lat="46.76347" lon="5.60818">
        <ele>251.1</ele>
        <time>2021-05-20T12:15:14Z</time>
      </trkpt>
      <trkpt lat="46.76351" lon="5.60814">
        <ele>250.3</ele>
        <time>2021-05-20T12:15:19Z</time>
      </trkpt>
      <trkpt lat="46.76355" lon="5.6081">
        <ele>249.9</ele>
        <time>2021-05-20T12:15:23Z</time>
      </trkpt>
      <trkpt lat="46.76359" lon="5.60806">
        <ele>249.6</ele>
        <time>2021-05-20T12:15:27Z</time>
      </trkpt>
      <trkpt lat="46.76364" lon="5.60804">
        <ele>249.4</ele>
        <time>2021-05-20T12:15:31Z</time>
      </trkpt>
      <trkpt lat="46.76368" lon="5.608">
        <ele>249.4</ele>
        <time>2021-05-20T12:15:36Z</time>
      </trkpt>
      <trkpt lat="46.76372" lon="5.60795">
        <ele>249.4</ele>
        <time>2021-05-20T12:15:41Z</time>
      </trkpt>
      <trkpt lat="46.76375" lon="5.6079">
        <ele>249.4</ele>
        <time>2021-05-20T12:15:45Z</time>
      </trkpt>
      <trkpt lat="46.76379" lon="5.60786">
        <ele>249.1</ele>
        <time>2021-05-20T12:15:50Z</time>
      </trkpt>
      <trkpt lat="46.76383" lon="5.60782">
        <ele>248.9</ele>
        <time>2021-05-20T12:15:54Z</time>
      </trkpt>
      <trkpt lat="46.76388" lon="5.60779">
        <ele>248.8</ele>
        <time>2021-05-20T12:15:58Z</time>
      </trkpt>
      <trkpt lat="46.76391" lon="5.60775">
        <ele>249.4</ele>
        <time>2021-05-20T12:16:02Z</time>
      </trkpt>
      <trkpt lat="46.76396" lon="5.60771">
        <ele>250.9</ele>
        <time>2021-05-20T12:16:07Z</time>
      </trkpt>
      <trkpt lat="46.76401" lon="5.60768">
        <ele>251.8</ele>
        <time>2021-05-20T12:16:11Z</time>
      </trkpt>
      <trkpt lat="46.76405" lon="5.60764">
        <ele>252.5</ele>
        <time>2021-05-20T12:16:15Z</time>
      </trkpt>
      <trkpt lat="46.76411" lon="5.60761">
        <ele>253.2</ele>
        <time>2021-05-20T12:16:20Z</time>
      </trkpt>
      <trkpt lat="46.76415" lon="5.60757">
        <ele>253.5</ele>
        <time>2021-05-20T12:16:25Z</time>
      </trkpt>
      <trkpt lat="46.76419" lon="5.60753">
        <ele>253.1</ele>
        <time>2021-05-20T12:16:29Z</time>
      </trkpt>
      <trkpt lat="46.76424" lon="5.60749">
        <ele>252.8</ele>
        <time>2021-05-20T12:16:33Z</time>
      </trkpt>
      <trkpt lat="46.76429" lon="5.60745">
        <ele>252.4</ele>
        <time>2021-05-20T12:16:37Z</time>
      </trkpt>
      <trkpt lat="46.76434" lon="5.60742">
        <ele>251.7</ele>
        <time>2021-05-20T12:16:41Z</time>
      </trkpt>
      <trkpt lat="46.76438" lon="5.60737">
        <ele>251</ele>
        <time>2021-05-20T12:16:46Z</time>
      </trkpt>
      <trkpt lat="46.76441" lon="5.60732">
        <ele>250.7</ele>
        <time>2021-05-20T12:16:51Z</time>
      </trkpt>
      <trkpt lat="46.76445" lon="5.60729">
        <ele>250.8</ele>
        <time>2021-05-20T12:16:56Z</time>
      </trkpt>
      <trkpt lat="46.76449" lon="5.60725">
        <ele>250.7</ele>
        <time>2021-05-20T12:17:00Z</time>
      </trkpt>
      <trkpt lat="46.76453" lon="5.60719">
        <ele>251</ele>
        <time>2021-05-20T12:17:04Z</time>
      </trkpt>
      <trkpt lat="46.76456" lon="5.60715">
        <ele>250.8</ele>
        <time>2021-05-20T12:17:08Z</time>
      </trkpt>
      <trkpt lat="46.7646" lon="5.6071">
        <ele>250.8</ele>
        <time>2021-05-20T12:17:13Z</time>
      </trkpt>
      <trkpt lat="46.76462" lon="5.60703">
        <ele>251.1</ele>
        <time>2021-05-20T12:17:18Z</time>
      </trkpt>
      <trkpt lat="46.76465" lon="5.60697">
        <ele>250.9</ele>
        <time>2021-05-20T12:17:22Z</time>
      </trkpt>
      <trkpt lat="46.76469" lon="5.6069">
        <ele>250.8</ele>
        <time>2021-05-20T12:17:26Z</time>
      </trkpt>
      <trkpt lat="46.76472" lon="5.60684">
        <ele>250.8</ele>
        <time>2021-05-20T12:17:30Z</time>
      </trkpt>
      <trkpt lat="46.76476" lon="5.60679">
        <ele>251.4</ele>
        <time>2021-05-20T12:17:35Z</time>
      </trkpt>
      <trkpt lat="46.7648" lon="5.60674">
        <ele>252</ele>
        <time>2021-05-20T12:17:40Z</time>
      </trkpt>
      <trkpt lat="46.76485" lon="5.6067">
        <ele>252.7</ele>
        <time>2021-05-20T12:17:45Z</time>
      </trkpt>
      <trkpt lat="46.76489" lon="5.60665">
        <ele>253</ele>
        <time>2021-05-20T12:17:50Z</time>
      </trkpt>
      <trkpt lat="46.76493" lon="5.60659">
        <ele>252.4</ele>
        <time>2021-05-20T12:17:54Z</time>
      </trkpt>
      <trkpt lat="46.76495" lon="5.60653">
        <ele>251.9</ele>
        <time>2021-05-20T12:17:58Z</time>
      </trkpt>
      <trkpt lat="46.76499" lon="5.60649">
        <ele>251.6</ele>
        <time>2021-05-20T12:18:02Z</time>
      </trkpt>
      <trkpt lat="46.76502" lon="5.60643">
        <ele>251.7</ele>
        <time>2021-05-20T12:18:07Z</time>
      </trkpt>
      <trkpt lat="46.76506" lon="5.60637">
        <ele>251.7</ele>
        <time>2021-05-20T12:18:12Z</time>
      </trkpt>
      <trkpt lat="46.76509" lon="5.60632">
        <ele>251.8</ele>
        <time>2021-05-20T12:18:16Z</time>
      </trkpt>
      <trkpt lat="46.76512" lon="5.60627">
        <ele>251.8</ele>
        <time>2021-05-20T12:18:20Z</time>
      </trkpt>
      <trkpt lat="46.76515" lon="5.6062">
        <ele>251.1</ele>
        <time>2021-05-20T12:18:25Z</time>
      </trkpt>
      <trkpt lat="46.76518" lon="5.60614">
        <ele>250.2</ele>
        <time>2021-05-20T12:18:30Z</time>
      </trkpt>
      <trkpt lat="46.76521" lon="5.60608">
        <ele>249.6</ele>
        <time>2021-05-20T12:18:35Z</time>
      </trkpt>
      <trkpt lat="46.76525" lon="5.60602">
        <ele>249</ele>
        <time>2021-05-20T12:18:40Z</time>
      </trkpt>
      <trkpt lat="46.76528" lon="5.60596">
        <ele>248.1</ele>
        <time>2021-05-20T12:18:45Z</time>
      </trkpt>
      <trkpt lat="46.76531" lon="5.60591">
        <ele>247.7</ele>
        <time>2021-05-20T12:18:50Z</time>
      </trkpt>
      <trkpt lat="46.76536" lon="5.60586">
        <ele>248</ele>
        <time>2021-05-20T12:18:55Z</time>
      </trkpt>
      <trkpt lat="46.7654" lon="5.60579">
        <ele>248.2</ele>
        <time>2021-05-20T12:18:59Z</time>
      </trkpt>
      <trkpt lat="46.76542" lon="5.60573">
        <ele>248.3</ele>
        <time>2021-05-20T12:19:03Z</time>
      </trkpt>
      <trkpt lat="46.76544" lon="5.60566">
        <ele>248.7</ele>
        <time>2021-05-20T12:19:07Z</time>
      </trkpt>
      <trkpt lat="46.76547" lon="5.60559">
        <ele>249</ele>
        <time>2021-05-20T12:19:11Z</time>
      </trkpt>
      <trkpt lat="46.7655" lon="5.60553">
        <ele>249.1</ele>
        <time>2021-05-20T12:19:16Z</time>
      </trkpt>
      <trkpt lat="46.76553" lon="5.60546">
        <ele>249.2</ele>
        <time>2021-05-20T12:19:21Z</time>
      </trkpt>
      <trkpt lat="46.76557" lon="5.60541">
        <ele>249.2</ele>
        <time>2021-05-20T12:19:26Z</time>
      </trkpt>
      <trkpt lat="46.7656" lon="5.60535">
        <ele>249.1</ele>
        <time>2021-05-20T12:19:31Z</time>
      </trkpt>
      <trkpt lat="46.76562" lon="5.60529">
        <ele>249</ele>
        <time>2021-05-20T12:19:36Z</time>
      </trkpt>
      <trkpt lat="46.76564" lon="5.60522">
        <ele>248.9</ele>
        <time>2021-05-20T12:19:41Z</time>
      </trkpt>
      <trkpt lat="46.76567" lon="5.60516">
        <ele>248.6</ele>
        <time>2021-05-20T12:19:45Z</time>
      </trkpt>
      <trkpt lat="46.7657" lon="5.6051">
        <ele>248.2</ele>
        <time>2021-05-20T12:19:51Z</time>
      </trkpt>
      <trkpt lat="46.76574" lon="5.60504">
        <ele>247.8</ele>
        <time>2021-05-20T12:19:56Z</time>
      </trkpt>
      <trkpt lat="46.76576" lon="5.60498">
        <ele>247.3</ele>
        <time>2021-05-20T12:20:00Z</time>
      </trkpt>
      <trkpt lat="46.76578" lon="5.60491">
        <ele>247</ele>
        <time>2021-05-20T12:20:04Z</time>
      </trkpt>
      <trkpt lat="46.7658" lon="5.60485">
        <ele>246.7</ele>
        <time>2021-05-20T12:20:08Z</time>
      </trkpt>
      <trkpt lat="46.76583" lon="5.60478">
        <ele>246.3</ele>
        <time>2021-05-20T12:20:13Z</time>
      </trkpt>
      <trkpt lat="46.76584" lon="5.60472">
        <ele>246.2</ele>
        <time>2021-05-20T12:20:17Z</time>
      </trkpt>
      <trkpt lat="46.76586" lon="5.60465">
        <ele>246.2</ele>
        <time>2021-05-20T12:20:22Z</time>
      </trkpt>
      <trkpt lat="46.76588" lon="5.60458">
        <ele>246.1</ele>
        <time>2021-05-20T12:20:26Z</time>
      </trkpt>
      <trkpt lat="46.7659" lon="5.6045">
        <ele>245.8</ele>
        <time>2021-05-20T12:20:30Z</time>
      </trkpt>
      <trkpt lat="46.76592" lon="5.60443">
        <ele>245.5</ele>
        <time>2021-05-20T12:20:34Z</time>
      </trkpt>
      <trkpt lat="46.76595" lon="5.60437">
        <ele>245.1</ele>
        <time>2021-05-20T12:20:38Z</time>
      </trkpt>
      <trkpt lat="46.76598" lon="5.60431">
        <ele>244.7</ele>
        <time>2021-05-20T12:20:42Z</time>
      </trkpt>
      <trkpt lat="46.76601" lon="5.60424">
        <ele>244.2</ele>
        <time>2021-05-20T12:20:46Z</time>
      </trkpt>
      <trkpt lat="46.76604" lon="5.60418">
        <ele>243.9</ele>
        <time>2021-05-20T12:20:50Z</time>
      </trkpt>
      <trkpt lat="46.76605" lon="5.60411">
        <ele>243.6</ele>
        <time>2021-05-20T12:20:54Z</time>
      </trkpt>
      <trkpt lat="46.76608" lon="5.60404">
        <ele>243.7</ele>
        <time>2021-05-20T12:20:58Z</time>
      </trkpt>
      <trkpt lat="46.76608" lon="5.60397">
        <ele>244.1</ele>
        <time>2021-05-20T12:21:02Z</time>
      </trkpt>
      <trkpt lat="46.76609" lon="5.6039">
        <ele>244.6</ele>
        <time>2021-05-20T12:21:06Z</time>
      </trkpt>
      <trkpt lat="46.76611" lon="5.60384">
        <ele>245.1</ele>
        <time>2021-05-20T12:21:10Z</time>
      </trkpt>
      <trkpt lat="46.76614" lon="5.60378">
        <ele>245.7</ele>
        <time>2021-05-20T12:21:14Z</time>
      </trkpt>
      <trkpt lat="46.76615" lon="5.60371">
        <ele>246.2</ele>
        <time>2021-05-20T12:21:18Z</time>
      </trkpt>
      <trkpt lat="46.76617" lon="5.60365">
        <ele>246.7</ele>
        <time>2021-05-20T12:21:22Z</time>
      </trkpt>
      <trkpt lat="46.76619" lon="5.60359">
        <ele>247.2</ele>
        <time>2021-05-20T12:21:26Z</time>
      </trkpt>
      <trkpt lat="46.7662" lon="5.60352">
        <ele>247.5</ele>
        <time>2021-05-20T12:21:30Z</time>
      </trkpt>
      <trkpt lat="46.76622" lon="5.60345">
        <ele>247.8</ele>
        <time>2021-05-20T12:21:35Z</time>
      </trkpt>
      <trkpt lat="46.76624" lon="5.60339">
        <ele>247.7</ele>
        <time>2021-05-20T12:21:39Z</time>
      </trkpt>
      <trkpt lat="46.76627" lon="5.60332">
        <ele>247.5</ele>
        <time>2021-05-20T12:21:44Z</time>
      </trkpt>
      <trkpt lat="46.76629" lon="5.60325">
        <ele>247.1</ele>
        <time>2021-05-20T12:21:48Z</time>
      </trkpt>
      <trkpt lat="46.76631" lon="5.60319">
        <ele>246.8</ele>
        <time>2021-05-20T12:21:52Z</time>
      </trkpt>
      <trkpt lat="46.76633" lon="5.60313">
        <ele>246.7</ele>
        <time>2021-05-20T12:21:56Z</time>
      </trkpt>
      <trkpt lat="46.76634" lon="5.60305">
        <ele>246.8</ele>
        <time>2021-05-20T12:22:01Z</time>
      </trkpt>
      <trkpt lat="46.76636" lon="5.60297">
        <ele>246.7</ele>
        <time>2021-05-20T12:22:06Z</time>
      </trkpt>
      <trkpt lat="46.76637" lon="5.6029">
        <ele>246.7</ele>
        <time>2021-05-20T12:22:10Z</time>
      </trkpt>
      <trkpt lat="46.76639" lon="5.60283">
        <ele>246.5</ele>
        <time>2021-05-20T12:22:14Z</time>
      </trkpt>
      <trkpt lat="46.76642" lon="5.60277">
        <ele>246.1</ele>
        <time>2021-05-20T12:22:18Z</time>
      </trkpt>
      <trkpt lat="46.76643" lon="5.6027">
        <ele>245.8</ele>
        <time>2021-05-20T12:22:22Z</time>
      </trkpt>
      <trkpt lat="46.76645" lon="5.60263">
        <ele>245.6</ele>
        <time>2021-05-20T12:22:26Z</time>
      </trkpt>
      <trkpt lat="46.76647" lon="5.60256">
        <ele>245.4</ele>
        <time>2021-05-20T12:22:31Z</time>
      </trkpt>
      <trkpt lat="46.7665" lon="5.6025">
        <ele>245.2</ele>
        <time>2021-05-20T12:22:36Z</time>
      </trkpt>
      <trkpt lat="46.76652" lon="5.60245">
        <ele>244.8</ele>
        <time>2021-05-20T12:22:41Z</time>
      </trkpt>
      <trkpt lat="46.76655" lon="5.60239">
        <ele>244.8</ele>
        <time>2021-05-20T12:22:45Z</time>
      </trkpt>
      <trkpt lat="46.76657" lon="5.60233">
        <ele>244.8</ele>
        <time>2021-05-20T12:22:49Z</time>
      </trkpt>
      <trkpt lat="46.7666" lon="5.60226">
        <ele>244.7</ele>
        <time>2021-05-20T12:22:53Z</time>
      </trkpt>
      <trkpt lat="46.76663" lon="5.6022">
        <ele>244.7</ele>
        <time>2021-05-20T12:22:57Z</time>
      </trkpt>
      <trkpt lat="46.76665" lon="5.60214">
        <ele>245</ele>
        <time>2021-05-20T12:23:01Z</time>
      </trkpt>
      <trkpt lat="46.76666" lon="5.60208">
        <ele>245.6</ele>
        <time>2021-05-20T12:23:05Z</time>
      </trkpt>
      <trkpt lat="46.76669" lon="5.60201">
        <ele>246.3</ele>
        <time>2021-05-20T12:23:09Z</time>
      </trkpt>
      <trkpt lat="46.76671" lon="5.60195">
        <ele>247.1</ele>
        <time>2021-05-20T12:23:13Z</time>
      </trkpt>
      <trkpt lat="46.76672" lon="5.60186">
        <ele>247.9</ele>
        <time>2021-05-20T12:23:18Z</time>
      </trkpt>
      <trkpt lat="46.76674" lon="5.6018">
        <ele>248.3</ele>
        <time>2021-05-20T12:23:22Z</time>
      </trkpt>
      <trkpt lat="46.76676" lon="5.60173">
        <ele>248.4</ele>
        <time>2021-05-20T12:23:27Z</time>
      </trkpt>
      <trkpt lat="46.76679" lon="5.60167">
        <ele>248.2</ele>
        <time>2021-05-20T12:23:32Z</time>
      </trkpt>
      <trkpt lat="46.76682" lon="5.60161">
        <ele>247.7</ele>
        <time>2021-05-20T12:23:36Z</time>
      </trkpt>
      <trkpt lat="46.76685" lon="5.60155">
        <ele>246.9</ele>
        <time>2021-05-20T12:23:41Z</time>
      </trkpt>
      <trkpt lat="46.76687" lon="5.6015">
        <ele>246</ele>
        <time>2021-05-20T12:23:45Z</time>
      </trkpt>
      <trkpt lat="46.7669" lon="5.60143">
        <ele>245</ele>
        <time>2021-05-20T12:23:49Z</time>
      </trkpt>
      <trkpt lat="46.76692" lon="5.60136">
        <ele>244.4</ele>
        <time>2021-05-20T12:23:54Z</time>
      </trkpt>
      <trkpt lat="46.76694" lon="5.6013">
        <ele>244.3</ele>
        <time>2021-05-20T12:23:58Z</time>
      </trkpt>
      <trkpt lat="46.76695" lon="5.60123">
        <ele>244.4</ele>
        <time>2021-05-20T12:24:02Z</time>
      </trkpt>
      <trkpt lat="46.76697" lon="5.60116">
        <ele>244.6</ele>
        <time>2021-05-20T12:24:07Z</time>
      </trkpt>
      <trkpt lat="46.767" lon="5.60109">
        <ele>244.8</ele>
        <time>2021-05-20T12:24:12Z</time>
      </trkpt>
      <trkpt lat="46.76702" lon="5.60104">
        <ele>245.6</ele>
        <time>2021-05-20T12:24:17Z</time>
      </trkpt>
      <trkpt lat="46.76704" lon="5.60097">
        <ele>246.1</ele>
        <time>2021-05-20T12:24:21Z</time>
      </trkpt>
      <trkpt lat="46.76706" lon="5.6009">
        <ele>246.3</ele>
        <time>2021-05-20T12:24:26Z</time>
      </trkpt>
      <trkpt lat="46.76709" lon="5.60084">
        <ele>246.6</ele>
        <time>2021-05-20T12:24:30Z</time>
      </trkpt>
      <trkpt lat="46.76711" lon="5.60078">
        <ele>246.7</ele>
        <time>2021-05-20T12:24:35Z</time>
      </trkpt>
      <trkpt lat="46.76713" lon="5.60071">
        <ele>247.4</ele>
        <time>2021-05-20T12:24:40Z</time>
      </trkpt>
      <trkpt lat="46.76717" lon="5.60067">
        <ele>247.9</ele>
        <time>2021-05-20T12:24:45Z</time>
      </trkpt>
      <trkpt lat="46.76721" lon="5.60068">
        <ele>248.5</ele>
        <time>2021-05-20T12:24:50Z</time>
      </trkpt>
      <trkpt lat="46.76726" lon="5.6007">
        <ele>248.4</ele>
        <time>2021-05-20T12:24:56Z</time>
      </trkpt>
      <trkpt lat="46.76731" lon="5.60074">
        <ele>248.4</ele>
        <time>2021-05-20T12:25:01Z</time>
      </trkpt>
      <trkpt lat="46.76735" lon="5.60078">
        <ele>248.3</ele>
        <time>2021-05-20T12:25:06Z</time>
      </trkpt>
      <trkpt lat="46.76739" lon="5.60083">
        <ele>247.9</ele>
        <time>2021-05-20T12:25:11Z</time>
      </trkpt>
      <trkpt lat="46.76741" lon="5.6009">
        <ele>247.1</ele>
        <time>2021-05-20T12:25:16Z</time>
      </trkpt>
      <trkpt lat="46.76745" lon="5.60093">
        <ele>246.3</ele>
        <time>2021-05-20T12:25:20Z</time>
      </trkpt>
      <trkpt lat="46.7675" lon="5.60097">
        <ele>245</ele>
        <time>2021-05-20T12:25:25Z</time>
      </trkpt>
      <trkpt lat="46.76753" lon="5.60103">
        <ele>243.6</ele>
        <time>2021-05-20T12:25:30Z</time>
      </trkpt>
      <trkpt lat="46.76757" lon="5.60107">
        <ele>242.9</ele>
        <time>2021-05-20T12:25:35Z</time>
      </trkpt>
      <trkpt lat="46.76762" lon="5.6011">
        <ele>242.7</ele>
        <time>2021-05-20T12:25:39Z</time>
      </trkpt>
      <trkpt lat="46.76767" lon="5.60111">
        <ele>242.5</ele>
        <time>2021-05-20T12:25:43Z</time>
      </trkpt>
      <trkpt lat="46.76772" lon="5.6011">
        <ele>242.3</ele>
        <time>2021-05-20T12:25:47Z</time>
      </trkpt>
      <trkpt lat="46.76777" lon="5.60109">
        <ele>242.3</ele>
        <time>2021-05-20T12:25:52Z</time>
      </trkpt>
      <trkpt lat="46.76782" lon="5.60106">
        <ele>242.5</ele>
        <time>2021-05-20T12:25:57Z</time>
      </trkpt>
      <trkpt lat="46.76786" lon="5.60103">
        <ele>242.7</ele>
        <time>2021-05-20T12:26:02Z</time>
      </trkpt>
      <trkpt lat="46.76791" lon="5.60101">
        <ele>242.7</ele>
        <time>2021-05-20T12:26:07Z</time>
      </trkpt>
      <trkpt lat="46.76796" lon="5.60098">
        <ele>242.6</ele>
        <time>2021-05-20T12:26:12Z</time>
      </trkpt>
      <trkpt lat="46.76801" lon="5.60096">
        <ele>242.4</ele>
        <time>2021-05-20T12:26:16Z</time>
      </trkpt>
      <trkpt lat="46.76805" lon="5.60094">
        <ele>242.5</ele>
        <time>2021-05-20T12:26:20Z</time>
      </trkpt>
      <trkpt lat="46.7681" lon="5.6009">
        <ele>242.9</ele>
        <time>2021-05-20T12:26:24Z</time>
      </trkpt>
      <trkpt lat="46.76814" lon="5.60086">
        <ele>243</ele>
        <time>2021-05-20T12:26:30Z</time>
      </trkpt>
      <trkpt lat="46.76818" lon="5.60083">
        <ele>242.8</ele>
        <time>2021-05-20T12:26:34Z</time>
      </trkpt>
      <trkpt lat="46.76822" lon="5.60078">
        <ele>242.7</ele>
        <time>2021-05-20T12:26:38Z</time>
      </trkpt>
      <trkpt lat="46.76826" lon="5.60072">
        <ele>242.6</ele>
        <time>2021-05-20T12:26:42Z</time>
      </trkpt>
      <trkpt lat="46.76829" lon="5.60067">
        <ele>242.6</ele>
        <time>2021-05-20T12:26:46Z</time>
      </trkpt>
      <trkpt lat="46.76832" lon="5.60063">
        <ele>242.6</ele>
        <time>2021-05-20T12:26:50Z</time>
      </trkpt>
      <trkpt lat="46.76836" lon="5.60058">
        <ele>242.8</ele>
        <time>2021-05-20T12:26:54Z</time>
      </trkpt>
      <trkpt lat="46.76839" lon="5.60052">
        <ele>242.9</ele>
        <time>2021-05-20T12:26:58Z</time>
      </trkpt>
      <trkpt lat="46.76842" lon="5.60048">
        <ele>243.2</ele>
        <time>2021-05-20T12:27:02Z</time>
      </trkpt>
      <trkpt lat="46.76846" lon="5.60042">
        <ele>242.9</ele>
        <time>2021-05-20T12:27:07Z</time>
      </trkpt>
      <trkpt lat="46.7685" lon="5.60037">
        <ele>242.7</ele>
        <time>2021-05-20T12:27:11Z</time>
      </trkpt>
      <trkpt lat="46.76853" lon="5.60031">
        <ele>242.4</ele>
        <time>2021-05-20T12:27:15Z</time>
      </trkpt>
      <trkpt lat="46.76857" lon="5.60026">
        <ele>242.6</ele>
        <time>2021-05-20T12:27:19Z</time>
      </trkpt>
      <trkpt lat="46.76861" lon="5.60021">
        <ele>242.8</ele>
        <time>2021-05-20T12:27:23Z</time>
      </trkpt>
      <trkpt lat="46.76864" lon="5.60016">
        <ele>243.2</ele>
        <time>2021-05-20T12:27:27Z</time>
      </trkpt>
      <trkpt lat="46.76868" lon="5.6001">
        <ele>243.6</ele>
        <time>2021-05-20T12:27:32Z</time>
      </trkpt>
      <trkpt lat="46.76871" lon="5.60005">
        <ele>243.7</ele>
        <time>2021-05-20T12:27:36Z</time>
      </trkpt>
      <trkpt lat="46.76873" lon="5.59998">
        <ele>243.8</ele>
        <time>2021-05-20T12:27:41Z</time>
      </trkpt>
      <trkpt lat="46.76876" lon="5.59991">
        <ele>244.1</ele>
        <time>2021-05-20T12:27:46Z</time>
      </trkpt>
      <trkpt lat="46.76878" lon="5.59984">
        <ele>244</ele>
        <time>2021-05-20T12:27:50Z</time>
      </trkpt>
      <trkpt lat="46.76879" lon="5.59977">
        <ele>243.6</ele>
        <time>2021-05-20T12:27:55Z</time>
      </trkpt>
      <trkpt lat="46.76881" lon="5.5997">
        <ele>243.3</ele>
        <time>2021-05-20T12:28:00Z</time>
      </trkpt>
      <trkpt lat="46.76882" lon="5.59963">
        <ele>243.2</ele>
        <time>2021-05-20T12:28:05Z</time>
      </trkpt>
      <trkpt lat="46.76883" lon="5.59956">
        <ele>243.3</ele>
        <time>2021-05-20T12:28:09Z</time>
      </trkpt>
      <trkpt lat="46.76883" lon="5.59949">
        <ele>243.4</ele>
        <time>2021-05-20T12:28:13Z</time>
      </trkpt>
      <trkpt lat="46.76884" lon="5.59942">
        <ele>243.3</ele>
        <time>2021-05-20T12:28:18Z</time>
      </trkpt>
      <trkpt lat="46.76886" lon="5.59934">
        <ele>242.4</ele>
        <time>2021-05-20T12:28:23Z</time>
      </trkpt>
      <trkpt lat="46.76887" lon="5.59927">
        <ele>241.9</ele>
        <time>2021-05-20T12:28:28Z</time>
      </trkpt>
      <trkpt lat="46.76889" lon="5.5992">
        <ele>241.3</ele>
        <time>2021-05-20T12:28:33Z</time>
      </trkpt>
      <trkpt lat="46.7689" lon="5.59913">
        <ele>240.9</ele>
        <time>2021-05-20T12:28:38Z</time>
      </trkpt>
      <trkpt lat="46.7689" lon="5.59906">
        <ele>240.8</ele>
        <time>2021-05-20T12:28:43Z</time>
      </trkpt>
      <trkpt lat="46.7689" lon="5.59898">
        <ele>240.7</ele>
        <time>2021-05-20T12:28:48Z</time>
      </trkpt>
      <trkpt lat="46.7689" lon="5.59891">
        <ele>240.8</ele>
        <time>2021-05-20T12:28:53Z</time>
      </trkpt>
      <trkpt lat="46.76887" lon="5.59884">
        <ele>240.9</ele>
        <time>2021-05-20T12:28:57Z</time>
      </trkpt>
      <trkpt lat="46.76885" lon="5.59877">
        <ele>240.9</ele>
        <time>2021-05-20T12:29:01Z</time>
      </trkpt>
      <trkpt lat="46.76886" lon="5.5987">
        <ele>240.8</ele>
        <time>2021-05-20T12:29:05Z</time>
      </trkpt>
      <trkpt lat="46.76886" lon="5.59863">
        <ele>241</ele>
        <time>2021-05-20T12:29:10Z</time>
      </trkpt>
      <trkpt lat="46.76884" lon="5.59857">
        <ele>240.9</ele>
        <time>2021-05-20T12:29:14Z</time>
      </trkpt>
      <trkpt lat="46.7688" lon="5.59851">
        <ele>240.8</ele>
        <time>2021-05-20T12:29:19Z</time>
      </trkpt>
      <trkpt lat="46.76876" lon="5.59848">
        <ele>241.1</ele>
        <time>2021-05-20T12:29:25Z</time>
      </trkpt>
      <trkpt lat="46.76871" lon="5.59848">
        <ele>239.6</ele>
        <time>2021-05-20T12:31:27Z</time>
      </trkpt>
      <trkpt lat="46.76868" lon="5.59853">
        <ele>241.7</ele>
        <time>2021-05-20T12:34:42Z</time>
      </trkpt>
      <trkpt lat="46.76866" lon="5.5986">
        <ele>242.5</ele>
        <time>2021-05-20T12:35:01Z</time>
      </trkpt>
      <trkpt lat="46.76872" lon="5.59861">
        <ele>244.3</ele>
        <time>2021-05-20T12:35:05Z</time>
      </trkpt>
      <trkpt lat="46.76877" lon="5.5986">
        <ele>253.1</ele>
        <time>2021-05-20T12:35:25Z</time>
      </trkpt>
      <trkpt lat="46.76876" lon="5.59853">
        <ele>254.3</ele>
        <time>2021-05-20T12:35:32Z</time>
      </trkpt>
      <trkpt lat="46.76873" lon="5.59847">
        <ele>255</ele>
        <time>2021-05-20T12:35:42Z</time>
      </trkpt>
      <trkpt lat="46.76867" lon="5.59845">
        <ele>254.7</ele>
        <time>2021-05-20T12:35:47Z</time>
      </trkpt>
      <trkpt lat="46.76862" lon="5.59844">
        <ele>253.5</ele>
        <time>2021-05-20T12:35:52Z</time>
      </trkpt>
      <trkpt lat="46.76857" lon="5.59843">
        <ele>250.8</ele>
        <time>2021-05-20T12:35:57Z</time>
      </trkpt>
      <trkpt lat="46.76852" lon="5.59843">
        <ele>248.6</ele>
        <time>2021-05-20T12:36:01Z</time>
      </trkpt>
      <trkpt lat="46.76847" lon="5.59843">
        <ele>246.6</ele>
        <time>2021-05-20T12:36:06Z</time>
      </trkpt>
      <trkpt lat="46.76843" lon="5.59845">
        <ele>245.6</ele>
        <time>2021-05-20T12:36:12Z</time>
      </trkpt>
      <trkpt lat="46.76838" lon="5.59847">
        <ele>245.1</ele>
        <time>2021-05-20T12:36:17Z</time>
      </trkpt>
      <trkpt lat="46.76833" lon="5.59847">
        <ele>244.7</ele>
        <time>2021-05-20T12:36:21Z</time>
      </trkpt>
      <trkpt lat="46.76828" lon="5.59848">
        <ele>244</ele>
        <time>2021-05-20T12:36:25Z</time>
      </trkpt>
      <trkpt lat="46.76824" lon="5.59849">
        <ele>243.4</ele>
        <time>2021-05-20T12:36:29Z</time>
      </trkpt>
      <trkpt lat="46.76819" lon="5.59848">
        <ele>242.8</ele>
        <time>2021-05-20T12:36:34Z</time>
      </trkpt>
      <trkpt lat="46.76814" lon="5.5985">
        <ele>242.2</ele>
        <time>2021-05-20T12:36:41Z</time>
      </trkpt>
      <trkpt lat="46.76811" lon="5.59855">
        <ele>242</ele>
        <time>2021-05-20T12:36:46Z</time>
      </trkpt>
      <trkpt lat="46.76808" lon="5.5986">
        <ele>241.7</ele>
        <time>2021-05-20T12:37:00Z</time>
      </trkpt>
      <trkpt lat="46.76812" lon="5.59856">
        <ele>241.9</ele>
        <time>2021-05-20T12:37:06Z</time>
      </trkpt>
      <trkpt lat="46.76816" lon="5.59851">
        <ele>242</ele>
        <time>2021-05-20T12:37:10Z</time>
      </trkpt>
      <trkpt lat="46.76816" lon="5.59858">
        <ele>243.3</ele>
        <time>2021-05-20T12:37:21Z</time>
      </trkpt>
      <trkpt lat="46.76812" lon="5.59861">
        <ele>237.7</ele>
        <time>2021-05-20T12:38:40Z</time>
      </trkpt>
      <trkpt lat="46.7681" lon="5.59855">
        <ele>236.6</ele>
        <time>2021-05-20T12:38:48Z</time>
      </trkpt>
      <trkpt lat="46.76807" lon="5.59849">
        <ele>236.1</ele>
        <time>2021-05-20T12:38:53Z</time>
      </trkpt>
      <trkpt lat="46.76803" lon="5.59845">
        <ele>235.5</ele>
        <time>2021-05-20T12:38:59Z</time>
      </trkpt>
      <trkpt lat="46.76797" lon="5.59845">
        <ele>235.6</ele>
        <time>2021-05-20T12:39:04Z</time>
      </trkpt>
      <trkpt lat="46.76792" lon="5.59849">
        <ele>236.3</ele>
        <time>2021-05-20T12:39:10Z</time>
      </trkpt>
      <trkpt lat="46.76789" lon="5.59854">
        <ele>237.1</ele>
        <time>2021-05-20T12:39:14Z</time>
      </trkpt>
      <trkpt lat="46.76785" lon="5.59858">
        <ele>238.2</ele>
        <time>2021-05-20T12:39:18Z</time>
      </trkpt>
      <trkpt lat="46.76781" lon="5.59862">
        <ele>239.4</ele>
        <time>2021-05-20T12:39:23Z</time>
      </trkpt>
      <trkpt lat="46.76777" lon="5.59866">
        <ele>240.7</ele>
        <time>2021-05-20T12:39:28Z</time>
      </trkpt>
      <trkpt lat="46.76773" lon="5.59869">
        <ele>242.2</ele>
        <time>2021-05-20T12:39:33Z</time>
      </trkpt>
      <trkpt lat="46.76768" lon="5.59869">
        <ele>242.9</ele>
        <time>2021-05-20T12:39:37Z</time>
      </trkpt>
      <trkpt lat="46.76763" lon="5.59869">
        <ele>242.9</ele>
        <time>2021-05-20T12:39:41Z</time>
      </trkpt>
      <trkpt lat="46.76758" lon="5.59866">
        <ele>242.5</ele>
        <time>2021-05-20T12:39:45Z</time>
      </trkpt>
      <trkpt lat="46.76755" lon="5.59861">
        <ele>241.9</ele>
        <time>2021-05-20T12:39:49Z</time>
      </trkpt>
      <trkpt lat="46.76753" lon="5.59854">
        <ele>240.9</ele>
        <time>2021-05-20T12:39:54Z</time>
      </trkpt>
      <trkpt lat="46.76757" lon="5.59845">
        <ele>238.5</ele>
        <time>2021-05-20T12:40:52Z</time>
      </trkpt>
      <trkpt lat="46.76759" lon="5.59839">
        <ele>238.3</ele>
        <time>2021-05-20T12:41:24Z</time>
      </trkpt>
      <trkpt lat="46.76763" lon="5.59835">
        <ele>238.5</ele>
        <time>2021-05-20T12:41:30Z</time>
      </trkpt>
      <trkpt lat="46.76767" lon="5.59831">
        <ele>239</ele>
        <time>2021-05-20T12:41:35Z</time>
      </trkpt>
      <trkpt lat="46.76771" lon="5.59825">
        <ele>239.1</ele>
        <time>2021-05-20T12:41:40Z</time>
      </trkpt>
      <trkpt lat="46.76774" lon="5.5982">
        <ele>239</ele>
        <time>2021-05-20T12:41:45Z</time>
      </trkpt>
      <trkpt lat="46.76776" lon="5.59814">
        <ele>238.7</ele>
        <time>2021-05-20T12:41:50Z</time>
      </trkpt>
      <trkpt lat="46.76779" lon="5.59808">
        <ele>238.2</ele>
        <time>2021-05-20T12:41:55Z</time>
      </trkpt>
      <trkpt lat="46.76782" lon="5.59803">
        <ele>237.5</ele>
        <time>2021-05-20T12:42:00Z</time>
      </trkpt>
      <trkpt lat="46.76787" lon="5.59798">
        <ele>237</ele>
        <time>2021-05-20T12:42:05Z</time>
      </trkpt>
      <trkpt lat="46.76791" lon="5.59796">
        <ele>236.8</ele>
        <time>2021-05-20T12:42:09Z</time>
      </trkpt>
      <trkpt lat="46.76796" lon="5.59795">
        <ele>236.6</ele>
        <time>2021-05-20T12:42:13Z</time>
      </trkpt>
      <trkpt lat="46.76801" lon="5.59796">
        <ele>236.5</ele>
        <time>2021-05-20T12:42:17Z</time>
      </trkpt>
      <trkpt lat="46.76806" lon="5.59796">
        <ele>236.3</ele>
        <time>2021-05-20T12:42:21Z</time>
      </trkpt>
      <trkpt lat="46.76811" lon="5.59795">
        <ele>235.8</ele>
        <time>2021-05-20T12:42:26Z</time>
      </trkpt>
      <trkpt lat="46.76816" lon="5.59793">
        <ele>235.2</ele>
        <time>2021-05-20T12:42:31Z</time>
      </trkpt>
      <trkpt lat="46.7682" lon="5.5979">
        <ele>235.3</ele>
        <time>2021-05-20T12:42:35Z</time>
      </trkpt>
      <trkpt lat="46.76824" lon="5.59786">
        <ele>235.6</ele>
        <time>2021-05-20T12:42:39Z</time>
      </trkpt>
      <trkpt lat="46.76825" lon="5.59779">
        <ele>235.9</ele>
        <time>2021-05-20T12:42:45Z</time>
      </trkpt>
      <trkpt lat="46.76826" lon="5.59772">
        <ele>236.2</ele>
        <time>2021-05-20T12:42:50Z</time>
      </trkpt>
      <trkpt lat="46.76828" lon="5.59764">
        <ele>236.1</ele>
        <time>2021-05-20T12:42:55Z</time>
      </trkpt>
      <trkpt lat="46.7683" lon="5.59759">
        <ele>236.3</ele>
        <time>2021-05-20T12:42:59Z</time>
      </trkpt>
      <trkpt lat="46.76833" lon="5.59752">
        <ele>236.7</ele>
        <time>2021-05-20T12:43:04Z</time>
      </trkpt>
      <trkpt lat="46.76834" lon="5.59745">
        <ele>237.1</ele>
        <time>2021-05-20T12:43:09Z</time>
      </trkpt>
      <trkpt lat="46.76833" lon="5.59738">
        <ele>237.5</ele>
        <time>2021-05-20T12:43:14Z</time>
      </trkpt>
      <trkpt lat="46.76829" lon="5.59732">
        <ele>238.4</ele>
        <time>2021-05-20T12:43:20Z</time>
      </trkpt>
      <trkpt lat="46.76826" lon="5.59727">
        <ele>238.9</ele>
        <time>2021-05-20T12:43:26Z</time>
      </trkpt>
      <trkpt lat="46.76823" lon="5.59722">
        <ele>239.4</ele>
        <time>2021-05-20T12:43:31Z</time>
      </trkpt>
      <trkpt lat="46.7682" lon="5.59715">
        <ele>239.9</ele>
        <time>2021-05-20T12:43:37Z</time>
      </trkpt>
      <trkpt lat="46.76817" lon="5.59709">
        <ele>240.5</ele>
        <time>2021-05-20T12:43:43Z</time>
      </trkpt>
      <trkpt lat="46.76815" lon="5.59703">
        <ele>240.9</ele>
        <time>2021-05-20T12:43:49Z</time>
      </trkpt>
      <trkpt lat="46.76811" lon="5.59698">
        <ele>241.2</ele>
        <time>2021-05-20T12:43:55Z</time>
      </trkpt>
      <trkpt lat="46.76806" lon="5.59699">
        <ele>241.3</ele>
        <time>2021-05-20T12:43:59Z</time>
      </trkpt>
      <trkpt lat="46.768" lon="5.597">
        <ele>241.1</ele>
        <time>2021-05-20T12:44:03Z</time>
      </trkpt>
      <trkpt lat="46.76796" lon="5.597">
        <ele>240.8</ele>
        <time>2021-05-20T12:44:07Z</time>
      </trkpt>
      <trkpt lat="46.7679" lon="5.59701">
        <ele>240.4</ele>
        <time>2021-05-20T12:44:12Z</time>
      </trkpt>
      <trkpt lat="46.76785" lon="5.59699">
        <ele>240</ele>
        <time>2021-05-20T12:44:17Z</time>
      </trkpt>
      <trkpt lat="46.76781" lon="5.59697">
        <ele>239.4</ele>
        <time>2021-05-20T12:44:21Z</time>
      </trkpt>
      <trkpt lat="46.76776" lon="5.59694">
        <ele>238.7</ele>
        <time>2021-05-20T12:44:25Z</time>
      </trkpt>
      <trkpt lat="46.76771" lon="5.59691">
        <ele>238</ele>
        <time>2021-05-20T12:44:30Z</time>
      </trkpt>
      <trkpt lat="46.76766" lon="5.59686">
        <ele>237.4</ele>
        <time>2021-05-20T12:44:35Z</time>
      </trkpt>
      <trkpt lat="46.76762" lon="5.59683">
        <ele>237</ele>
        <time>2021-05-20T12:44:39Z</time>
      </trkpt>
      <trkpt lat="46.76757" lon="5.59681">
        <ele>236.5</ele>
        <time>2021-05-20T12:44:43Z</time>
      </trkpt>
      <trkpt lat="46.76753" lon="5.59676">
        <ele>236</ele>
        <time>2021-05-20T12:44:48Z</time>
      </trkpt>
      <trkpt lat="46.76749" lon="5.59672">
        <ele>235.9</ele>
        <time>2021-05-20T12:44:53Z</time>
      </trkpt>
      <trkpt lat="46.76745" lon="5.59668">
        <ele>236.1</ele>
        <time>2021-05-20T12:44:58Z</time>
      </trkpt>
      <trkpt lat="46.76741" lon="5.59665">
        <ele>236.4</ele>
        <time>2021-05-20T12:45:02Z</time>
      </trkpt>
      <trkpt lat="46.76737" lon="5.5966">
        <ele>236.6</ele>
        <time>2021-05-20T12:45:06Z</time>
      </trkpt>
      <trkpt lat="46.76733" lon="5.59656">
        <ele>237</ele>
        <time>2021-05-20T12:45:11Z</time>
      </trkpt>
      <trkpt lat="46.76728" lon="5.59652">
        <ele>237.3</ele>
        <time>2021-05-20T12:45:17Z</time>
      </trkpt>
      <trkpt lat="46.76724" lon="5.59649">
        <ele>237.4</ele>
        <time>2021-05-20T12:45:21Z</time>
      </trkpt>
      <trkpt lat="46.76721" lon="5.59644">
        <ele>237.8</ele>
        <time>2021-05-20T12:45:26Z</time>
      </trkpt>
      <trkpt lat="46.76722" lon="5.59636">
        <ele>238.6</ele>
        <time>2021-05-20T12:45:31Z</time>
      </trkpt>
      <trkpt lat="46.76723" lon="5.59629">
        <ele>238.7</ele>
        <time>2021-05-20T12:45:35Z</time>
      </trkpt>
      <trkpt lat="46.76724" lon="5.59622">
        <ele>238.2</ele>
        <time>2021-05-20T12:45:39Z</time>
      </trkpt>
      <trkpt lat="46.76725" lon="5.59616">
        <ele>237.5</ele>
        <time>2021-05-20T12:45:43Z</time>
      </trkpt>
      <trkpt lat="46.76728" lon="5.5961">
        <ele>237.1</ele>
        <time>2021-05-20T12:45:47Z</time>
      </trkpt>
      <trkpt lat="46.7673" lon="5.59604">
        <ele>236.5</ele>
        <time>2021-05-20T12:45:52Z</time>
      </trkpt>
      <trkpt lat="46.76732" lon="5.59596">
        <ele>235.7</ele>
        <time>2021-05-20T12:45:57Z</time>
      </trkpt>
      <trkpt lat="46.76734" lon="5.59591">
        <ele>235</ele>
        <time>2021-05-20T12:46:01Z</time>
      </trkpt>
      <trkpt lat="46.76737" lon="5.59585">
        <ele>234.7</ele>
        <time>2021-05-20T12:46:05Z</time>
      </trkpt>
      <trkpt lat="46.76739" lon="5.59579">
        <ele>234.6</ele>
        <time>2021-05-20T12:46:09Z</time>
      </trkpt>
      <trkpt lat="46.76742" lon="5.59572">
        <ele>235.1</ele>
        <time>2021-05-20T12:46:13Z</time>
      </trkpt>
      <trkpt lat="46.76745" lon="5.59566">
        <ele>235.7</ele>
        <time>2021-05-20T12:46:18Z</time>
      </trkpt>
      <trkpt lat="46.76748" lon="5.59558">
        <ele>236.4</ele>
        <time>2021-05-20T12:46:23Z</time>
      </trkpt>
      <trkpt lat="46.76749" lon="5.59551">
        <ele>236.8</ele>
        <time>2021-05-20T12:46:27Z</time>
      </trkpt>
      <trkpt lat="46.76751" lon="5.59545">
        <ele>237.1</ele>
        <time>2021-05-20T12:46:31Z</time>
      </trkpt>
      <trkpt lat="46.76753" lon="5.59539">
        <ele>237.3</ele>
        <time>2021-05-20T12:46:35Z</time>
      </trkpt>
      <trkpt lat="46.76756" lon="5.59532">
        <ele>237.3</ele>
        <time>2021-05-20T12:46:40Z</time>
      </trkpt>
      <trkpt lat="46.76759" lon="5.59526">
        <ele>237.5</ele>
        <time>2021-05-20T12:46:44Z</time>
      </trkpt>
      <trkpt lat="46.76762" lon="5.5952">
        <ele>237.8</ele>
        <time>2021-05-20T12:46:48Z</time>
      </trkpt>
      <trkpt lat="46.76766" lon="5.59514">
        <ele>238.2</ele>
        <time>2021-05-20T12:46:52Z</time>
      </trkpt>
      <trkpt lat="46.76769" lon="5.59509">
        <ele>238.6</ele>
        <time>2021-05-20T12:46:56Z</time>
      </trkpt>
      <trkpt lat="46.76773" lon="5.59505">
        <ele>239.2</ele>
        <time>2021-05-20T12:47:00Z</time>
      </trkpt>
      <trkpt lat="46.76778" lon="5.59502">
        <ele>240.1</ele>
        <time>2021-05-20T12:47:04Z</time>
      </trkpt>
      <trkpt lat="46.76783" lon="5.59498">
        <ele>240.7</ele>
        <time>2021-05-20T12:47:08Z</time>
      </trkpt>
      <trkpt lat="46.76788" lon="5.59495">
        <ele>240.8</ele>
        <time>2021-05-20T12:47:12Z</time>
      </trkpt>
      <trkpt lat="46.76792" lon="5.59493">
        <ele>240.6</ele>
        <time>2021-05-20T12:47:16Z</time>
      </trkpt>
      <trkpt lat="46.76797" lon="5.59489">
        <ele>240.2</ele>
        <time>2021-05-20T12:47:22Z</time>
      </trkpt>
      <trkpt lat="46.76801" lon="5.59483">
        <ele>240.1</ele>
        <time>2021-05-20T12:47:27Z</time>
      </trkpt>
      <trkpt lat="46.76804" lon="5.59478">
        <ele>240.5</ele>
        <time>2021-05-20T12:47:31Z</time>
      </trkpt>
      <trkpt lat="46.76807" lon="5.59473">
        <ele>240.8</ele>
        <time>2021-05-20T12:47:35Z</time>
      </trkpt>
      <trkpt lat="46.76811" lon="5.59468">
        <ele>241.1</ele>
        <time>2021-05-20T12:47:39Z</time>
      </trkpt>
      <trkpt lat="46.76815" lon="5.59465">
        <ele>241.7</ele>
        <time>2021-05-20T12:47:43Z</time>
      </trkpt>
      <trkpt lat="46.76819" lon="5.59462">
        <ele>241.4</ele>
        <time>2021-05-20T12:47:48Z</time>
      </trkpt>
      <trkpt lat="46.76823" lon="5.59458">
        <ele>241.3</ele>
        <time>2021-05-20T12:47:52Z</time>
      </trkpt>
      <trkpt lat="46.76828" lon="5.59454">
        <ele>241.4</ele>
        <time>2021-05-20T12:47:57Z</time>
      </trkpt>
      <trkpt lat="46.7683" lon="5.59448">
        <ele>239.6</ele>
        <time>2021-05-20T12:48:31Z</time>
      </trkpt>
      <trkpt lat="46.76832" lon="5.59442">
        <ele>238.4</ele>
        <time>2021-05-20T12:48:36Z</time>
      </trkpt>
      <trkpt lat="46.76835" lon="5.59437">
        <ele>237.6</ele>
        <time>2021-05-20T12:48:40Z</time>
      </trkpt>
      <trkpt lat="46.76838" lon="5.59432">
        <ele>236.8</ele>
        <time>2021-05-20T12:48:44Z</time>
      </trkpt>
      <trkpt lat="46.76842" lon="5.59427">
        <ele>236.2</ele>
        <time>2021-05-20T12:48:49Z</time>
      </trkpt>
      <trkpt lat="46.76847" lon="5.59422">
        <ele>235.6</ele>
        <time>2021-05-20T12:48:54Z</time>
      </trkpt>
      <trkpt lat="46.7685" lon="5.59418">
        <ele>235</ele>
        <time>2021-05-20T12:48:58Z</time>
      </trkpt>
      <trkpt lat="46.76854" lon="5.59414">
        <ele>234.8</ele>
        <time>2021-05-20T12:49:02Z</time>
      </trkpt>
      <trkpt lat="46.76858" lon="5.5941">
        <ele>235.1</ele>
        <time>2021-05-20T12:49:06Z</time>
      </trkpt>
      <trkpt lat="46.76861" lon="5.59405">
        <ele>235.3</ele>
        <time>2021-05-20T12:49:10Z</time>
      </trkpt>
      <trkpt lat="46.76865" lon="5.59399">
        <ele>235.7</ele>
        <time>2021-05-20T12:49:15Z</time>
      </trkpt>
      <trkpt lat="46.76869" lon="5.59395">
        <ele>236</ele>
        <time>2021-05-20T12:49:19Z</time>
      </trkpt>
      <trkpt lat="46.76873" lon="5.59391">
        <ele>236.2</ele>
        <time>2021-05-20T12:49:23Z</time>
      </trkpt>
      <trkpt lat="46.76877" lon="5.59387">
        <ele>236.4</ele>
        <time>2021-05-20T12:49:27Z</time>
      </trkpt>
      <trkpt lat="46.76881" lon="5.59383">
        <ele>236.4</ele>
        <time>2021-05-20T12:49:31Z</time>
      </trkpt>
      <trkpt lat="46.76885" lon="5.59378">
        <ele>236.5</ele>
        <time>2021-05-20T12:49:36Z</time>
      </trkpt>
      <trkpt lat="46.7689" lon="5.59373">
        <ele>236.8</ele>
        <time>2021-05-20T12:49:41Z</time>
      </trkpt>
      <trkpt lat="46.76894" lon="5.59369">
        <ele>237</ele>
        <time>2021-05-20T12:49:45Z</time>
      </trkpt>
      <trkpt lat="46.76897" lon="5.59365">
        <ele>237.1</ele>
        <time>2021-05-20T12:49:49Z</time>
      </trkpt>
      <trkpt lat="46.76901" lon="5.59361">
        <ele>236.9</ele>
        <time>2021-05-20T12:49:53Z</time>
      </trkpt>
      <trkpt lat="46.76905" lon="5.59357">
        <ele>236.7</ele>
        <time>2021-05-20T12:49:57Z</time>
      </trkpt>
      <trkpt lat="46.76908" lon="5.59352">
        <ele>236.5</ele>
        <time>2021-05-20T12:50:01Z</time>
      </trkpt>
      <trkpt lat="46.76913" lon="5.59348">
        <ele>236.3</ele>
        <time>2021-05-20T12:50:06Z</time>
      </trkpt>
      <trkpt lat="46.76917" lon="5.59344">
        <ele>236.1</ele>
        <time>2021-05-20T12:50:10Z</time>
      </trkpt>
      <trkpt lat="46.76921" lon="5.59339">
        <ele>236.1</ele>
        <time>2021-05-20T12:50:14Z</time>
      </trkpt>
      <trkpt lat="46.76925" lon="5.59334">
        <ele>236.3</ele>
        <time>2021-05-20T12:50:19Z</time>
      </trkpt>
      <trkpt lat="46.76929" lon="5.59329">
        <ele>236.6</ele>
        <time>2021-05-20T12:50:23Z</time>
      </trkpt>
      <trkpt lat="46.76934" lon="5.59325">
        <ele>236.7</ele>
        <time>2021-05-20T12:50:28Z</time>
      </trkpt>
      <trkpt lat="46.76938" lon="5.5932">
        <ele>236.6</ele>
        <time>2021-05-20T12:50:32Z</time>
      </trkpt>
      <trkpt lat="46.76941" lon="5.59315">
        <ele>236.4</ele>
        <time>2021-05-20T12:50:36Z</time>
      </trkpt>
      <trkpt lat="46.76945" lon="5.59311">
        <ele>236.1</ele>
        <time>2021-05-20T12:50:41Z</time>
      </trkpt>
      <trkpt lat="46.76949" lon="5.59306">
        <ele>235.9</ele>
        <time>2021-05-20T12:50:46Z</time>
      </trkpt>
      <trkpt lat="46.76953" lon="5.59301">
        <ele>235.7</ele>
        <time>2021-05-20T12:50:50Z</time>
      </trkpt>
      <trkpt lat="46.76956" lon="5.59297">
        <ele>235.4</ele>
        <time>2021-05-20T12:50:54Z</time>
      </trkpt>
      <trkpt lat="46.7696" lon="5.59292">
        <ele>235.2</ele>
        <time>2021-05-20T12:50:58Z</time>
      </trkpt>
      <trkpt lat="46.76963" lon="5.59286">
        <ele>234.9</ele>
        <time>2021-05-20T12:51:03Z</time>
      </trkpt>
      <trkpt lat="46.76967" lon="5.5928">
        <ele>235.2</ele>
        <time>2021-05-20T12:51:08Z</time>
      </trkpt>
      <trkpt lat="46.76971" lon="5.59275">
        <ele>235.6</ele>
        <time>2021-05-20T12:51:13Z</time>
      </trkpt>
      <trkpt lat="46.76975" lon="5.59271">
        <ele>236.3</ele>
        <time>2021-05-20T12:51:17Z</time>
      </trkpt>
      <trkpt lat="46.76978" lon="5.59266">
        <ele>237.2</ele>
        <time>2021-05-20T12:51:21Z</time>
      </trkpt>
      <trkpt lat="46.76981" lon="5.5926">
        <ele>237.5</ele>
        <time>2021-05-20T12:51:25Z</time>
      </trkpt>
      <trkpt lat="46.76984" lon="5.59254">
        <ele>237.6</ele>
        <time>2021-05-20T12:51:29Z</time>
      </trkpt>
      <trkpt lat="46.76987" lon="5.59249">
        <ele>237.4</ele>
        <time>2021-05-20T12:51:33Z</time>
      </trkpt>
      <trkpt lat="46.76991" lon="5.59243">
        <ele>237.1</ele>
        <time>2021-05-20T12:51:38Z</time>
      </trkpt>
      <trkpt lat="46.76994" lon="5.59237">
        <ele>237</ele>
        <time>2021-05-20T12:51:43Z</time>
      </trkpt>
      <trkpt lat="46.76998" lon="5.59232">
        <ele>237</ele>
        <time>2021-05-20T12:51:48Z</time>
      </trkpt>
      <trkpt lat="46.77002" lon="5.59226">
        <ele>237.2</ele>
        <time>2021-05-20T12:51:53Z</time>
      </trkpt>
      <trkpt lat="46.77005" lon="5.59221">
        <ele>237.4</ele>
        <time>2021-05-20T12:51:57Z</time>
      </trkpt>
      <trkpt lat="46.77008" lon="5.59215">
        <ele>237.7</ele>
        <time>2021-05-20T12:52:02Z</time>
      </trkpt>
      <trkpt lat="46.77011" lon="5.59209">
        <ele>237.6</ele>
        <time>2021-05-20T12:52:06Z</time>
      </trkpt>
      <trkpt lat="46.77013" lon="5.59203">
        <ele>237.4</ele>
        <time>2021-05-20T12:52:10Z</time>
      </trkpt>
      <trkpt lat="46.77015" lon="5.59196">
        <ele>237</ele>
        <time>2021-05-20T12:52:15Z</time>
      </trkpt>
      <trkpt lat="46.77017" lon="5.5919">
        <ele>236.4</ele>
        <time>2021-05-20T12:52:19Z</time>
      </trkpt>
      <trkpt lat="46.77019" lon="5.59184">
        <ele>235.9</ele>
        <time>2021-05-20T12:52:23Z</time>
      </trkpt>
      <trkpt lat="46.77021" lon="5.59177">
        <ele>235.3</ele>
        <time>2021-05-20T12:52:28Z</time>
      </trkpt>
      <trkpt lat="46.77024" lon="5.5917">
        <ele>235</ele>
        <time>2021-05-20T12:52:33Z</time>
      </trkpt>
      <trkpt lat="46.77027" lon="5.59164">
        <ele>235</ele>
        <time>2021-05-20T12:52:38Z</time>
      </trkpt>
      <trkpt lat="46.77029" lon="5.59156">
        <ele>234.9</ele>
        <time>2021-05-20T12:52:42Z</time>
      </trkpt>
      <trkpt lat="46.7703" lon="5.5915">
        <ele>235.6</ele>
        <time>2021-05-20T12:52:47Z</time>
      </trkpt>
      <trkpt lat="46.77032" lon="5.59143">
        <ele>237.4</ele>
        <time>2021-05-20T12:52:58Z</time>
      </trkpt>
      <trkpt lat="46.77034" lon="5.59136">
        <ele>237.2</ele>
        <time>2021-05-20T12:53:03Z</time>
      </trkpt>
      <trkpt lat="46.77035" lon="5.59129">
        <ele>236.3</ele>
        <time>2021-05-20T12:53:08Z</time>
      </trkpt>
      <trkpt lat="46.77036" lon="5.59122">
        <ele>235.4</ele>
        <time>2021-05-20T12:53:12Z</time>
      </trkpt>
      <trkpt lat="46.77038" lon="5.59115">
        <ele>234</ele>
        <time>2021-05-20T12:53:17Z</time>
      </trkpt>
      <trkpt lat="46.77039" lon="5.59108">
        <ele>232.6</ele>
        <time>2021-05-20T12:53:22Z</time>
      </trkpt>
      <trkpt lat="46.7704" lon="5.59101">
        <ele>231.8</ele>
        <time>2021-05-20T12:53:26Z</time>
      </trkpt>
      <trkpt lat="46.77042" lon="5.59092">
        <ele>232.1</ele>
        <time>2021-05-20T12:53:30Z</time>
      </trkpt>
      <trkpt lat="46.77044" lon="5.59085">
        <ele>233</ele>
        <time>2021-05-20T12:53:34Z</time>
      </trkpt>
      <trkpt lat="46.77046" lon="5.59078">
        <ele>233.7</ele>
        <time>2021-05-20T12:53:39Z</time>
      </trkpt>
      <trkpt lat="46.77047" lon="5.5907">
        <ele>233.8</ele>
        <time>2021-05-20T12:53:44Z</time>
      </trkpt>
      <trkpt lat="46.77049" lon="5.59063">
        <ele>233.9</ele>
        <time>2021-05-20T12:53:49Z</time>
      </trkpt>
      <trkpt lat="46.77051" lon="5.59056">
        <ele>233.8</ele>
        <time>2021-05-20T12:53:54Z</time>
      </trkpt>
      <trkpt lat="46.77054" lon="5.59051">
        <ele>234.3</ele>
        <time>2021-05-20T12:53:58Z</time>
      </trkpt>
      <trkpt lat="46.77057" lon="5.59045">
        <ele>234.9</ele>
        <time>2021-05-20T12:54:03Z</time>
      </trkpt>
      <trkpt lat="46.77059" lon="5.59039">
        <ele>235.2</ele>
        <time>2021-05-20T12:54:07Z</time>
      </trkpt>
      <trkpt lat="46.77062" lon="5.59032">
        <ele>235.9</ele>
        <time>2021-05-20T12:54:11Z</time>
      </trkpt>
      <trkpt lat="46.77064" lon="5.59026">
        <ele>236.6</ele>
        <time>2021-05-20T12:54:15Z</time>
      </trkpt>
      <trkpt lat="46.77067" lon="5.5902">
        <ele>237.3</ele>
        <time>2021-05-20T12:54:22Z</time>
      </trkpt>
      <trkpt lat="46.77071" lon="5.59015">
        <ele>236.6</ele>
        <time>2021-05-20T12:54:28Z</time>
      </trkpt>
      <trkpt lat="46.77073" lon="5.5901">
        <ele>235.8</ele>
        <time>2021-05-20T12:54:32Z</time>
      </trkpt>
      <trkpt lat="46.77076" lon="5.59004">
        <ele>235.3</ele>
        <time>2021-05-20T12:54:36Z</time>
      </trkpt>
      <trkpt lat="46.77079" lon="5.58997">
        <ele>235.1</ele>
        <time>2021-05-20T12:54:40Z</time>
      </trkpt>
      <trkpt lat="46.77081" lon="5.58991">
        <ele>234.8</ele>
        <time>2021-05-20T12:54:44Z</time>
      </trkpt>
      <trkpt lat="46.77083" lon="5.58984">
        <ele>234.7</ele>
        <time>2021-05-20T12:54:48Z</time>
      </trkpt>
      <trkpt lat="46.77086" lon="5.58978">
        <ele>234.6</ele>
        <time>2021-05-20T12:54:52Z</time>
      </trkpt>
      <trkpt lat="46.77089" lon="5.58973">
        <ele>234.4</ele>
        <time>2021-05-20T12:54:56Z</time>
      </trkpt>
      <trkpt lat="46.77093" lon="5.58967">
        <ele>234.8</ele>
        <time>2021-05-20T12:55:01Z</time>
      </trkpt>
      <trkpt lat="46.77096" lon="5.58961">
        <ele>235.1</ele>
        <time>2021-05-20T12:55:05Z</time>
      </trkpt>
      <trkpt lat="46.771" lon="5.58955">
        <ele>235.5</ele>
        <time>2021-05-20T12:55:10Z</time>
      </trkpt>
      <trkpt lat="46.77104" lon="5.5895">
        <ele>235.8</ele>
        <time>2021-05-20T12:55:15Z</time>
      </trkpt>
      <trkpt lat="46.77107" lon="5.58945">
        <ele>236.4</ele>
        <time>2021-05-20T12:55:20Z</time>
      </trkpt>
      <trkpt lat="46.77111" lon="5.58939">
        <ele>236.8</ele>
        <time>2021-05-20T12:55:25Z</time>
      </trkpt>
      <trkpt lat="46.77114" lon="5.58933">
        <ele>236.9</ele>
        <time>2021-05-20T12:55:29Z</time>
      </trkpt>
      <trkpt lat="46.77118" lon="5.58928">
        <ele>237</ele>
        <time>2021-05-20T12:55:33Z</time>
      </trkpt>
      <trkpt lat="46.77121" lon="5.58921">
        <ele>236.9</ele>
        <time>2021-05-20T12:55:37Z</time>
      </trkpt>
      <trkpt lat="46.77124" lon="5.58916">
        <ele>236.7</ele>
        <time>2021-05-20T12:55:42Z</time>
      </trkpt>
      <trkpt lat="46.77128" lon="5.5891">
        <ele>236.3</ele>
        <time>2021-05-20T12:55:47Z</time>
      </trkpt>
      <trkpt lat="46.77131" lon="5.58905">
        <ele>236</ele>
        <time>2021-05-20T12:55:52Z</time>
      </trkpt>
      <trkpt lat="46.77134" lon="5.589">
        <ele>235.9</ele>
        <time>2021-05-20T12:55:56Z</time>
      </trkpt>
      <trkpt lat="46.77137" lon="5.58894">
        <ele>235.9</ele>
        <time>2021-05-20T12:56:00Z</time>
      </trkpt>
      <trkpt lat="46.7714" lon="5.58888">
        <ele>236.1</ele>
        <time>2021-05-20T12:56:05Z</time>
      </trkpt>
      <trkpt lat="46.77143" lon="5.58882">
        <ele>236.4</ele>
        <time>2021-05-20T12:56:09Z</time>
      </trkpt>
      <trkpt lat="46.77146" lon="5.58877">
        <ele>236.7</ele>
        <time>2021-05-20T12:56:13Z</time>
      </trkpt>
      <trkpt lat="46.77149" lon="5.58872">
        <ele>237.2</ele>
        <time>2021-05-20T12:56:17Z</time>
      </trkpt>
      <trkpt lat="46.77153" lon="5.58866">
        <ele>237.7</ele>
        <time>2021-05-20T12:56:22Z</time>
      </trkpt>
      <trkpt lat="46.77157" lon="5.5886">
        <ele>237.8</ele>
        <time>2021-05-20T12:56:26Z</time>
      </trkpt>
      <trkpt lat="46.77159" lon="5.58854">
        <ele>237.7</ele>
        <time>2021-05-20T12:56:30Z</time>
      </trkpt>
      <trkpt lat="46.77161" lon="5.58848">
        <ele>237.5</ele>
        <time>2021-05-20T12:56:34Z</time>
      </trkpt>
      <trkpt lat="46.77164" lon="5.58841">
        <ele>237.3</ele>
        <time>2021-05-20T12:56:40Z</time>
      </trkpt>
      <trkpt lat="46.77165" lon="5.58835">
        <ele>237</ele>
        <time>2021-05-20T12:56:53Z</time>
      </trkpt>
      <trkpt lat="46.77161" lon="5.5883">
        <ele>235.7</ele>
        <time>2021-05-20T12:57:20Z</time>
      </trkpt>
      <trkpt lat="46.7716" lon="5.58824">
        <ele>235</ele>
        <time>2021-05-20T12:57:26Z</time>
      </trkpt>
      <trkpt lat="46.7716" lon="5.58816">
        <ele>234.5</ele>
        <time>2021-05-20T12:57:32Z</time>
      </trkpt>
      <trkpt lat="46.77159" lon="5.58809">
        <ele>234.2</ele>
        <time>2021-05-20T12:57:37Z</time>
      </trkpt>
      <trkpt lat="46.77158" lon="5.58801">
        <ele>234</ele>
        <time>2021-05-20T12:57:42Z</time>
      </trkpt>
      <trkpt lat="46.77157" lon="5.58795">
        <ele>233.9</ele>
        <time>2021-05-20T12:57:46Z</time>
      </trkpt>
      <trkpt lat="46.77156" lon="5.58788">
        <ele>233.9</ele>
        <time>2021-05-20T12:57:51Z</time>
      </trkpt>
      <trkpt lat="46.77155" lon="5.58781">
        <ele>233.9</ele>
        <time>2021-05-20T12:57:55Z</time>
      </trkpt>
      <trkpt lat="46.77154" lon="5.58774">
        <ele>233.7</ele>
        <time>2021-05-20T12:57:59Z</time>
      </trkpt>
      <trkpt lat="46.77152" lon="5.58768">
        <ele>233.6</ele>
        <time>2021-05-20T12:58:03Z</time>
      </trkpt>
      <trkpt lat="46.77151" lon="5.58761">
        <ele>232.9</ele>
        <time>2021-05-20T12:58:07Z</time>
      </trkpt>
      <trkpt lat="46.77149" lon="5.58754">
        <ele>232</ele>
        <time>2021-05-20T12:58:11Z</time>
      </trkpt>
      <trkpt lat="46.77149" lon="5.58747">
        <ele>231.3</ele>
        <time>2021-05-20T12:58:15Z</time>
      </trkpt>
      <trkpt lat="46.77148" lon="5.5874">
        <ele>231.1</ele>
        <time>2021-05-20T12:58:19Z</time>
      </trkpt>
      <trkpt lat="46.77147" lon="5.58733">
        <ele>230.9</ele>
        <time>2021-05-20T12:58:24Z</time>
      </trkpt>
      <trkpt lat="46.77146" lon="5.58726">
        <ele>230.7</ele>
        <time>2021-05-20T12:58:28Z</time>
      </trkpt>
      <trkpt lat="46.77145" lon="5.58718">
        <ele>230.4</ele>
        <time>2021-05-20T12:58:33Z</time>
      </trkpt>
      <trkpt lat="46.77145" lon="5.58711">
        <ele>230.3</ele>
        <time>2021-05-20T12:58:38Z</time>
      </trkpt>
      <trkpt lat="46.77144" lon="5.58704">
        <ele>231.3</ele>
        <time>2021-05-20T12:58:43Z</time>
      </trkpt>
      <trkpt lat="46.77143" lon="5.58696">
        <ele>233.1</ele>
        <time>2021-05-20T12:58:48Z</time>
      </trkpt>
      <trkpt lat="46.77142" lon="5.58688">
        <ele>234.6</ele>
        <time>2021-05-20T12:58:53Z</time>
      </trkpt>
      <trkpt lat="46.77142" lon="5.58681">
        <ele>235.6</ele>
        <time>2021-05-20T12:58:57Z</time>
      </trkpt>
      <trkpt lat="46.77142" lon="5.58673">
        <ele>236.7</ele>
        <time>2021-05-20T12:59:02Z</time>
      </trkpt>
      <trkpt lat="46.7714" lon="5.58666">
        <ele>237.4</ele>
        <time>2021-05-20T12:59:08Z</time>
      </trkpt>
      <trkpt lat="46.77137" lon="5.58661">
        <ele>237.6</ele>
        <time>2021-05-20T12:59:12Z</time>
      </trkpt>
      <trkpt lat="46.77133" lon="5.58656">
        <ele>237.6</ele>
        <time>2021-05-20T12:59:16Z</time>
      </trkpt>
      <trkpt lat="46.77129" lon="5.58653">
        <ele>237.6</ele>
        <time>2021-05-20T12:59:21Z</time>
      </trkpt>
      <trkpt lat="46.77124" lon="5.5865">
        <ele>237.8</ele>
        <time>2021-05-20T12:59:26Z</time>
      </trkpt>
      <trkpt lat="46.7712" lon="5.58647">
        <ele>237.9</ele>
        <time>2021-05-20T12:59:46Z</time>
      </trkpt>
      <trkpt lat="46.77115" lon="5.58645">
        <ele>238.1</ele>
        <time>2021-05-20T12:59:51Z</time>
      </trkpt>
      <trkpt lat="46.7711" lon="5.58641">
        <ele>238.2</ele>
        <time>2021-05-20T12:59:56Z</time>
      </trkpt>
      <trkpt lat="46.77106" lon="5.58639">
        <ele>238.4</ele>
        <time>2021-05-20T13:00:00Z</time>
      </trkpt>
      <trkpt lat="46.77101" lon="5.58636">
        <ele>238.5</ele>
        <time>2021-05-20T13:00:04Z</time>
      </trkpt>
      <trkpt lat="46.77096" lon="5.58634">
        <ele>238.4</ele>
        <time>2021-05-20T13:00:09Z</time>
      </trkpt>
      <trkpt lat="46.77091" lon="5.5863">
        <ele>238.1</ele>
        <time>2021-05-20T13:00:14Z</time>
      </trkpt>
      <trkpt lat="46.77086" lon="5.58627">
        <ele>237.8</ele>
        <time>2021-05-20T13:00:19Z</time>
      </trkpt>
      <trkpt lat="46.77082" lon="5.58624">
        <ele>237.8</ele>
        <time>2021-05-20T13:00:23Z</time>
      </trkpt>
      <trkpt lat="46.77077" lon="5.58621">
        <ele>237.5</ele>
        <time>2021-05-20T13:00:27Z</time>
      </trkpt>
      <trkpt lat="46.77072" lon="5.58619">
        <ele>237.5</ele>
        <time>2021-05-20T13:00:34Z</time>
      </trkpt>
      <trkpt lat="46.77068" lon="5.58616">
        <ele>237.4</ele>
        <time>2021-05-20T13:01:02Z</time>
      </trkpt>
      <trkpt lat="46.77063" lon="5.58616">
        <ele>237.3</ele>
        <time>2021-05-20T13:01:18Z</time>
      </trkpt>
      <trkpt lat="46.77058" lon="5.58613">
        <ele>237.2</ele>
        <time>2021-05-20T13:01:23Z</time>
      </trkpt>
      <trkpt lat="46.77054" lon="5.5861">
        <ele>237.2</ele>
        <time>2021-05-20T13:01:27Z</time>
      </trkpt>
      <trkpt lat="46.77049" lon="5.58607">
        <ele>237.1</ele>
        <time>2021-05-20T13:01:31Z</time>
      </trkpt>
      <trkpt lat="46.77045" lon="5.58605">
        <ele>236.8</ele>
        <time>2021-05-20T13:01:35Z</time>
      </trkpt>
      <trkpt lat="46.77041" lon="5.58602">
        <ele>236.4</ele>
        <time>2021-05-20T13:01:39Z</time>
      </trkpt>
      <trkpt lat="46.77036" lon="5.58599">
        <ele>235.9</ele>
        <time>2021-05-20T13:01:44Z</time>
      </trkpt>
      <trkpt lat="46.77031" lon="5.58595">
        <ele>235.7</ele>
        <time>2021-05-20T13:01:48Z</time>
      </trkpt>
      <trkpt lat="46.77027" lon="5.58592">
        <ele>235.7</ele>
        <time>2021-05-20T13:01:52Z</time>
      </trkpt>
      <trkpt lat="46.77023" lon="5.58589">
        <ele>235.9</ele>
        <time>2021-05-20T13:01:56Z</time>
      </trkpt>
      <trkpt lat="46.77019" lon="5.58586">
        <ele>236.1</ele>
        <time>2021-05-20T13:02:00Z</time>
      </trkpt>
      <trkpt lat="46.77014" lon="5.58583">
        <ele>236.7</ele>
        <time>2021-05-20T13:02:04Z</time>
      </trkpt>
      <trkpt lat="46.77009" lon="5.58581">
        <ele>237.1</ele>
        <time>2021-05-20T13:02:08Z</time>
      </trkpt>
      <trkpt lat="46.77005" lon="5.58578">
        <ele>237.2</ele>
        <time>2021-05-20T13:02:12Z</time>
      </trkpt>
      <trkpt lat="46.77001" lon="5.58574">
        <ele>236.9</ele>
        <time>2021-05-20T13:02:17Z</time>
      </trkpt>
      <trkpt lat="46.76996" lon="5.58571">
        <ele>236.3</ele>
        <time>2021-05-20T13:02:23Z</time>
      </trkpt>
      <trkpt lat="46.76991" lon="5.58568">
        <ele>235.8</ele>
        <time>2021-05-20T13:02:28Z</time>
      </trkpt>
      <trkpt lat="46.76986" lon="5.58565">
        <ele>235.4</ele>
        <time>2021-05-20T13:02:32Z</time>
      </trkpt>
      <trkpt lat="46.76982" lon="5.58562">
        <ele>235.2</ele>
        <time>2021-05-20T13:02:36Z</time>
      </trkpt>
      <trkpt lat="46.76977" lon="5.5856">
        <ele>235.1</ele>
        <time>2021-05-20T13:02:40Z</time>
      </trkpt>
      <trkpt lat="46.76973" lon="5.58557">
        <ele>235.1</ele>
        <time>2021-05-20T13:02:44Z</time>
      </trkpt>
      <trkpt lat="46.76969" lon="5.58554">
        <ele>235.2</ele>
        <time>2021-05-20T13:02:48Z</time>
      </trkpt>
      <trkpt lat="46.76963" lon="5.58552">
        <ele>235.8</ele>
        <time>2021-05-20T13:02:53Z</time>
      </trkpt>
      <trkpt lat="46.76959" lon="5.5855">
        <ele>236.5</ele>
        <time>2021-05-20T13:02:57Z</time>
      </trkpt>
      <trkpt lat="46.76955" lon="5.58547">
        <ele>237.1</ele>
        <time>2021-05-20T13:03:01Z</time>
      </trkpt>
      <trkpt lat="46.7695" lon="5.58545">
        <ele>237.5</ele>
        <time>2021-05-20T13:03:05Z</time>
      </trkpt>
      <trkpt lat="46.76946" lon="5.58542">
        <ele>237.6</ele>
        <time>2021-05-20T13:03:09Z</time>
      </trkpt>
      <trkpt lat="46.76941" lon="5.58539">
        <ele>237.6</ele>
        <time>2021-05-20T13:03:13Z</time>
      </trkpt>
      <trkpt lat="46.76937" lon="5.58536">
        <ele>237.6</ele>
        <time>2021-05-20T13:03:17Z</time>
      </trkpt>
      <trkpt lat="46.76933" lon="5.58534">
        <ele>237.6</ele>
        <time>2021-05-20T13:03:21Z</time>
      </trkpt>
      <trkpt lat="46.76928" lon="5.58531">
        <ele>237.9</ele>
        <time>2021-05-20T13:03:25Z</time>
      </trkpt>
      <trkpt lat="46.76923" lon="5.58528">
        <ele>237.9</ele>
        <time>2021-05-20T13:03:30Z</time>
      </trkpt>
      <trkpt lat="46.76918" lon="5.58526">
        <ele>238.1</ele>
        <time>2021-05-20T13:03:35Z</time>
      </trkpt>
      <trkpt lat="46.76913" lon="5.58524">
        <ele>238.1</ele>
        <time>2021-05-20T13:03:40Z</time>
      </trkpt>
      <trkpt lat="46.76909" lon="5.58521">
        <ele>238.4</ele>
        <time>2021-05-20T13:03:45Z</time>
      </trkpt>
      <trkpt lat="46.76904" lon="5.58518">
        <ele>238.6</ele>
        <time>2021-05-20T13:03:50Z</time>
      </trkpt>
      <trkpt lat="46.76899" lon="5.58515">
        <ele>239</ele>
        <time>2021-05-20T13:03:55Z</time>
      </trkpt>
      <trkpt lat="46.76895" lon="5.58511">
        <ele>239.4</ele>
        <time>2021-05-20T13:04:00Z</time>
      </trkpt>
      <trkpt lat="46.7689" lon="5.58511">
        <ele>239.7</ele>
        <time>2021-05-20T13:04:06Z</time>
      </trkpt>
      <trkpt lat="46.76885" lon="5.58509">
        <ele>239.1</ele>
        <time>2021-05-20T13:04:13Z</time>
      </trkpt>
      <trkpt lat="46.7688" lon="5.5851">
        <ele>238.6</ele>
        <time>2021-05-20T13:04:19Z</time>
      </trkpt>
      <trkpt lat="46.76875" lon="5.58511">
        <ele>238.3</ele>
        <time>2021-05-20T13:04:25Z</time>
      </trkpt>
      <trkpt lat="46.7687" lon="5.58511">
        <ele>238.9</ele>
        <time>2021-05-20T13:04:31Z</time>
      </trkpt>
      <trkpt lat="46.76865" lon="5.5851">
        <ele>239.6</ele>
        <time>2021-05-20T13:04:36Z</time>
      </trkpt>
      <trkpt lat="46.7686" lon="5.58509">
        <ele>242</ele>
        <time>2021-05-20T13:04:56Z</time>
      </trkpt>
      <trkpt lat="46.76856" lon="5.58507">
        <ele>242.3</ele>
        <time>2021-05-20T13:05:01Z</time>
      </trkpt>
      <trkpt lat="46.76852" lon="5.58504">
        <ele>243.9</ele>
        <time>2021-05-20T13:05:14Z</time>
      </trkpt>
      <trkpt lat="46.76847" lon="5.58503">
        <ele>245.2</ele>
        <time>2021-05-20T13:05:32Z</time>
      </trkpt>
      <trkpt lat="46.76841" lon="5.58501">
        <ele>246.1</ele>
        <time>2021-05-20T13:05:37Z</time>
      </trkpt>
      <trkpt lat="46.76836" lon="5.58499">
        <ele>246.9</ele>
        <time>2021-05-20T13:05:42Z</time>
      </trkpt>
      <trkpt lat="46.76831" lon="5.58497">
        <ele>247.4</ele>
        <time>2021-05-20T13:05:46Z</time>
      </trkpt>
      <trkpt lat="46.76827" lon="5.58494">
        <ele>247.7</ele>
        <time>2021-05-20T13:05:50Z</time>
      </trkpt>
      <trkpt lat="46.76823" lon="5.58491">
        <ele>248.1</ele>
        <time>2021-05-20T13:05:54Z</time>
      </trkpt>
      <trkpt lat="46.76818" lon="5.5849">
        <ele>248.5</ele>
        <time>2021-05-20T13:05:58Z</time>
      </trkpt>
      <trkpt lat="46.76813" lon="5.58488">
        <ele>248.9</ele>
        <time>2021-05-20T13:06:02Z</time>
      </trkpt>
      <trkpt lat="46.76809" lon="5.58486">
        <ele>249.1</ele>
        <time>2021-05-20T13:06:07Z</time>
      </trkpt>
      <trkpt lat="46.76804" lon="5.58483">
        <ele>249.1</ele>
        <time>2021-05-20T13:06:12Z</time>
      </trkpt>
      <trkpt lat="46.76799" lon="5.5848">
        <ele>248.9</ele>
        <time>2021-05-20T13:06:17Z</time>
      </trkpt>
      <trkpt lat="46.76795" lon="5.58478">
        <ele>248.8</ele>
        <time>2021-05-20T13:06:21Z</time>
      </trkpt>
      <trkpt lat="46.7679" lon="5.58476">
        <ele>248.3</ele>
        <time>2021-05-20T13:06:26Z</time>
      </trkpt>
      <trkpt lat="46.76785" lon="5.58475">
        <ele>247.8</ele>
        <time>2021-05-20T13:06:30Z</time>
      </trkpt>
      <trkpt lat="46.7678" lon="5.58473">
        <ele>247</ele>
        <time>2021-05-20T13:06:35Z</time>
      </trkpt>
      <trkpt lat="46.76775" lon="5.58471">
        <ele>246.7</ele>
        <time>2021-05-20T13:06:39Z</time>
      </trkpt>
      <trkpt lat="46.76771" lon="5.58469">
        <ele>246.2</ele>
        <time>2021-05-20T13:06:43Z</time>
      </trkpt>
      <trkpt lat="46.76766" lon="5.58466">
        <ele>245.5</ele>
        <time>2021-05-20T13:06:48Z</time>
      </trkpt>
      <trkpt lat="46.76762" lon="5.58463">
        <ele>245</ele>
        <time>2021-05-20T13:06:53Z</time>
      </trkpt>
      <trkpt lat="46.76758" lon="5.58461">
        <ele>244.9</ele>
        <time>2021-05-20T13:06:57Z</time>
      </trkpt>
      <trkpt lat="46.76753" lon="5.58459">
        <ele>245.2</ele>
        <time>2021-05-20T13:07:01Z</time>
      </trkpt>
      <trkpt lat="46.76748" lon="5.58457">
        <ele>245.3</ele>
        <time>2021-05-20T13:07:06Z</time>
      </trkpt>
      <trkpt lat="46.76743" lon="5.58454">
        <ele>245.1</ele>
        <time>2021-05-20T13:07:11Z</time>
      </trkpt>
      <trkpt lat="46.76739" lon="5.58452">
        <ele>244.6</ele>
        <time>2021-05-20T13:07:17Z</time>
      </trkpt>
      <trkpt lat="46.76734" lon="5.58449">
        <ele>244.5</ele>
        <time>2021-05-20T13:07:31Z</time>
      </trkpt>
      <trkpt lat="46.7673" lon="5.58446">
        <ele>245.6</ele>
        <time>2021-05-20T13:07:54Z</time>
      </trkpt>
      <trkpt lat="46.76725" lon="5.58444">
        <ele>245.7</ele>
        <time>2021-05-20T13:07:59Z</time>
      </trkpt>
      <trkpt lat="46.7672" lon="5.58442">
        <ele>245.4</ele>
        <time>2021-05-20T13:08:04Z</time>
      </trkpt>
      <trkpt lat="46.76715" lon="5.5844">
        <ele>244.9</ele>
        <time>2021-05-20T13:08:09Z</time>
      </trkpt>
      <trkpt lat="46.7671" lon="5.58438">
        <ele>244.5</ele>
        <time>2021-05-20T13:08:13Z</time>
      </trkpt>
      <trkpt lat="46.76705" lon="5.58436">
        <ele>244</ele>
        <time>2021-05-20T13:08:18Z</time>
      </trkpt>
      <trkpt lat="46.76701" lon="5.58434">
        <ele>243.9</ele>
        <time>2021-05-20T13:08:22Z</time>
      </trkpt>
      <trkpt lat="46.76695" lon="5.58433">
        <ele>244.3</ele>
        <time>2021-05-20T13:08:27Z</time>
      </trkpt>
      <trkpt lat="46.76691" lon="5.58431">
        <ele>245.1</ele>
        <time>2021-05-20T13:08:31Z</time>
      </trkpt>
      <trkpt lat="46.76686" lon="5.58429">
        <ele>245.9</ele>
        <time>2021-05-20T13:08:35Z</time>
      </trkpt>
      <trkpt lat="46.76681" lon="5.58426">
        <ele>246.6</ele>
        <time>2021-05-20T13:08:39Z</time>
      </trkpt>
      <trkpt lat="46.76676" lon="5.58424">
        <ele>247.3</ele>
        <time>2021-05-20T13:08:44Z</time>
      </trkpt>
      <trkpt lat="46.76671" lon="5.58422">
        <ele>247.7</ele>
        <time>2021-05-20T13:08:48Z</time>
      </trkpt>
      <trkpt lat="46.76666" lon="5.5842">
        <ele>247.8</ele>
        <time>2021-05-20T13:08:52Z</time>
      </trkpt>
      <trkpt lat="46.76662" lon="5.58418">
        <ele>248.1</ele>
        <time>2021-05-20T13:08:56Z</time>
      </trkpt>
      <trkpt lat="46.76657" lon="5.58416">
        <ele>248.3</ele>
        <time>2021-05-20T13:09:00Z</time>
      </trkpt>
      <trkpt lat="46.76652" lon="5.58414">
        <ele>248.3</ele>
        <time>2021-05-20T13:09:05Z</time>
      </trkpt>
      <trkpt lat="46.76647" lon="5.58411">
        <ele>248</ele>
        <time>2021-05-20T13:09:10Z</time>
      </trkpt>
      <trkpt lat="46.76642" lon="5.58409">
        <ele>247.8</ele>
        <time>2021-05-20T13:09:15Z</time>
      </trkpt>
      <trkpt lat="46.76637" lon="5.58408">
        <ele>246.2</ele>
        <time>2021-05-20T13:09:29Z</time>
      </trkpt>
      <trkpt lat="46.76633" lon="5.58405">
        <ele>245.3</ele>
        <time>2021-05-20T13:09:35Z</time>
      </trkpt>
      <trkpt lat="46.76627" lon="5.58403">
        <ele>244.8</ele>
        <time>2021-05-20T13:09:40Z</time>
      </trkpt>
      <trkpt lat="46.76623" lon="5.58402">
        <ele>244.5</ele>
        <time>2021-05-20T13:09:44Z</time>
      </trkpt>
      <trkpt lat="46.76617" lon="5.584">
        <ele>244.8</ele>
        <time>2021-05-20T13:09:49Z</time>
      </trkpt>
      <trkpt lat="46.76613" lon="5.58397">
        <ele>245.5</ele>
        <time>2021-05-20T13:09:53Z</time>
      </trkpt>
      <trkpt lat="46.76608" lon="5.58395">
        <ele>246.2</ele>
        <time>2021-05-20T13:09:57Z</time>
      </trkpt>
      <trkpt lat="46.76603" lon="5.58393">
        <ele>246.9</ele>
        <time>2021-05-20T13:10:01Z</time>
      </trkpt>
      <trkpt lat="46.76599" lon="5.58391">
        <ele>247.8</ele>
        <time>2021-05-20T13:10:05Z</time>
      </trkpt>
      <trkpt lat="46.76594" lon="5.58389">
        <ele>248.6</ele>
        <time>2021-05-20T13:10:10Z</time>
      </trkpt>
      <trkpt lat="46.76589" lon="5.58387">
        <ele>248.9</ele>
        <time>2021-05-20T13:10:14Z</time>
      </trkpt>
      <trkpt lat="46.76584" lon="5.58385">
        <ele>249</ele>
        <time>2021-05-20T13:10:18Z</time>
      </trkpt>
      <trkpt lat="46.76579" lon="5.58382">
        <ele>249.1</ele>
        <time>2021-05-20T13:10:25Z</time>
      </trkpt>
      <trkpt lat="46.76574" lon="5.5838">
        <ele>249.1</ele>
        <time>2021-05-20T13:10:30Z</time>
      </trkpt>
      <trkpt lat="46.7657" lon="5.58378">
        <ele>249</ele>
        <time>2021-05-20T13:10:34Z</time>
      </trkpt>
      <trkpt lat="46.76566" lon="5.58375">
        <ele>248.8</ele>
        <time>2021-05-20T13:10:38Z</time>
      </trkpt>
      <trkpt lat="46.76561" lon="5.58374">
        <ele>248.5</ele>
        <time>2021-05-20T13:10:42Z</time>
      </trkpt>
      <trkpt lat="46.76557" lon="5.58371">
        <ele>247.9</ele>
        <time>2021-05-20T13:10:47Z</time>
      </trkpt>
      <trkpt lat="46.76552" lon="5.58368">
        <ele>247.5</ele>
        <time>2021-05-20T13:10:51Z</time>
      </trkpt>
      <trkpt lat="46.76548" lon="5.58367">
        <ele>247.3</ele>
        <time>2021-05-20T13:10:55Z</time>
      </trkpt>
      <trkpt lat="46.76543" lon="5.58365">
        <ele>247.2</ele>
        <time>2021-05-20T13:11:00Z</time>
      </trkpt>
      <trkpt lat="46.76539" lon="5.58362">
        <ele>247.1</ele>
        <time>2021-05-20T13:11:04Z</time>
      </trkpt>
      <trkpt lat="46.76534" lon="5.58361">
        <ele>246.9</ele>
        <time>2021-05-20T13:11:08Z</time>
      </trkpt>
      <trkpt lat="46.76529" lon="5.58358">
        <ele>246.8</ele>
        <time>2021-05-20T13:11:13Z</time>
      </trkpt>
      <trkpt lat="46.76524" lon="5.58355">
        <ele>246.9</ele>
        <time>2021-05-20T13:11:18Z</time>
      </trkpt>
      <trkpt lat="46.76519" lon="5.58353">
        <ele>246.8</ele>
        <time>2021-05-20T13:11:23Z</time>
      </trkpt>
      <trkpt lat="46.76515" lon="5.58351">
        <ele>247</ele>
        <time>2021-05-20T13:11:27Z</time>
      </trkpt>
      <trkpt lat="46.7651" lon="5.58349">
        <ele>247.3</ele>
        <time>2021-05-20T13:11:31Z</time>
      </trkpt>
      <trkpt lat="46.76506" lon="5.58347">
        <ele>247.5</ele>
        <time>2021-05-20T13:11:35Z</time>
      </trkpt>
      <trkpt lat="46.765" lon="5.58344">
        <ele>247.8</ele>
        <time>2021-05-20T13:11:40Z</time>
      </trkpt>
      <trkpt lat="46.76496" lon="5.58342">
        <ele>248</ele>
        <time>2021-05-20T13:11:44Z</time>
      </trkpt>
      <trkpt lat="46.76491" lon="5.5834">
        <ele>248.2</ele>
        <time>2021-05-20T13:11:48Z</time>
      </trkpt>
      <trkpt lat="46.76487" lon="5.58338">
        <ele>248.2</ele>
        <time>2021-05-20T13:11:52Z</time>
      </trkpt>
      <trkpt lat="46.76482" lon="5.58335">
        <ele>248.4</ele>
        <time>2021-05-20T13:11:56Z</time>
      </trkpt>
      <trkpt lat="46.76478" lon="5.58333">
        <ele>248.5</ele>
        <time>2021-05-20T13:12:00Z</time>
      </trkpt>
      <trkpt lat="46.76473" lon="5.58332">
        <ele>248.6</ele>
        <time>2021-05-20T13:12:04Z</time>
      </trkpt>
      <trkpt lat="46.76468" lon="5.5833">
        <ele>248.6</ele>
        <time>2021-05-20T13:12:09Z</time>
      </trkpt>
      <trkpt lat="46.76464" lon="5.58328">
        <ele>248.6</ele>
        <time>2021-05-20T13:12:13Z</time>
      </trkpt>
      <trkpt lat="46.76459" lon="5.58325">
        <ele>248.6</ele>
        <time>2021-05-20T13:12:17Z</time>
      </trkpt>
      <trkpt lat="46.76454" lon="5.58323">
        <ele>248.4</ele>
        <time>2021-05-20T13:12:22Z</time>
      </trkpt>
      <trkpt lat="46.7645" lon="5.5832">
        <ele>248.4</ele>
        <time>2021-05-20T13:12:26Z</time>
      </trkpt>
      <trkpt lat="46.76445" lon="5.58317">
        <ele>248.4</ele>
        <time>2021-05-20T13:12:30Z</time>
      </trkpt>
      <trkpt lat="46.7644" lon="5.58315">
        <ele>248.5</ele>
        <time>2021-05-20T13:12:35Z</time>
      </trkpt>
      <trkpt lat="46.76435" lon="5.58313">
        <ele>248.6</ele>
        <time>2021-05-20T13:12:40Z</time>
      </trkpt>
      <trkpt lat="46.7643" lon="5.58311">
        <ele>248.4</ele>
        <time>2021-05-20T13:12:45Z</time>
      </trkpt>
      <trkpt lat="46.76426" lon="5.58308">
        <ele>247.6</ele>
        <time>2021-05-20T13:12:51Z</time>
      </trkpt>
      <trkpt lat="46.76421" lon="5.58304">
        <ele>247</ele>
        <time>2021-05-20T13:13:15Z</time>
      </trkpt>
      <trkpt lat="46.76417" lon="5.58302">
        <ele>247.5</ele>
        <time>2021-05-20T13:13:19Z</time>
      </trkpt>
      <trkpt lat="46.76412" lon="5.58299">
        <ele>248.1</ele>
        <time>2021-05-20T13:13:24Z</time>
      </trkpt>
      <trkpt lat="46.76408" lon="5.58296">
        <ele>249</ele>
        <time>2021-05-20T13:13:30Z</time>
      </trkpt>
      <trkpt lat="46.76404" lon="5.58293">
        <ele>249.4</ele>
        <time>2021-05-20T13:13:35Z</time>
      </trkpt>
      <trkpt lat="46.76399" lon="5.5829">
        <ele>249.5</ele>
        <time>2021-05-20T13:13:39Z</time>
      </trkpt>
      <trkpt lat="46.76394" lon="5.58287">
        <ele>249.6</ele>
        <time>2021-05-20T13:13:44Z</time>
      </trkpt>
      <trkpt lat="46.7639" lon="5.58284">
        <ele>249.6</ele>
        <time>2021-05-20T13:13:49Z</time>
      </trkpt>
      <trkpt lat="46.76385" lon="5.58282">
        <ele>249.3</ele>
        <time>2021-05-20T13:13:55Z</time>
      </trkpt>
      <trkpt lat="46.7638" lon="5.58279">
        <ele>247.9</ele>
        <time>2021-05-20T13:14:15Z</time>
      </trkpt>
      <trkpt lat="46.76374" lon="5.58277">
        <ele>247.3</ele>
        <time>2021-05-20T13:14:20Z</time>
      </trkpt>
      <trkpt lat="46.7637" lon="5.58274">
        <ele>247.2</ele>
        <time>2021-05-20T13:14:24Z</time>
      </trkpt>
      <trkpt lat="46.76365" lon="5.5827">
        <ele>247.3</ele>
        <time>2021-05-20T13:14:29Z</time>
      </trkpt>
      <trkpt lat="46.7636" lon="5.58267">
        <ele>247.4</ele>
        <time>2021-05-20T13:14:34Z</time>
      </trkpt>
      <trkpt lat="46.76355" lon="5.58265">
        <ele>247.7</ele>
        <time>2021-05-20T13:14:39Z</time>
      </trkpt>
      <trkpt lat="46.76351" lon="5.58261">
        <ele>248</ele>
        <time>2021-05-20T13:14:43Z</time>
      </trkpt>
      <trkpt lat="46.76346" lon="5.58258">
        <ele>247.9</ele>
        <time>2021-05-20T13:14:48Z</time>
      </trkpt>
      <trkpt lat="46.76341" lon="5.58254">
        <ele>247.5</ele>
        <time>2021-05-20T13:14:53Z</time>
      </trkpt>
      <trkpt lat="46.76337" lon="5.58251">
        <ele>247.4</ele>
        <time>2021-05-20T13:14:58Z</time>
      </trkpt>
      <trkpt lat="46.76332" lon="5.58247">
        <ele>247.5</ele>
        <time>2021-05-20T13:15:03Z</time>
      </trkpt>
      <trkpt lat="46.76327" lon="5.58245">
        <ele>247.9</ele>
        <time>2021-05-20T13:15:08Z</time>
      </trkpt>
      <trkpt lat="46.76322" lon="5.58242">
        <ele>248.2</ele>
        <time>2021-05-20T13:15:12Z</time>
      </trkpt>
      <trkpt lat="46.76319" lon="5.58238">
        <ele>248.4</ele>
        <time>2021-05-20T13:15:16Z</time>
      </trkpt>
      <trkpt lat="46.76314" lon="5.58234">
        <ele>248.3</ele>
        <time>2021-05-20T13:15:20Z</time>
      </trkpt>
      <trkpt lat="46.7631" lon="5.58231">
        <ele>248.1</ele>
        <time>2021-05-20T13:15:24Z</time>
      </trkpt>
      <trkpt lat="46.76305" lon="5.58229">
        <ele>247.9</ele>
        <time>2021-05-20T13:15:28Z</time>
      </trkpt>
      <trkpt lat="46.763" lon="5.58226">
        <ele>247.8</ele>
        <time>2021-05-20T13:15:32Z</time>
      </trkpt>
      <trkpt lat="46.76296" lon="5.58223">
        <ele>247.7</ele>
        <time>2021-05-20T13:15:36Z</time>
      </trkpt>
      <trkpt lat="46.76291" lon="5.5822">
        <ele>247.6</ele>
        <time>2021-05-20T13:15:40Z</time>
      </trkpt>
      <trkpt lat="46.76287" lon="5.58217">
        <ele>247.5</ele>
        <time>2021-05-20T13:15:44Z</time>
      </trkpt>
      <trkpt lat="46.76282" lon="5.58215">
        <ele>247.4</ele>
        <time>2021-05-20T13:15:49Z</time>
      </trkpt>
      <trkpt lat="46.76277" lon="5.58213">
        <ele>246.9</ele>
        <time>2021-05-20T13:15:55Z</time>
      </trkpt>
      <trkpt lat="46.76272" lon="5.58211">
        <ele>246.7</ele>
        <time>2021-05-20T13:16:00Z</time>
      </trkpt>
      <trkpt lat="46.76268" lon="5.5821">
        <ele>246.6</ele>
        <time>2021-05-20T13:16:05Z</time>
      </trkpt>
      <trkpt lat="46.76263" lon="5.58208">
        <ele>246.6</ele>
        <time>2021-05-20T13:16:10Z</time>
      </trkpt>
      <trkpt lat="46.76258" lon="5.58205">
        <ele>246.8</ele>
        <time>2021-05-20T13:16:15Z</time>
      </trkpt>
      <trkpt lat="46.76252" lon="5.58203">
        <ele>247.1</ele>
        <time>2021-05-20T13:16:20Z</time>
      </trkpt>
      <trkpt lat="46.76247" lon="5.58201">
        <ele>247.4</ele>
        <time>2021-05-20T13:16:25Z</time>
      </trkpt>
      <trkpt lat="46.76242" lon="5.58199">
        <ele>247.8</ele>
        <time>2021-05-20T13:16:30Z</time>
      </trkpt>
      <trkpt lat="46.76238" lon="5.58197">
        <ele>248.2</ele>
        <time>2021-05-20T13:16:34Z</time>
      </trkpt>
      <trkpt lat="46.76233" lon="5.58195">
        <ele>248.4</ele>
        <time>2021-05-20T13:16:38Z</time>
      </trkpt>
      <trkpt lat="46.76228" lon="5.58193">
        <ele>248.3</ele>
        <time>2021-05-20T13:16:42Z</time>
      </trkpt>
      <trkpt lat="46.76224" lon="5.58191">
        <ele>248.2</ele>
        <time>2021-05-20T13:16:46Z</time>
      </trkpt>
      <trkpt lat="46.76219" lon="5.5819">
        <ele>248.2</ele>
        <time>2021-05-20T13:16:51Z</time>
      </trkpt>
      <trkpt lat="46.76214" lon="5.58187">
        <ele>248</ele>
        <time>2021-05-20T13:16:56Z</time>
      </trkpt>
      <trkpt lat="46.76209" lon="5.58184">
        <ele>247.7</ele>
        <time>2021-05-20T13:17:01Z</time>
      </trkpt>
      <trkpt lat="46.76204" lon="5.58182">
        <ele>247.4</ele>
        <time>2021-05-20T13:17:06Z</time>
      </trkpt>
      <trkpt lat="46.76199" lon="5.5818">
        <ele>247.2</ele>
        <time>2021-05-20T13:17:11Z</time>
      </trkpt>
      <trkpt lat="46.76195" lon="5.58178">
        <ele>247</ele>
        <time>2021-05-20T13:17:15Z</time>
      </trkpt>
      <trkpt lat="46.76191" lon="5.58176">
        <ele>246.9</ele>
        <time>2021-05-20T13:17:19Z</time>
      </trkpt>
      <trkpt lat="46.76185" lon="5.58172">
        <ele>246.8</ele>
        <time>2021-05-20T13:17:24Z</time>
      </trkpt>
      <trkpt lat="46.7618" lon="5.5817">
        <ele>246.6</ele>
        <time>2021-05-20T13:17:28Z</time>
      </trkpt>
      <trkpt lat="46.76175" lon="5.58167">
        <ele>246.3</ele>
        <time>2021-05-20T13:17:33Z</time>
      </trkpt>
      <trkpt lat="46.7617" lon="5.58166">
        <ele>246.1</ele>
        <time>2021-05-20T13:17:38Z</time>
      </trkpt>
      <trkpt lat="46.76165" lon="5.58164">
        <ele>246.1</ele>
        <time>2021-05-20T13:17:43Z</time>
      </trkpt>
      <trkpt lat="46.76159" lon="5.58163">
        <ele>246.4</ele>
        <time>2021-05-20T13:17:48Z</time>
      </trkpt>
      <trkpt lat="46.76154" lon="5.58162">
        <ele>246.9</ele>
        <time>2021-05-20T13:17:53Z</time>
      </trkpt>
      <trkpt lat="46.76149" lon="5.58161">
        <ele>246.9</ele>
        <time>2021-05-20T13:17:58Z</time>
      </trkpt>
      <trkpt lat="46.76144" lon="5.58159">
        <ele>246.8</ele>
        <time>2021-05-20T13:18:02Z</time>
      </trkpt>
      <trkpt lat="46.76139" lon="5.58159">
        <ele>246.4</ele>
        <time>2021-05-20T13:18:07Z</time>
      </trkpt>
      <trkpt lat="46.76135" lon="5.58159">
        <ele>246</ele>
        <time>2021-05-20T13:18:11Z</time>
      </trkpt>
      <trkpt lat="46.76129" lon="5.58157">
        <ele>246</ele>
        <time>2021-05-20T13:18:16Z</time>
      </trkpt>
      <trkpt lat="46.76125" lon="5.58155">
        <ele>246</ele>
        <time>2021-05-20T13:18:20Z</time>
      </trkpt>
      <trkpt lat="46.7612" lon="5.58154">
        <ele>246.1</ele>
        <time>2021-05-20T13:18:24Z</time>
      </trkpt>
      <trkpt lat="46.76116" lon="5.58153">
        <ele>246.2</ele>
        <time>2021-05-20T13:18:28Z</time>
      </trkpt>
      <trkpt lat="46.76111" lon="5.58152">
        <ele>246.4</ele>
        <time>2021-05-20T13:18:32Z</time>
      </trkpt>
      <trkpt lat="46.76106" lon="5.58151">
        <ele>246.2</ele>
        <time>2021-05-20T13:18:37Z</time>
      </trkpt>
      <trkpt lat="46.76101" lon="5.5815">
        <ele>246.1</ele>
        <time>2021-05-20T13:18:42Z</time>
      </trkpt>
      <trkpt lat="46.76096" lon="5.5815">
        <ele>245.8</ele>
        <time>2021-05-20T13:18:47Z</time>
      </trkpt>
      <trkpt lat="46.76093" lon="5.58156">
        <ele>245.8</ele>
        <time>2021-05-20T13:18:54Z</time>
      </trkpt>
      <trkpt lat="46.76091" lon="5.58163">
        <ele>246</ele>
        <time>2021-05-20T13:19:00Z</time>
      </trkpt>
      <trkpt lat="46.7609" lon="5.58169">
        <ele>246.3</ele>
        <time>2021-05-20T13:19:05Z</time>
      </trkpt>
      <trkpt lat="46.7609" lon="5.58177">
        <ele>246.9</ele>
        <time>2021-05-20T13:19:10Z</time>
      </trkpt>
      <trkpt lat="46.76091" lon="5.58183">
        <ele>247.5</ele>
        <time>2021-05-20T13:19:14Z</time>
      </trkpt>
      <trkpt lat="46.76093" lon="5.5819">
        <ele>248.1</ele>
        <time>2021-05-20T13:19:18Z</time>
      </trkpt>
      <trkpt lat="46.76095" lon="5.58196">
        <ele>248.6</ele>
        <time>2021-05-20T13:19:22Z</time>
      </trkpt>
      <trkpt lat="46.76096" lon="5.58202">
        <ele>249.1</ele>
        <time>2021-05-20T13:19:29Z</time>
      </trkpt>
      <trkpt lat="46.76096" lon="5.58209">
        <ele>248.4</ele>
        <time>2021-05-20T13:19:39Z</time>
      </trkpt>
      <trkpt lat="46.76094" lon="5.58216">
        <ele>248.1</ele>
        <time>2021-05-20T13:19:44Z</time>
      </trkpt>
      <trkpt lat="46.76091" lon="5.58223">
        <ele>248.2</ele>
        <time>2021-05-20T13:19:50Z</time>
      </trkpt>
      <trkpt lat="46.7609" lon="5.58229">
        <ele>247.1</ele>
        <time>2021-05-20T13:19:58Z</time>
      </trkpt>
      <trkpt lat="46.76087" lon="5.58235">
        <ele>245.3</ele>
        <time>2021-05-20T13:20:20Z</time>
      </trkpt>
      <trkpt lat="46.76085" lon="5.58241">
        <ele>244.8</ele>
        <time>2021-05-20T13:20:25Z</time>
      </trkpt>
      <trkpt lat="46.76083" lon="5.58249">
        <ele>244.1</ele>
        <time>2021-05-20T13:20:30Z</time>
      </trkpt>
      <trkpt lat="46.76082" lon="5.58256">
        <ele>243.5</ele>
        <time>2021-05-20T13:20:35Z</time>
      </trkpt>
      <trkpt lat="46.7608" lon="5.58263">
        <ele>242.8</ele>
        <time>2021-05-20T13:20:39Z</time>
      </trkpt>
      <trkpt lat="46.76079" lon="5.5827">
        <ele>242.3</ele>
        <time>2021-05-20T13:20:44Z</time>
      </trkpt>
      <trkpt lat="46.76077" lon="5.58276">
        <ele>242.2</ele>
        <time>2021-05-20T13:20:48Z</time>
      </trkpt>
      <trkpt lat="46.76074" lon="5.58282">
        <ele>241.9</ele>
        <time>2021-05-20T13:20:54Z</time>
      </trkpt>
      <trkpt lat="46.76073" lon="5.58289">
        <ele>241.7</ele>
        <time>2021-05-20T13:21:12Z</time>
      </trkpt>
      <trkpt lat="46.76072" lon="5.58296">
        <ele>241.7</ele>
        <time>2021-05-20T13:21:17Z</time>
      </trkpt>
      <trkpt lat="46.7607" lon="5.58303">
        <ele>241.8</ele>
        <time>2021-05-20T13:21:22Z</time>
      </trkpt>
      <trkpt lat="46.76068" lon="5.5831">
        <ele>241.8</ele>
        <time>2021-05-20T13:21:26Z</time>
      </trkpt>
      <trkpt lat="46.76066" lon="5.58317">
        <ele>242</ele>
        <time>2021-05-20T13:21:31Z</time>
      </trkpt>
      <trkpt lat="46.76065" lon="5.58324">
        <ele>242.3</ele>
        <time>2021-05-20T13:21:35Z</time>
      </trkpt>
      <trkpt lat="46.76064" lon="5.5833">
        <ele>242.7</ele>
        <time>2021-05-20T13:21:39Z</time>
      </trkpt>
      <trkpt lat="46.76062" lon="5.58337">
        <ele>243.4</ele>
        <time>2021-05-20T13:21:44Z</time>
      </trkpt>
      <trkpt lat="46.76059" lon="5.58342">
        <ele>244.1</ele>
        <time>2021-05-20T13:22:04Z</time>
      </trkpt>
      <trkpt lat="46.76059" lon="5.58349">
        <ele>244.7</ele>
        <time>2021-05-20T13:22:10Z</time>
      </trkpt>
      <trkpt lat="46.76059" lon="5.58356">
        <ele>245.4</ele>
        <time>2021-05-20T13:22:14Z</time>
      </trkpt>
      <trkpt lat="46.76058" lon="5.58363">
        <ele>245.9</ele>
        <time>2021-05-20T13:22:18Z</time>
      </trkpt>
      <trkpt lat="46.76057" lon="5.58369">
        <ele>246.2</ele>
        <time>2021-05-20T13:22:22Z</time>
      </trkpt>
      <trkpt lat="46.76055" lon="5.58375">
        <ele>246.5</ele>
        <time>2021-05-20T13:22:26Z</time>
      </trkpt>
      <trkpt lat="46.76053" lon="5.58383">
        <ele>246.6</ele>
        <time>2021-05-20T13:22:31Z</time>
      </trkpt>
      <trkpt lat="46.76051" lon="5.5839">
        <ele>246.6</ele>
        <time>2021-05-20T13:22:36Z</time>
      </trkpt>
      <trkpt lat="46.76049" lon="5.58397">
        <ele>246.4</ele>
        <time>2021-05-20T13:22:41Z</time>
      </trkpt>
      <trkpt lat="46.76047" lon="5.58405">
        <ele>246.2</ele>
        <time>2021-05-20T13:22:46Z</time>
      </trkpt>
      <trkpt lat="46.76045" lon="5.58412">
        <ele>245.9</ele>
        <time>2021-05-20T13:22:51Z</time>
      </trkpt>
      <trkpt lat="46.76044" lon="5.5842">
        <ele>245.6</ele>
        <time>2021-05-20T13:22:56Z</time>
      </trkpt>
      <trkpt lat="46.76041" lon="5.58427">
        <ele>245.3</ele>
        <time>2021-05-20T13:23:01Z</time>
      </trkpt>
      <trkpt lat="46.76039" lon="5.58434">
        <ele>245.3</ele>
        <time>2021-05-20T13:23:06Z</time>
      </trkpt>
      <trkpt lat="46.76038" lon="5.58441">
        <ele>245.5</ele>
        <time>2021-05-20T13:23:11Z</time>
      </trkpt>
      <trkpt lat="46.76036" lon="5.58449">
        <ele>245.9</ele>
        <time>2021-05-20T13:23:16Z</time>
      </trkpt>
      <trkpt lat="46.76035" lon="5.58456">
        <ele>245.9</ele>
        <time>2021-05-20T13:23:21Z</time>
      </trkpt>
      <trkpt lat="46.76032" lon="5.58463">
        <ele>245.6</ele>
        <time>2021-05-20T13:23:26Z</time>
      </trkpt>
      <trkpt lat="46.7603" lon="5.58469">
        <ele>245.2</ele>
        <time>2021-05-20T13:23:30Z</time>
      </trkpt>
      <trkpt lat="46.76029" lon="5.58476">
        <ele>244.5</ele>
        <time>2021-05-20T13:23:34Z</time>
      </trkpt>
      <trkpt lat="46.76027" lon="5.58483">
        <ele>243.7</ele>
        <time>2021-05-20T13:23:39Z</time>
      </trkpt>
      <trkpt lat="46.76025" lon="5.5849">
        <ele>243.1</ele>
        <time>2021-05-20T13:23:44Z</time>
      </trkpt>
      <trkpt lat="46.76024" lon="5.58497">
        <ele>242.6</ele>
        <time>2021-05-20T13:23:49Z</time>
      </trkpt>
      <trkpt lat="46.76022" lon="5.58504">
        <ele>242.4</ele>
        <time>2021-05-20T13:23:54Z</time>
      </trkpt>
      <trkpt lat="46.7602" lon="5.58511">
        <ele>242.3</ele>
        <time>2021-05-20T13:23:58Z</time>
      </trkpt>
      <trkpt lat="46.76019" lon="5.58517">
        <ele>242.2</ele>
        <time>2021-05-20T13:24:02Z</time>
      </trkpt>
      <trkpt lat="46.76017" lon="5.58525">
        <ele>242.3</ele>
        <time>2021-05-20T13:24:07Z</time>
      </trkpt>
      <trkpt lat="46.76015" lon="5.58531">
        <ele>242.6</ele>
        <time>2021-05-20T13:24:11Z</time>
      </trkpt>
      <trkpt lat="46.76014" lon="5.58538">
        <ele>243</ele>
        <time>2021-05-20T13:24:15Z</time>
      </trkpt>
      <trkpt lat="46.76012" lon="5.58546">
        <ele>243.1</ele>
        <time>2021-05-20T13:24:20Z</time>
      </trkpt>
      <trkpt lat="46.76011" lon="5.58552">
        <ele>243</ele>
        <time>2021-05-20T13:24:24Z</time>
      </trkpt>
      <trkpt lat="46.76009" lon="5.58559">
        <ele>242.9</ele>
        <time>2021-05-20T13:24:29Z</time>
      </trkpt>
      <trkpt lat="46.76007" lon="5.58567">
        <ele>242.8</ele>
        <time>2021-05-20T13:24:34Z</time>
      </trkpt>
      <trkpt lat="46.76006" lon="5.58573">
        <ele>242.7</ele>
        <time>2021-05-20T13:24:38Z</time>
      </trkpt>
      <trkpt lat="46.76004" lon="5.5858">
        <ele>242.7</ele>
        <time>2021-05-20T13:24:42Z</time>
      </trkpt>
      <trkpt lat="46.76002" lon="5.58587">
        <ele>242.4</ele>
        <time>2021-05-20T13:24:47Z</time>
      </trkpt>
      <trkpt lat="46.76" lon="5.58593">
        <ele>242</ele>
        <time>2021-05-20T13:24:52Z</time>
      </trkpt>
      <trkpt lat="46.75998" lon="5.586">
        <ele>241.7</ele>
        <time>2021-05-20T13:24:57Z</time>
      </trkpt>
      <trkpt lat="46.75996" lon="5.58607">
        <ele>241.7</ele>
        <time>2021-05-20T13:25:02Z</time>
      </trkpt>
      <trkpt lat="46.75994" lon="5.58614">
        <ele>241.7</ele>
        <time>2021-05-20T13:25:06Z</time>
      </trkpt>
      <trkpt lat="46.75993" lon="5.58621">
        <ele>241.7</ele>
        <time>2021-05-20T13:25:11Z</time>
      </trkpt>
      <trkpt lat="46.75991" lon="5.58628">
        <ele>241.8</ele>
        <time>2021-05-20T13:25:15Z</time>
      </trkpt>
      <trkpt lat="46.7599" lon="5.58634">
        <ele>242</ele>
        <time>2021-05-20T13:25:19Z</time>
      </trkpt>
      <trkpt lat="46.75987" lon="5.5864">
        <ele>242.7</ele>
        <time>2021-05-20T13:25:24Z</time>
      </trkpt>
      <trkpt lat="46.75985" lon="5.58646">
        <ele>242.8</ele>
        <time>2021-05-20T13:25:28Z</time>
      </trkpt>
      <trkpt lat="46.75983" lon="5.58653">
        <ele>242.9</ele>
        <time>2021-05-20T13:25:32Z</time>
      </trkpt>
      <trkpt lat="46.75982" lon="5.58659">
        <ele>242.9</ele>
        <time>2021-05-20T13:25:36Z</time>
      </trkpt>
      <trkpt lat="46.7598" lon="5.58666">
        <ele>243</ele>
        <time>2021-05-20T13:25:41Z</time>
      </trkpt>
      <trkpt lat="46.75978" lon="5.58673">
        <ele>243.2</ele>
        <time>2021-05-20T13:25:46Z</time>
      </trkpt>
      <trkpt lat="46.75976" lon="5.58681">
        <ele>243.5</ele>
        <time>2021-05-20T13:25:51Z</time>
      </trkpt>
      <trkpt lat="46.75974" lon="5.58687">
        <ele>243.5</ele>
        <time>2021-05-20T13:25:55Z</time>
      </trkpt>
      <trkpt lat="46.75972" lon="5.58694">
        <ele>243.7</ele>
        <time>2021-05-20T13:26:00Z</time>
      </trkpt>
      <trkpt lat="46.75971" lon="5.58701">
        <ele>243.9</ele>
        <time>2021-05-20T13:26:05Z</time>
      </trkpt>
      <trkpt lat="46.75968" lon="5.58708">
        <ele>244.1</ele>
        <time>2021-05-20T13:26:10Z</time>
      </trkpt>
      <trkpt lat="46.75968" lon="5.58715">
        <ele>244.3</ele>
        <time>2021-05-20T13:26:14Z</time>
      </trkpt>
      <trkpt lat="46.75966" lon="5.58721">
        <ele>244.8</ele>
        <time>2021-05-20T13:26:18Z</time>
      </trkpt>
      <trkpt lat="46.75965" lon="5.58729">
        <ele>245.2</ele>
        <time>2021-05-20T13:26:23Z</time>
      </trkpt>
      <trkpt lat="46.75964" lon="5.58735">
        <ele>245.6</ele>
        <time>2021-05-20T13:26:27Z</time>
      </trkpt>
      <trkpt lat="46.75962" lon="5.58743">
        <ele>246.3</ele>
        <time>2021-05-20T13:26:32Z</time>
      </trkpt>
      <trkpt lat="46.7596" lon="5.58749">
        <ele>246.9</ele>
        <time>2021-05-20T13:26:36Z</time>
      </trkpt>
      <trkpt lat="46.75958" lon="5.58755">
        <ele>247.6</ele>
        <time>2021-05-20T13:26:41Z</time>
      </trkpt>
      <trkpt lat="46.75956" lon="5.58763">
        <ele>248.5</ele>
        <time>2021-05-20T13:26:47Z</time>
      </trkpt>
      <trkpt lat="46.75954" lon="5.5877">
        <ele>249.2</ele>
        <time>2021-05-20T13:26:52Z</time>
      </trkpt>
      <trkpt lat="46.75949" lon="5.5877">
        <ele>249.4</ele>
        <time>2021-05-20T13:26:57Z</time>
      </trkpt>
      <trkpt lat="46.75943" lon="5.5877">
        <ele>248.9</ele>
        <time>2021-05-20T13:27:02Z</time>
      </trkpt>
      <trkpt lat="46.75938" lon="5.58769">
        <ele>248.2</ele>
        <time>2021-05-20T13:27:07Z</time>
      </trkpt>
      <trkpt lat="46.75932" lon="5.58767">
        <ele>247.5</ele>
        <time>2021-05-20T13:27:12Z</time>
      </trkpt>
      <trkpt lat="46.75928" lon="5.58765">
        <ele>247.2</ele>
        <time>2021-05-20T13:27:16Z</time>
      </trkpt>
      <trkpt lat="46.75923" lon="5.58762">
        <ele>246.8</ele>
        <time>2021-05-20T13:27:21Z</time>
      </trkpt>
      <trkpt lat="46.75918" lon="5.58761">
        <ele>246.6</ele>
        <time>2021-05-20T13:27:25Z</time>
      </trkpt>
      <trkpt lat="46.75913" lon="5.5876">
        <ele>246.1</ele>
        <time>2021-05-20T13:27:30Z</time>
      </trkpt>
      <trkpt lat="46.75909" lon="5.5876">
        <ele>246</ele>
        <time>2021-05-20T13:27:35Z</time>
      </trkpt>
      <trkpt lat="46.75904" lon="5.58759">
        <ele>246.1</ele>
        <time>2021-05-20T13:27:41Z</time>
      </trkpt>
      <trkpt lat="46.759" lon="5.58755">
        <ele>246.9</ele>
        <time>2021-05-20T13:27:49Z</time>
      </trkpt>
      <trkpt lat="46.75895" lon="5.58752">
        <ele>248</ele>
        <time>2021-05-20T13:27:57Z</time>
      </trkpt>
      <trkpt lat="46.75891" lon="5.5875">
        <ele>250.1</ele>
        <time>2021-05-20T13:28:07Z</time>
      </trkpt>
      <trkpt lat="46.75888" lon="5.58745">
        <ele>251.4</ele>
        <time>2021-05-20T13:28:20Z</time>
      </trkpt>
      <trkpt lat="46.75884" lon="5.58739">
        <ele>251.5</ele>
        <time>2021-05-20T13:28:25Z</time>
      </trkpt>
      <trkpt lat="46.75881" lon="5.58734">
        <ele>251.5</ele>
        <time>2021-05-20T13:28:29Z</time>
      </trkpt>
      <trkpt lat="46.75876" lon="5.5873">
        <ele>251.3</ele>
        <time>2021-05-20T13:28:33Z</time>
      </trkpt>
      <trkpt lat="46.75872" lon="5.58726">
        <ele>250.9</ele>
        <time>2021-05-20T13:28:37Z</time>
      </trkpt>
      <trkpt lat="46.75868" lon="5.58722">
        <ele>250.5</ele>
        <time>2021-05-20T13:28:41Z</time>
      </trkpt>
      <trkpt lat="46.75863" lon="5.58719">
        <ele>249.9</ele>
        <time>2021-05-20T13:28:46Z</time>
      </trkpt>
      <trkpt lat="46.75859" lon="5.58713">
        <ele>249.7</ele>
        <time>2021-05-20T13:28:51Z</time>
      </trkpt>
      <trkpt lat="46.75855" lon="5.58709">
        <ele>249.8</ele>
        <time>2021-05-20T13:28:56Z</time>
      </trkpt>
      <trkpt lat="46.75851" lon="5.58704">
        <ele>250.2</ele>
        <time>2021-05-20T13:29:01Z</time>
      </trkpt>
      <trkpt lat="46.75847" lon="5.58699">
        <ele>250.9</ele>
        <time>2021-05-20T13:29:06Z</time>
      </trkpt>
      <trkpt lat="46.75843" lon="5.58696">
        <ele>251.1</ele>
        <time>2021-05-20T13:29:11Z</time>
      </trkpt>
      <trkpt lat="46.75838" lon="5.58692">
        <ele>251.4</ele>
        <time>2021-05-20T13:29:17Z</time>
      </trkpt>
      <trkpt lat="46.75834" lon="5.5869">
        <ele>251.6</ele>
        <time>2021-05-20T13:29:22Z</time>
      </trkpt>
      <trkpt lat="46.75829" lon="5.58688">
        <ele>251.9</ele>
        <time>2021-05-20T13:29:28Z</time>
      </trkpt>
      <trkpt lat="46.75825" lon="5.58685">
        <ele>252.1</ele>
        <time>2021-05-20T13:29:34Z</time>
      </trkpt>
      <trkpt lat="46.75821" lon="5.58682">
        <ele>252.5</ele>
        <time>2021-05-20T13:29:39Z</time>
      </trkpt>
      <trkpt lat="46.75816" lon="5.58681">
        <ele>253.1</ele>
        <time>2021-05-20T13:29:44Z</time>
      </trkpt>
      <trkpt lat="46.7581" lon="5.5868">
        <ele>253.7</ele>
        <time>2021-05-20T13:29:50Z</time>
      </trkpt>
      <trkpt lat="46.75805" lon="5.58676">
        <ele>253.9</ele>
        <time>2021-05-20T13:29:54Z</time>
      </trkpt>
      <trkpt lat="46.758" lon="5.58672">
        <ele>254</ele>
        <time>2021-05-20T13:29:58Z</time>
      </trkpt>
      <trkpt lat="46.75795" lon="5.58669">
        <ele>254.6</ele>
        <time>2021-05-20T13:30:02Z</time>
      </trkpt>
      <trkpt lat="46.75791" lon="5.58666">
        <ele>255.5</ele>
        <time>2021-05-20T13:30:07Z</time>
      </trkpt>
      <trkpt lat="46.75786" lon="5.58664">
        <ele>256.6</ele>
        <time>2021-05-20T13:30:11Z</time>
      </trkpt>
      <trkpt lat="46.7578" lon="5.58662">
        <ele>258.2</ele>
        <time>2021-05-20T13:30:16Z</time>
      </trkpt>
      <trkpt lat="46.75776" lon="5.58662">
        <ele>259.7</ele>
        <time>2021-05-20T13:30:23Z</time>
      </trkpt>
      <trkpt lat="46.75771" lon="5.58659">
        <ele>260.2</ele>
        <time>2021-05-20T13:30:30Z</time>
      </trkpt>
      <trkpt lat="46.75767" lon="5.58656">
        <ele>260.5</ele>
        <time>2021-05-20T13:30:34Z</time>
      </trkpt>
      <trkpt lat="46.75762" lon="5.58652">
        <ele>261.1</ele>
        <time>2021-05-20T13:30:39Z</time>
      </trkpt>
      <trkpt lat="46.75757" lon="5.5865">
        <ele>261.9</ele>
        <time>2021-05-20T13:30:44Z</time>
      </trkpt>
      <trkpt lat="46.75753" lon="5.58648">
        <ele>262.4</ele>
        <time>2021-05-20T13:30:49Z</time>
      </trkpt>
      <trkpt lat="46.75747" lon="5.58644">
        <ele>262.9</ele>
        <time>2021-05-20T13:30:53Z</time>
      </trkpt>
      <trkpt lat="46.75742" lon="5.58642">
        <ele>263.3</ele>
        <time>2021-05-20T13:30:57Z</time>
      </trkpt>
      <trkpt lat="46.75738" lon="5.5864">
        <ele>263.2</ele>
        <time>2021-05-20T13:31:01Z</time>
      </trkpt>
      <trkpt lat="46.75732" lon="5.58638">
        <ele>262.9</ele>
        <time>2021-05-20T13:31:07Z</time>
      </trkpt>
      <trkpt lat="46.75728" lon="5.58635">
        <ele>262.9</ele>
        <time>2021-05-20T13:31:11Z</time>
      </trkpt>
      <trkpt lat="46.75724" lon="5.58633">
        <ele>263</ele>
        <time>2021-05-20T13:31:15Z</time>
      </trkpt>
      <trkpt lat="46.75719" lon="5.58631">
        <ele>263.2</ele>
        <time>2021-05-20T13:31:20Z</time>
      </trkpt>
      <trkpt lat="46.75714" lon="5.58629">
        <ele>263.4</ele>
        <time>2021-05-20T13:31:26Z</time>
      </trkpt>
      <trkpt lat="46.75709" lon="5.58627">
        <ele>263.6</ele>
        <time>2021-05-20T13:31:32Z</time>
      </trkpt>
      <trkpt lat="46.75704" lon="5.58625">
        <ele>263.9</ele>
        <time>2021-05-20T13:31:37Z</time>
      </trkpt>
      <trkpt lat="46.75699" lon="5.58622">
        <ele>264.4</ele>
        <time>2021-05-20T13:31:42Z</time>
      </trkpt>
      <trkpt lat="46.75695" lon="5.58619">
        <ele>264.7</ele>
        <time>2021-05-20T13:31:46Z</time>
      </trkpt>
      <trkpt lat="46.7569" lon="5.58616">
        <ele>264.9</ele>
        <time>2021-05-20T13:31:50Z</time>
      </trkpt>
      <trkpt lat="46.75686" lon="5.58613">
        <ele>265.3</ele>
        <time>2021-05-20T13:31:54Z</time>
      </trkpt>
      <trkpt lat="46.75681" lon="5.5861">
        <ele>265.6</ele>
        <time>2021-05-20T13:31:58Z</time>
      </trkpt>
      <trkpt lat="46.75677" lon="5.58607">
        <ele>266.2</ele>
        <time>2021-05-20T13:32:03Z</time>
      </trkpt>
      <trkpt lat="46.75672" lon="5.58603">
        <ele>266.6</ele>
        <time>2021-05-20T13:32:08Z</time>
      </trkpt>
      <trkpt lat="46.75668" lon="5.58599">
        <ele>266.3</ele>
        <time>2021-05-20T13:32:13Z</time>
      </trkpt>
      <trkpt lat="46.75664" lon="5.58595">
        <ele>265.8</ele>
        <time>2021-05-20T13:32:19Z</time>
      </trkpt>
      <trkpt lat="46.7566" lon="5.58591">
        <ele>265.4</ele>
        <time>2021-05-20T13:32:24Z</time>
      </trkpt>
      <trkpt lat="46.75655" lon="5.58591">
        <ele>263.3</ele>
        <time>2021-05-20T13:32:32Z</time>
      </trkpt>
      <trkpt lat="46.7565" lon="5.5859">
        <ele>261.3</ele>
        <time>2021-05-20T13:33:46Z</time>
      </trkpt>
      <trkpt lat="46.75646" lon="5.58592">
        <ele>260.9</ele>
        <time>2021-05-20T13:33:51Z</time>
      </trkpt>
      <trkpt lat="46.75641" lon="5.58594">
        <ele>260.7</ele>
        <time>2021-05-20T13:33:56Z</time>
      </trkpt>
      <trkpt lat="46.75636" lon="5.58597">
        <ele>260.5</ele>
        <time>2021-05-20T13:34:01Z</time>
      </trkpt>
      <trkpt lat="46.75631" lon="5.58601">
        <ele>260.6</ele>
        <time>2021-05-20T13:34:06Z</time>
      </trkpt>
      <trkpt lat="46.75627" lon="5.58606">
        <ele>261</ele>
        <time>2021-05-20T13:34:11Z</time>
      </trkpt>
      <trkpt lat="46.75622" lon="5.5861">
        <ele>261.4</ele>
        <time>2021-05-20T13:34:16Z</time>
      </trkpt>
      <trkpt lat="46.75619" lon="5.58614">
        <ele>261.7</ele>
        <time>2021-05-20T13:34:20Z</time>
      </trkpt>
      <trkpt lat="46.75615" lon="5.58619">
        <ele>262</ele>
        <time>2021-05-20T13:34:24Z</time>
      </trkpt>
      <trkpt lat="46.75612" lon="5.58624">
        <ele>262.4</ele>
        <time>2021-05-20T13:34:28Z</time>
      </trkpt>
      <trkpt lat="46.75608" lon="5.58629">
        <ele>263.2</ele>
        <time>2021-05-20T13:34:34Z</time>
      </trkpt>
      <trkpt lat="46.75604" lon="5.58632">
        <ele>263.4</ele>
        <time>2021-05-20T13:34:39Z</time>
      </trkpt>
      <trkpt lat="46.756" lon="5.58636">
        <ele>263.3</ele>
        <time>2021-05-20T13:34:44Z</time>
      </trkpt>
      <trkpt lat="46.75595" lon="5.58639">
        <ele>263.9</ele>
        <time>2021-05-20T13:34:49Z</time>
      </trkpt>
      <trkpt lat="46.75591" lon="5.58644">
        <ele>265</ele>
        <time>2021-05-20T13:34:54Z</time>
      </trkpt>
      <trkpt lat="46.75587" lon="5.58648">
        <ele>265.9</ele>
        <time>2021-05-20T13:34:59Z</time>
      </trkpt>
      <trkpt lat="46.75582" lon="5.58652">
        <ele>266.4</ele>
        <time>2021-05-20T13:35:04Z</time>
      </trkpt>
      <trkpt lat="46.75578" lon="5.58657">
        <ele>266.8</ele>
        <time>2021-05-20T13:35:09Z</time>
      </trkpt>
      <trkpt lat="46.75575" lon="5.58663">
        <ele>267.8</ele>
        <time>2021-05-20T13:35:14Z</time>
      </trkpt>
      <trkpt lat="46.75571" lon="5.58669">
        <ele>268.9</ele>
        <time>2021-05-20T13:35:20Z</time>
      </trkpt>
      <trkpt lat="46.75568" lon="5.58674">
        <ele>269.4</ele>
        <time>2021-05-20T13:35:24Z</time>
      </trkpt>
      <trkpt lat="46.75565" lon="5.58681">
        <ele>270.1</ele>
        <time>2021-05-20T13:35:29Z</time>
      </trkpt>
      <trkpt lat="46.75564" lon="5.58687">
        <ele>270.6</ele>
        <time>2021-05-20T13:35:34Z</time>
      </trkpt>
      <trkpt lat="46.75562" lon="5.58693">
        <ele>271.2</ele>
        <time>2021-05-20T13:35:39Z</time>
      </trkpt>
      <trkpt lat="46.7556" lon="5.58699">
        <ele>272</ele>
        <time>2021-05-20T13:35:44Z</time>
      </trkpt>
      <trkpt lat="46.75558" lon="5.58705">
        <ele>272.7</ele>
        <time>2021-05-20T13:35:49Z</time>
      </trkpt>
      <trkpt lat="46.75553" lon="5.58709">
        <ele>273.3</ele>
        <time>2021-05-20T13:35:54Z</time>
      </trkpt>
      <trkpt lat="46.75548" lon="5.58713">
        <ele>273.7</ele>
        <time>2021-05-20T13:36:00Z</time>
      </trkpt>
      <trkpt lat="46.75543" lon="5.58714">
        <ele>273.7</ele>
        <time>2021-05-20T13:36:04Z</time>
      </trkpt>
      <trkpt lat="46.75538" lon="5.58713">
        <ele>273.9</ele>
        <time>2021-05-20T13:36:11Z</time>
      </trkpt>
      <trkpt lat="46.75534" lon="5.58714">
        <ele>272.9</ele>
        <time>2021-05-20T13:36:20Z</time>
      </trkpt>
      <trkpt lat="46.75528" lon="5.58715">
        <ele>271.5</ele>
        <time>2021-05-20T13:36:24Z</time>
      </trkpt>
      <trkpt lat="46.75523" lon="5.58717">
        <ele>269.4</ele>
        <time>2021-05-20T13:36:29Z</time>
      </trkpt>
      <trkpt lat="46.75518" lon="5.58721">
        <ele>267.6</ele>
        <time>2021-05-20T13:36:34Z</time>
      </trkpt>
      <trkpt lat="46.75514" lon="5.58725">
        <ele>266.2</ele>
        <time>2021-05-20T13:36:40Z</time>
      </trkpt>
      <trkpt lat="46.75509" lon="5.58728">
        <ele>265.7</ele>
        <time>2021-05-20T13:36:45Z</time>
      </trkpt>
      <trkpt lat="46.75505" lon="5.58733">
        <ele>265.2</ele>
        <time>2021-05-20T13:36:49Z</time>
      </trkpt>
      <trkpt lat="46.75502" lon="5.58739">
        <ele>265</ele>
        <time>2021-05-20T13:36:53Z</time>
      </trkpt>
      <trkpt lat="46.75498" lon="5.58744">
        <ele>265</ele>
        <time>2021-05-20T13:36:58Z</time>
      </trkpt>
      <trkpt lat="46.75494" lon="5.5875">
        <ele>267</ele>
        <time>2021-05-20T13:37:02Z</time>
      </trkpt>
      <trkpt lat="46.75491" lon="5.58756">
        <ele>268.8</ele>
        <time>2021-05-20T13:37:06Z</time>
      </trkpt>
      <trkpt lat="46.75486" lon="5.5876">
        <ele>270.7</ele>
        <time>2021-05-20T13:37:12Z</time>
      </trkpt>
      <trkpt lat="46.75476" lon="5.58773">
        <ele>278.7</ele>
        <time>2021-05-20T13:37:16Z</time>
      </trkpt>
      <trkpt lat="46.75471" lon="5.58779">
        <ele>285.4</ele>
        <time>2021-05-20T13:37:20Z</time>
      </trkpt>
      <trkpt lat="46.75466" lon="5.5878">
        <ele>292.2</ele>
        <time>2021-05-20T13:37:28Z</time>
      </trkpt>
      <trkpt lat="46.75461" lon="5.5878">
        <ele>293.7</ele>
        <time>2021-05-20T13:37:33Z</time>
      </trkpt>
      <trkpt lat="46.75456" lon="5.58783">
        <ele>294.1</ele>
        <time>2021-05-20T13:37:38Z</time>
      </trkpt>
      <trkpt lat="46.75451" lon="5.58784">
        <ele>293.8</ele>
        <time>2021-05-20T13:37:44Z</time>
      </trkpt>
      <trkpt lat="46.75444" lon="5.58791">
        <ele>292.2</ele>
        <time>2021-05-20T13:37:49Z</time>
      </trkpt>
      <trkpt lat="46.75439" lon="5.58799">
        <ele>290.9</ele>
        <time>2021-05-20T13:37:53Z</time>
      </trkpt>
      <trkpt lat="46.75434" lon="5.58801">
        <ele>289.8</ele>
        <time>2021-05-20T13:37:59Z</time>
      </trkpt>
      <trkpt lat="46.75429" lon="5.588">
        <ele>288.8</ele>
        <time>2021-05-20T13:38:06Z</time>
      </trkpt>
      <trkpt lat="46.75424" lon="5.58801">
        <ele>287.1</ele>
        <time>2021-05-20T13:38:12Z</time>
      </trkpt>
      <trkpt lat="46.75419" lon="5.58802">
        <ele>285.5</ele>
        <time>2021-05-20T13:38:17Z</time>
      </trkpt>
      <trkpt lat="46.75413" lon="5.58802">
        <ele>284.3</ele>
        <time>2021-05-20T13:38:22Z</time>
      </trkpt>
      <trkpt lat="46.75408" lon="5.58802">
        <ele>282.6</ele>
        <time>2021-05-20T13:38:28Z</time>
      </trkpt>
      <trkpt lat="46.75403" lon="5.588">
        <ele>280.1</ele>
        <time>2021-05-20T13:38:36Z</time>
      </trkpt>
      <trkpt lat="46.75398" lon="5.588">
        <ele>277.9</ele>
        <time>2021-05-20T13:38:42Z</time>
      </trkpt>
      <trkpt lat="46.75393" lon="5.588">
        <ele>276.6</ele>
        <time>2021-05-20T13:38:46Z</time>
      </trkpt>
      <trkpt lat="46.75388" lon="5.58802">
        <ele>275.2</ele>
        <time>2021-05-20T13:38:51Z</time>
      </trkpt>
      <trkpt lat="46.75383" lon="5.58803">
        <ele>274.1</ele>
        <time>2021-05-20T13:38:55Z</time>
      </trkpt>
      <trkpt lat="46.75378" lon="5.58804">
        <ele>272.7</ele>
        <time>2021-05-20T13:39:00Z</time>
      </trkpt>
      <trkpt lat="46.75372" lon="5.58805">
        <ele>271.2</ele>
        <time>2021-05-20T13:39:05Z</time>
      </trkpt>
      <trkpt lat="46.75367" lon="5.58804">
        <ele>270.1</ele>
        <time>2021-05-20T13:39:09Z</time>
      </trkpt>
      <trkpt lat="46.75357" lon="5.5881">
        <ele>275.1</ele>
        <time>2021-05-20T13:39:13Z</time>
      </trkpt>
      <trkpt lat="46.7535" lon="5.58813">
        <ele>279.1</ele>
        <time>2021-05-20T13:39:17Z</time>
      </trkpt>
      <trkpt lat="46.75345" lon="5.58814">
        <ele>281.6</ele>
        <time>2021-05-20T13:39:22Z</time>
      </trkpt>
      <trkpt lat="46.7534" lon="5.58813">
        <ele>282.5</ele>
        <time>2021-05-20T13:39:27Z</time>
      </trkpt>
      <trkpt lat="46.75334" lon="5.58812">
        <ele>282.9</ele>
        <time>2021-05-20T13:39:32Z</time>
      </trkpt>
      <trkpt lat="46.7533" lon="5.58811">
        <ele>282.7</ele>
        <time>2021-05-20T13:39:37Z</time>
      </trkpt>
      <trkpt lat="46.75325" lon="5.5881">
        <ele>282.3</ele>
        <time>2021-05-20T13:39:42Z</time>
      </trkpt>
      <trkpt lat="46.75321" lon="5.5881">
        <ele>282.1</ele>
        <time>2021-05-20T13:39:47Z</time>
      </trkpt>
      <trkpt lat="46.75316" lon="5.5881">
        <ele>281.6</ele>
        <time>2021-05-20T13:39:59Z</time>
      </trkpt>
      <trkpt lat="46.75312" lon="5.58807">
        <ele>281.6</ele>
        <time>2021-05-20T13:40:09Z</time>
      </trkpt>
      <trkpt lat="46.75308" lon="5.58805">
        <ele>281.6</ele>
        <time>2021-05-20T13:40:14Z</time>
      </trkpt>
      <trkpt lat="46.75303" lon="5.58802">
        <ele>281.5</ele>
        <time>2021-05-20T13:40:18Z</time>
      </trkpt>
      <trkpt lat="46.75298" lon="5.588">
        <ele>281.3</ele>
        <time>2021-05-20T13:40:23Z</time>
      </trkpt>
      <trkpt lat="46.75293" lon="5.58799">
        <ele>281</ele>
        <time>2021-05-20T13:40:28Z</time>
      </trkpt>
      <trkpt lat="46.75289" lon="5.588">
        <ele>279.8</ele>
        <time>2021-05-20T13:40:54Z</time>
      </trkpt>
      <trkpt lat="46.75285" lon="5.58803">
        <ele>279.1</ele>
        <time>2021-05-20T13:41:01Z</time>
      </trkpt>
      <trkpt lat="46.75286" lon="5.58809">
        <ele>277.6</ele>
        <time>2021-05-20T13:41:11Z</time>
      </trkpt>
      <trkpt lat="46.75289" lon="5.58815">
        <ele>276.3</ele>
        <time>2021-05-20T13:41:23Z</time>
      </trkpt>
      <trkpt lat="46.75291" lon="5.58821">
        <ele>276.4</ele>
        <time>2021-05-20T13:41:28Z</time>
      </trkpt>
      <trkpt lat="46.75293" lon="5.58829">
        <ele>277</ele>
        <time>2021-05-20T13:41:34Z</time>
      </trkpt>
      <trkpt lat="46.75295" lon="5.58835">
        <ele>277.4</ele>
        <time>2021-05-20T13:41:39Z</time>
      </trkpt>
      <trkpt lat="46.75296" lon="5.58841">
        <ele>278</ele>
        <time>2021-05-20T13:41:44Z</time>
      </trkpt>
      <trkpt lat="46.75298" lon="5.58848">
        <ele>278.7</ele>
        <time>2021-05-20T13:41:49Z</time>
      </trkpt>
      <trkpt lat="46.75298" lon="5.58856">
        <ele>279.1</ele>
        <time>2021-05-20T13:41:54Z</time>
      </trkpt>
      <trkpt lat="46.75299" lon="5.58864">
        <ele>280</ele>
        <time>2021-05-20T13:41:59Z</time>
      </trkpt>
      <trkpt lat="46.75299" lon="5.58871">
        <ele>281.2</ele>
        <time>2021-05-20T13:42:05Z</time>
      </trkpt>
      <trkpt lat="46.753" lon="5.58878">
        <ele>281.7</ele>
        <time>2021-05-20T13:42:10Z</time>
      </trkpt>
      <trkpt lat="46.75301" lon="5.58885">
        <ele>282.5</ele>
        <time>2021-05-20T13:42:15Z</time>
      </trkpt>
      <trkpt lat="46.75303" lon="5.58892">
        <ele>282.8</ele>
        <time>2021-05-20T13:42:19Z</time>
      </trkpt>
      <trkpt lat="46.75304" lon="5.589">
        <ele>283.3</ele>
        <time>2021-05-20T13:42:24Z</time>
      </trkpt>
      <trkpt lat="46.75302" lon="5.58907">
        <ele>284.3</ele>
        <time>2021-05-20T13:42:31Z</time>
      </trkpt>
      <trkpt lat="46.75297" lon="5.5891">
        <ele>284.2</ele>
        <time>2021-05-20T13:42:36Z</time>
      </trkpt>
      <trkpt lat="46.75291" lon="5.58919">
        <ele>285.5</ele>
        <time>2021-05-20T13:42:40Z</time>
      </trkpt>
      <trkpt lat="46.75285" lon="5.58925">
        <ele>287.2</ele>
        <time>2021-05-20T13:42:44Z</time>
      </trkpt>
      <trkpt lat="46.7528" lon="5.5893">
        <ele>287.2</ele>
        <time>2021-05-20T13:42:49Z</time>
      </trkpt>
      <trkpt lat="46.75276" lon="5.58935">
        <ele>286.4</ele>
        <time>2021-05-20T13:42:53Z</time>
      </trkpt>
      <trkpt lat="46.75271" lon="5.58939">
        <ele>285.8</ele>
        <time>2021-05-20T13:42:59Z</time>
      </trkpt>
      <trkpt lat="46.75268" lon="5.58944">
        <ele>284.9</ele>
        <time>2021-05-20T13:43:04Z</time>
      </trkpt>
      <trkpt lat="46.75267" lon="5.58951">
        <ele>282.4</ele>
        <time>2021-05-20T13:43:10Z</time>
      </trkpt>
      <trkpt lat="46.75268" lon="5.58959">
        <ele>279.5</ele>
        <time>2021-05-20T13:43:15Z</time>
      </trkpt>
      <trkpt lat="46.7527" lon="5.58965">
        <ele>275.5</ele>
        <time>2021-05-20T13:43:21Z</time>
      </trkpt>
      <trkpt lat="46.75274" lon="5.5897">
        <ele>273.1</ele>
        <time>2021-05-20T13:43:25Z</time>
      </trkpt>
      <trkpt lat="46.75278" lon="5.58974">
        <ele>269.6</ele>
        <time>2021-05-20T13:43:31Z</time>
      </trkpt>
      <trkpt lat="46.75283" lon="5.58974">
        <ele>265.8</ele>
        <time>2021-05-20T13:43:38Z</time>
      </trkpt>
      <trkpt lat="46.75287" lon="5.58976">
        <ele>263.2</ele>
        <time>2021-05-20T13:43:44Z</time>
      </trkpt>
      <trkpt lat="46.75293" lon="5.58979">
        <ele>261.9</ele>
        <time>2021-05-20T13:43:51Z</time>
      </trkpt>
      <trkpt lat="46.75297" lon="5.58982">
        <ele>262.4</ele>
        <time>2021-05-20T13:43:57Z</time>
      </trkpt>
      <trkpt lat="46.75301" lon="5.58985">
        <ele>261.9</ele>
        <time>2021-05-20T13:44:03Z</time>
      </trkpt>
      <trkpt lat="46.75306" lon="5.58988">
        <ele>261.2</ele>
        <time>2021-05-20T13:44:08Z</time>
      </trkpt>
      <trkpt lat="46.7531" lon="5.58991">
        <ele>260.4</ele>
        <time>2021-05-20T13:44:13Z</time>
      </trkpt>
      <trkpt lat="46.75314" lon="5.58994">
        <ele>259.5</ele>
        <time>2021-05-20T13:44:17Z</time>
      </trkpt>
      <trkpt lat="46.75319" lon="5.58999">
        <ele>258.8</ele>
        <time>2021-05-20T13:44:21Z</time>
      </trkpt>
      <trkpt lat="46.75323" lon="5.59004">
        <ele>258.2</ele>
        <time>2021-05-20T13:44:25Z</time>
      </trkpt>
      <trkpt lat="46.75327" lon="5.59008">
        <ele>257.7</ele>
        <time>2021-05-20T13:44:29Z</time>
      </trkpt>
      <trkpt lat="46.75331" lon="5.59013">
        <ele>257.2</ele>
        <time>2021-05-20T13:44:33Z</time>
      </trkpt>
      <trkpt lat="46.75334" lon="5.59019">
        <ele>256.6</ele>
        <time>2021-05-20T13:44:39Z</time>
      </trkpt>
      <trkpt lat="46.75339" lon="5.59024">
        <ele>256.1</ele>
        <time>2021-05-20T13:44:44Z</time>
      </trkpt>
      <trkpt lat="46.75344" lon="5.59026">
        <ele>254.9</ele>
        <time>2021-05-20T13:44:49Z</time>
      </trkpt>
      <trkpt lat="46.75349" lon="5.59026">
        <ele>253.1</ele>
        <time>2021-05-20T13:44:55Z</time>
      </trkpt>
      <trkpt lat="46.75354" lon="5.59024">
        <ele>251.8</ele>
        <time>2021-05-20T13:45:00Z</time>
      </trkpt>
      <trkpt lat="46.75362" lon="5.59025">
        <ele>253.1</ele>
        <time>2021-05-20T13:45:04Z</time>
      </trkpt>
      <trkpt lat="46.75367" lon="5.59023">
        <ele>253.4</ele>
        <time>2021-05-20T13:45:09Z</time>
      </trkpt>
      <trkpt lat="46.75372" lon="5.59021">
        <ele>253.4</ele>
        <time>2021-05-20T13:45:13Z</time>
      </trkpt>
      <trkpt lat="46.75379" lon="5.5902">
        <ele>256.3</ele>
        <time>2021-05-20T13:45:17Z</time>
      </trkpt>
      <trkpt lat="46.75384" lon="5.59019">
        <ele>258.4</ele>
        <time>2021-05-20T13:45:21Z</time>
      </trkpt>
      <trkpt lat="46.7539" lon="5.59017">
        <ele>260.2</ele>
        <time>2021-05-20T13:45:25Z</time>
      </trkpt>
      <trkpt lat="46.75396" lon="5.59015">
        <ele>261.2</ele>
        <time>2021-05-20T13:45:29Z</time>
      </trkpt>
      <trkpt lat="46.75401" lon="5.59013">
        <ele>262</ele>
        <time>2021-05-20T13:45:33Z</time>
      </trkpt>
      <trkpt lat="46.75407" lon="5.59011">
        <ele>263.1</ele>
        <time>2021-05-20T13:45:37Z</time>
      </trkpt>
      <trkpt lat="46.75412" lon="5.59012">
        <ele>264</ele>
        <time>2021-05-20T13:45:41Z</time>
      </trkpt>
      <trkpt lat="46.75417" lon="5.59014">
        <ele>263.9</ele>
        <time>2021-05-20T13:45:46Z</time>
      </trkpt>
      <trkpt lat="46.75422" lon="5.59015">
        <ele>263.1</ele>
        <time>2021-05-20T13:45:52Z</time>
      </trkpt>
      <trkpt lat="46.75427" lon="5.59017">
        <ele>261.1</ele>
        <time>2021-05-20T13:45:58Z</time>
      </trkpt>
      <trkpt lat="46.75433" lon="5.59016">
        <ele>259.6</ele>
        <time>2021-05-20T13:46:03Z</time>
      </trkpt>
      <trkpt lat="46.75437" lon="5.59016">
        <ele>258.4</ele>
        <time>2021-05-20T13:46:08Z</time>
      </trkpt>
      <trkpt lat="46.75442" lon="5.59016">
        <ele>257.5</ele>
        <time>2021-05-20T13:46:13Z</time>
      </trkpt>
      <trkpt lat="46.75447" lon="5.59016">
        <ele>256.5</ele>
        <time>2021-05-20T13:46:18Z</time>
      </trkpt>
      <trkpt lat="46.75452" lon="5.59016">
        <ele>255.8</ele>
        <time>2021-05-20T13:46:23Z</time>
      </trkpt>
      <trkpt lat="46.75456" lon="5.59017">
        <ele>254.5</ele>
        <time>2021-05-20T13:46:30Z</time>
      </trkpt>
      <trkpt lat="46.75462" lon="5.59016">
        <ele>254.6</ele>
        <time>2021-05-20T13:46:35Z</time>
      </trkpt>
      <trkpt lat="46.75467" lon="5.59015">
        <ele>254.7</ele>
        <time>2021-05-20T13:46:41Z</time>
      </trkpt>
      <trkpt lat="46.75472" lon="5.59014">
        <ele>254.3</ele>
        <time>2021-05-20T13:46:46Z</time>
      </trkpt>
      <trkpt lat="46.75477" lon="5.59013">
        <ele>253.8</ele>
        <time>2021-05-20T13:46:50Z</time>
      </trkpt>
      <trkpt lat="46.75482" lon="5.59012">
        <ele>253.4</ele>
        <time>2021-05-20T13:46:54Z</time>
      </trkpt>
      <trkpt lat="46.75486" lon="5.5901">
        <ele>253.7</ele>
        <time>2021-05-20T13:46:58Z</time>
      </trkpt>
      <trkpt lat="46.75492" lon="5.59009">
        <ele>255.5</ele>
        <time>2021-05-20T13:47:02Z</time>
      </trkpt>
      <trkpt lat="46.75497" lon="5.59009">
        <ele>257.1</ele>
        <time>2021-05-20T13:47:07Z</time>
      </trkpt>
      <trkpt lat="46.75503" lon="5.59007">
        <ele>258.2</ele>
        <time>2021-05-20T13:47:12Z</time>
      </trkpt>
      <trkpt lat="46.75507" lon="5.59006">
        <ele>259.1</ele>
        <time>2021-05-20T13:47:18Z</time>
      </trkpt>
      <trkpt lat="46.75512" lon="5.59006">
        <ele>259.5</ele>
        <time>2021-05-20T13:47:27Z</time>
      </trkpt>
      <trkpt lat="46.75517" lon="5.59006">
        <ele>259.8</ele>
        <time>2021-05-20T13:47:32Z</time>
      </trkpt>
      <trkpt lat="46.75522" lon="5.59006">
        <ele>259.9</ele>
        <time>2021-05-20T13:47:37Z</time>
      </trkpt>
      <trkpt lat="46.75526" lon="5.59009">
        <ele>259.8</ele>
        <time>2021-05-20T13:47:46Z</time>
      </trkpt>
      <trkpt lat="46.75533" lon="5.59012">
        <ele>262.1</ele>
        <time>2021-05-20T13:47:53Z</time>
      </trkpt>
      <trkpt lat="46.75545" lon="5.59013">
        <ele>265.8</ele>
        <time>2021-05-20T13:47:57Z</time>
      </trkpt>
      <trkpt lat="46.75551" lon="5.59013">
        <ele>269.5</ele>
        <time>2021-05-20T13:48:01Z</time>
      </trkpt>
      <trkpt lat="46.75556" lon="5.59013">
        <ele>273.8</ele>
        <time>2021-05-20T13:48:06Z</time>
      </trkpt>
      <trkpt lat="46.75561" lon="5.59014">
        <ele>277.6</ele>
        <time>2021-05-20T13:48:11Z</time>
      </trkpt>
      <trkpt lat="46.75565" lon="5.59016">
        <ele>281.2</ele>
        <time>2021-05-20T13:48:17Z</time>
      </trkpt>
      <trkpt lat="46.7557" lon="5.59019">
        <ele>283.3</ele>
        <time>2021-05-20T13:48:22Z</time>
      </trkpt>
      <trkpt lat="46.75574" lon="5.59023">
        <ele>284.9</ele>
        <time>2021-05-20T13:48:27Z</time>
      </trkpt>
      <trkpt lat="46.75575" lon="5.5903">
        <ele>286.4</ele>
        <time>2021-05-20T13:48:32Z</time>
      </trkpt>
      <trkpt lat="46.75576" lon="5.59036">
        <ele>287.2</ele>
        <time>2021-05-20T13:48:36Z</time>
      </trkpt>
      <trkpt lat="46.75578" lon="5.59044">
        <ele>287.9</ele>
        <time>2021-05-20T13:48:41Z</time>
      </trkpt>
      <trkpt lat="46.75579" lon="5.5905">
        <ele>287</ele>
        <time>2021-05-20T13:48:46Z</time>
      </trkpt>
      <trkpt lat="46.75579" lon="5.59057">
        <ele>286.5</ele>
        <time>2021-05-20T13:48:51Z</time>
      </trkpt>
      <trkpt lat="46.75578" lon="5.59064">
        <ele>285.8</ele>
        <time>2021-05-20T13:48:56Z</time>
      </trkpt>
      <trkpt lat="46.75575" lon="5.59074">
        <ele>279.8</ele>
        <time>2021-05-20T13:49:01Z</time>
      </trkpt>
      <trkpt lat="46.75572" lon="5.59082">
        <ele>273.2</ele>
        <time>2021-05-20T13:49:05Z</time>
      </trkpt>
      <trkpt lat="46.75569" lon="5.59088">
        <ele>267.6</ele>
        <time>2021-05-20T13:49:10Z</time>
      </trkpt>
      <trkpt lat="46.75566" lon="5.59093">
        <ele>263.4</ele>
        <time>2021-05-20T13:49:16Z</time>
      </trkpt>
      <trkpt lat="46.75563" lon="5.59101">
        <ele>261.4</ele>
        <time>2021-05-20T13:49:20Z</time>
      </trkpt>
      <trkpt lat="46.75559" lon="5.59106">
        <ele>259.1</ele>
        <time>2021-05-20T13:49:26Z</time>
      </trkpt>
      <trkpt lat="46.75556" lon="5.59113">
        <ele>257.5</ele>
        <time>2021-05-20T13:49:31Z</time>
      </trkpt>
      <trkpt lat="46.75555" lon="5.5912">
        <ele>256.4</ele>
        <time>2021-05-20T13:49:35Z</time>
      </trkpt>
      <trkpt lat="46.75553" lon="5.59132">
        <ele>256.8</ele>
        <time>2021-05-20T13:49:40Z</time>
      </trkpt>
      <trkpt lat="46.75552" lon="5.5914">
        <ele>257.7</ele>
        <time>2021-05-20T13:49:44Z</time>
      </trkpt>
      <trkpt lat="46.7555" lon="5.59147">
        <ele>258.2</ele>
        <time>2021-05-20T13:49:50Z</time>
      </trkpt>
      <trkpt lat="46.7555" lon="5.59154">
        <ele>258</ele>
        <time>2021-05-20T13:49:57Z</time>
      </trkpt>
      <trkpt lat="46.75551" lon="5.59164">
        <ele>261.3</ele>
        <time>2021-05-20T13:50:01Z</time>
      </trkpt>
      <trkpt lat="46.75553" lon="5.59171">
        <ele>264</ele>
        <time>2021-05-20T13:50:05Z</time>
      </trkpt>
      <trkpt lat="46.75555" lon="5.59179">
        <ele>265.8</ele>
        <time>2021-05-20T13:50:10Z</time>
      </trkpt>
      <trkpt lat="46.75556" lon="5.59186">
        <ele>266.3</ele>
        <time>2021-05-20T13:50:14Z</time>
      </trkpt>
      <trkpt lat="46.75556" lon="5.59193">
        <ele>266.6</ele>
        <time>2021-05-20T13:50:19Z</time>
      </trkpt>
      <trkpt lat="46.75556" lon="5.592">
        <ele>266.5</ele>
        <time>2021-05-20T13:50:24Z</time>
      </trkpt>
      <trkpt lat="46.75555" lon="5.59207">
        <ele>265.2</ele>
        <time>2021-05-20T13:50:28Z</time>
      </trkpt>
      <trkpt lat="46.75553" lon="5.59213">
        <ele>262.2</ele>
        <time>2021-05-20T13:50:41Z</time>
      </trkpt>
      <trkpt lat="46.7555" lon="5.59219">
        <ele>261.5</ele>
        <time>2021-05-20T13:51:01Z</time>
      </trkpt>
      <trkpt lat="46.7555" lon="5.59227">
        <ele>262.1</ele>
        <time>2021-05-20T13:51:06Z</time>
      </trkpt>
      <trkpt lat="46.75551" lon="5.59234">
        <ele>262.6</ele>
        <time>2021-05-20T13:51:11Z</time>
      </trkpt>
      <trkpt lat="46.75549" lon="5.5924">
        <ele>262.6</ele>
        <time>2021-05-20T13:51:16Z</time>
      </trkpt>
      <trkpt lat="46.75547" lon="5.59246">
        <ele>260.9</ele>
        <time>2021-05-20T13:51:28Z</time>
      </trkpt>
      <trkpt lat="46.75545" lon="5.59252">
        <ele>259.4</ele>
        <time>2021-05-20T13:51:36Z</time>
      </trkpt>
      <trkpt lat="46.75546" lon="5.59258">
        <ele>258.4</ele>
        <time>2021-05-20T13:51:42Z</time>
      </trkpt>
      <trkpt lat="46.7555" lon="5.59264">
        <ele>257.8</ele>
        <time>2021-05-20T13:51:47Z</time>
      </trkpt>
      <trkpt lat="46.75549" lon="5.59271">
        <ele>256.9</ele>
        <time>2021-05-20T13:51:52Z</time>
      </trkpt>
      <trkpt lat="46.75548" lon="5.59278">
        <ele>255.3</ele>
        <time>2021-05-20T13:51:57Z</time>
      </trkpt>
      <trkpt lat="46.75546" lon="5.59286">
        <ele>254.2</ele>
        <time>2021-05-20T13:52:02Z</time>
      </trkpt>
      <trkpt lat="46.75545" lon="5.59293">
        <ele>253.1</ele>
        <time>2021-05-20T13:52:07Z</time>
      </trkpt>
      <trkpt lat="46.75544" lon="5.593">
        <ele>252.6</ele>
        <time>2021-05-20T13:52:12Z</time>
      </trkpt>
      <trkpt lat="46.75543" lon="5.59307">
        <ele>252.6</ele>
        <time>2021-05-20T13:52:17Z</time>
      </trkpt>
      <trkpt lat="46.75542" lon="5.59315">
        <ele>252.3</ele>
        <time>2021-05-20T13:52:22Z</time>
      </trkpt>
      <trkpt lat="46.75541" lon="5.59322">
        <ele>251.9</ele>
        <time>2021-05-20T13:52:26Z</time>
      </trkpt>
      <trkpt lat="46.7554" lon="5.59329">
        <ele>251.7</ele>
        <time>2021-05-20T13:52:31Z</time>
      </trkpt>
      <trkpt lat="46.75539" lon="5.59336">
        <ele>252.1</ele>
        <time>2021-05-20T13:52:36Z</time>
      </trkpt>
      <trkpt lat="46.75538" lon="5.59342">
        <ele>252.7</ele>
        <time>2021-05-20T13:52:41Z</time>
      </trkpt>
      <trkpt lat="46.75538" lon="5.59349">
        <ele>253.6</ele>
        <time>2021-05-20T13:52:46Z</time>
      </trkpt>
      <trkpt lat="46.75536" lon="5.59357">
        <ele>254.9</ele>
        <time>2021-05-20T13:52:51Z</time>
      </trkpt>
      <trkpt lat="46.75536" lon="5.59364">
        <ele>256.2</ele>
        <time>2021-05-20T13:52:56Z</time>
      </trkpt>
      <trkpt lat="46.75535" lon="5.59371">
        <ele>257</ele>
        <time>2021-05-20T13:53:01Z</time>
      </trkpt>
      <trkpt lat="46.75534" lon="5.59379">
        <ele>257.6</ele>
        <time>2021-05-20T13:53:06Z</time>
      </trkpt>
      <trkpt lat="46.75533" lon="5.59386">
        <ele>258.1</ele>
        <time>2021-05-20T13:53:11Z</time>
      </trkpt>
      <trkpt lat="46.75533" lon="5.59393">
        <ele>258.4</ele>
        <time>2021-05-20T13:53:15Z</time>
      </trkpt>
      <trkpt lat="46.75533" lon="5.59401">
        <ele>258.9</ele>
        <time>2021-05-20T13:53:20Z</time>
      </trkpt>
      <trkpt lat="46.75531" lon="5.59408">
        <ele>260.1</ele>
        <time>2021-05-20T13:53:27Z</time>
      </trkpt>
      <trkpt lat="46.75532" lon="5.59416">
        <ele>261.1</ele>
        <time>2021-05-20T13:53:33Z</time>
      </trkpt>
      <trkpt lat="46.75532" lon="5.59424">
        <ele>261.9</ele>
        <time>2021-05-20T13:53:38Z</time>
      </trkpt>
      <trkpt lat="46.75531" lon="5.5943">
        <ele>262.4</ele>
        <time>2021-05-20T13:53:42Z</time>
      </trkpt>
      <trkpt lat="46.7553" lon="5.59438">
        <ele>262.8</ele>
        <time>2021-05-20T13:53:47Z</time>
      </trkpt>
      <trkpt lat="46.75529" lon="5.59445">
        <ele>263</ele>
        <time>2021-05-20T13:53:51Z</time>
      </trkpt>
      <trkpt lat="46.75528" lon="5.59453">
        <ele>263.3</ele>
        <time>2021-05-20T13:53:55Z</time>
      </trkpt>
      <trkpt lat="46.75526" lon="5.59461">
        <ele>263.3</ele>
        <time>2021-05-20T13:53:59Z</time>
      </trkpt>
      <trkpt lat="46.75526" lon="5.59468">
        <ele>263.1</ele>
        <time>2021-05-20T13:54:03Z</time>
      </trkpt>
      <trkpt lat="46.75524" lon="5.59475">
        <ele>262.9</ele>
        <time>2021-05-20T13:54:08Z</time>
      </trkpt>
      <trkpt lat="46.75524" lon="5.59482">
        <ele>262.1</ele>
        <time>2021-05-20T13:54:58Z</time>
      </trkpt>
      <trkpt lat="46.75524" lon="5.59489">
        <ele>260.8</ele>
        <time>2021-05-20T13:55:34Z</time>
      </trkpt>
      <trkpt lat="46.75525" lon="5.59496">
        <ele>260.7</ele>
        <time>2021-05-20T13:55:40Z</time>
      </trkpt>
      <trkpt lat="46.75525" lon="5.59503">
        <ele>260.6</ele>
        <time>2021-05-20T13:55:46Z</time>
      </trkpt>
      <trkpt lat="46.75526" lon="5.59511">
        <ele>260.8</ele>
        <time>2021-05-20T13:55:51Z</time>
      </trkpt>
      <trkpt lat="46.75527" lon="5.59518">
        <ele>261.3</ele>
        <time>2021-05-20T13:55:56Z</time>
      </trkpt>
      <trkpt lat="46.75529" lon="5.59526">
        <ele>262</ele>
        <time>2021-05-20T13:56:01Z</time>
      </trkpt>
      <trkpt lat="46.75531" lon="5.59532">
        <ele>261.6</ele>
        <time>2021-05-20T13:56:06Z</time>
      </trkpt>
      <trkpt lat="46.75531" lon="5.59538">
        <ele>260.2</ele>
        <time>2021-05-20T13:56:12Z</time>
      </trkpt>
      <trkpt lat="46.75532" lon="5.59546">
        <ele>258.7</ele>
        <time>2021-05-20T13:56:18Z</time>
      </trkpt>
      <trkpt lat="46.75532" lon="5.59553">
        <ele>257.8</ele>
        <time>2021-05-20T13:56:23Z</time>
      </trkpt>
      <trkpt lat="46.75532" lon="5.59561">
        <ele>256.9</ele>
        <time>2021-05-20T13:56:28Z</time>
      </trkpt>
      <trkpt lat="46.75532" lon="5.59568">
        <ele>256.3</ele>
        <time>2021-05-20T13:56:32Z</time>
      </trkpt>
      <trkpt lat="46.75533" lon="5.59575">
        <ele>256.1</ele>
        <time>2021-05-20T13:56:37Z</time>
      </trkpt>
      <trkpt lat="46.75531" lon="5.59583">
        <ele>256.5</ele>
        <time>2021-05-20T13:56:42Z</time>
      </trkpt>
      <trkpt lat="46.75528" lon="5.59588">
        <ele>256.5</ele>
        <time>2021-05-20T13:56:46Z</time>
      </trkpt>
      <trkpt lat="46.75525" lon="5.59594">
        <ele>256.7</ele>
        <time>2021-05-20T13:56:53Z</time>
      </trkpt>
      <trkpt lat="46.75523" lon="5.596">
        <ele>257.2</ele>
        <time>2021-05-20T13:56:57Z</time>
      </trkpt>
      <trkpt lat="46.75521" lon="5.59606">
        <ele>258</ele>
        <time>2021-05-20T13:57:01Z</time>
      </trkpt>
      <trkpt lat="46.75519" lon="5.59613">
        <ele>258.5</ele>
        <time>2021-05-20T13:57:06Z</time>
      </trkpt>
      <trkpt lat="46.75518" lon="5.59619">
        <ele>258.6</ele>
        <time>2021-05-20T13:57:11Z</time>
      </trkpt>
      <trkpt lat="46.75516" lon="5.59626">
        <ele>258.3</ele>
        <time>2021-05-20T13:57:16Z</time>
      </trkpt>
      <trkpt lat="46.75513" lon="5.59632">
        <ele>257.2</ele>
        <time>2021-05-20T13:57:21Z</time>
      </trkpt>
      <trkpt lat="46.7551" lon="5.59638">
        <ele>256.4</ele>
        <time>2021-05-20T13:57:26Z</time>
      </trkpt>
      <trkpt lat="46.75507" lon="5.59643">
        <ele>255.9</ele>
        <time>2021-05-20T13:57:32Z</time>
      </trkpt>
      <trkpt lat="46.75505" lon="5.59649">
        <ele>255.3</ele>
        <time>2021-05-20T13:57:38Z</time>
      </trkpt>
      <trkpt lat="46.75501" lon="5.59653">
        <ele>254</ele>
        <time>2021-05-20T13:57:57Z</time>
      </trkpt>
      <trkpt lat="46.75498" lon="5.59658">
        <ele>254</ele>
        <time>2021-05-20T13:58:01Z</time>
      </trkpt>
      <trkpt lat="46.75495" lon="5.59665">
        <ele>254</ele>
        <time>2021-05-20T13:58:05Z</time>
      </trkpt>
      <trkpt lat="46.75492" lon="5.5967">
        <ele>254</ele>
        <time>2021-05-20T13:58:09Z</time>
      </trkpt>
      <trkpt lat="46.7549" lon="5.59676">
        <ele>254</ele>
        <time>2021-05-20T13:58:13Z</time>
      </trkpt>
      <trkpt lat="46.75487" lon="5.59682">
        <ele>253.7</ele>
        <time>2021-05-20T13:58:18Z</time>
      </trkpt>
      <trkpt lat="46.75484" lon="5.59688">
        <ele>253.4</ele>
        <time>2021-05-20T13:58:22Z</time>
      </trkpt>
      <trkpt lat="46.75481" lon="5.59694">
        <ele>253.2</ele>
        <time>2021-05-20T13:58:26Z</time>
      </trkpt>
      <trkpt lat="46.75479" lon="5.59699">
        <ele>253</ele>
        <time>2021-05-20T13:58:30Z</time>
      </trkpt>
      <trkpt lat="46.75476" lon="5.59706">
        <ele>253.2</ele>
        <time>2021-05-20T13:58:35Z</time>
      </trkpt>
      <trkpt lat="46.75473" lon="5.59711">
        <ele>253</ele>
        <time>2021-05-20T13:58:39Z</time>
      </trkpt>
      <trkpt lat="46.7547" lon="5.59716">
        <ele>253.1</ele>
        <time>2021-05-20T13:58:44Z</time>
      </trkpt>
      <trkpt lat="46.75466" lon="5.59722">
        <ele>253.5</ele>
        <time>2021-05-20T13:58:49Z</time>
      </trkpt>
      <trkpt lat="46.75463" lon="5.59726">
        <ele>254.3</ele>
        <time>2021-05-20T13:58:54Z</time>
      </trkpt>
      <trkpt lat="46.7546" lon="5.59732">
        <ele>254.9</ele>
        <time>2021-05-20T13:58:59Z</time>
      </trkpt>
      <trkpt lat="46.75458" lon="5.59739">
        <ele>254.7</ele>
        <time>2021-05-20T13:59:05Z</time>
      </trkpt>
      <trkpt lat="46.75457" lon="5.59746">
        <ele>254.2</ele>
        <time>2021-05-20T13:59:12Z</time>
      </trkpt>
      <trkpt lat="46.75454" lon="5.59752">
        <ele>253.7</ele>
        <time>2021-05-20T13:59:19Z</time>
      </trkpt>
      <trkpt lat="46.7545" lon="5.59758">
        <ele>253.4</ele>
        <time>2021-05-20T13:59:24Z</time>
      </trkpt>
      <trkpt lat="46.75447" lon="5.59764">
        <ele>253.2</ele>
        <time>2021-05-20T13:59:29Z</time>
      </trkpt>
      <trkpt lat="46.75443" lon="5.59769">
        <ele>252.9</ele>
        <time>2021-05-20T13:59:34Z</time>
      </trkpt>
      <trkpt lat="46.7544" lon="5.59775">
        <ele>252.5</ele>
        <time>2021-05-20T13:59:39Z</time>
      </trkpt>
      <trkpt lat="46.75438" lon="5.59782">
        <ele>251.8</ele>
        <time>2021-05-20T13:59:44Z</time>
      </trkpt>
      <trkpt lat="46.75435" lon="5.59789">
        <ele>251.2</ele>
        <time>2021-05-20T13:59:49Z</time>
      </trkpt>
      <trkpt lat="46.75432" lon="5.59795">
        <ele>250.6</ele>
        <time>2021-05-20T13:59:54Z</time>
      </trkpt>
      <trkpt lat="46.75429" lon="5.59799">
        <ele>251</ele>
        <time>2021-05-20T13:59:58Z</time>
      </trkpt>
      <trkpt lat="46.75426" lon="5.59806">
        <ele>251.3</ele>
        <time>2021-05-20T14:00:03Z</time>
      </trkpt>
      <trkpt lat="46.75424" lon="5.59812">
        <ele>251.1</ele>
        <time>2021-05-20T14:00:07Z</time>
      </trkpt>
      <trkpt lat="46.75422" lon="5.59819">
        <ele>251.1</ele>
        <time>2021-05-20T14:00:12Z</time>
      </trkpt>
      <trkpt lat="46.75419" lon="5.59826">
        <ele>251.4</ele>
        <time>2021-05-20T14:00:17Z</time>
      </trkpt>
      <trkpt lat="46.75416" lon="5.59831">
        <ele>251.8</ele>
        <time>2021-05-20T14:00:22Z</time>
      </trkpt>
      <trkpt lat="46.75413" lon="5.59837">
        <ele>251.9</ele>
        <time>2021-05-20T14:00:27Z</time>
      </trkpt>
      <trkpt lat="46.7541" lon="5.59842">
        <ele>252.2</ele>
        <time>2021-05-20T14:00:32Z</time>
      </trkpt>
      <trkpt lat="46.75408" lon="5.59848">
        <ele>252.8</ele>
        <time>2021-05-20T14:00:36Z</time>
      </trkpt>
      <trkpt lat="46.75405" lon="5.59853">
        <ele>253.2</ele>
        <time>2021-05-20T14:00:40Z</time>
      </trkpt>
      <trkpt lat="46.75402" lon="5.5986">
        <ele>253.5</ele>
        <time>2021-05-20T14:00:45Z</time>
      </trkpt>
      <trkpt lat="46.754" lon="5.59866">
        <ele>253.8</ele>
        <time>2021-05-20T14:00:50Z</time>
      </trkpt>
      <trkpt lat="46.75397" lon="5.59872">
        <ele>254.8</ele>
        <time>2021-05-20T14:00:55Z</time>
      </trkpt>
      <trkpt lat="46.75394" lon="5.59878">
        <ele>256.3</ele>
        <time>2021-05-20T14:01:00Z</time>
      </trkpt>
      <trkpt lat="46.75391" lon="5.59885">
        <ele>257.8</ele>
        <time>2021-05-20T14:01:05Z</time>
      </trkpt>
      <trkpt lat="46.75388" lon="5.5989">
        <ele>258.5</ele>
        <time>2021-05-20T14:01:09Z</time>
      </trkpt>
      <trkpt lat="46.75385" lon="5.59895">
        <ele>258.7</ele>
        <time>2021-05-20T14:01:13Z</time>
      </trkpt>
      <trkpt lat="46.75383" lon="5.59902">
        <ele>258.8</ele>
        <time>2021-05-20T14:01:18Z</time>
      </trkpt>
      <trkpt lat="46.75381" lon="5.59909">
        <ele>259.6</ele>
        <time>2021-05-20T14:01:23Z</time>
      </trkpt>
      <trkpt lat="46.75379" lon="5.59916">
        <ele>260.9</ele>
        <time>2021-05-20T14:01:27Z</time>
      </trkpt>
      <trkpt lat="46.75378" lon="5.59923">
        <ele>262.8</ele>
        <time>2021-05-20T14:01:32Z</time>
      </trkpt>
      <trkpt lat="46.75377" lon="5.5993">
        <ele>264.4</ele>
        <time>2021-05-20T14:01:37Z</time>
      </trkpt>
      <trkpt lat="46.75379" lon="5.59937">
        <ele>265.6</ele>
        <time>2021-05-20T14:01:41Z</time>
      </trkpt>
      <trkpt lat="46.75379" lon="5.59944">
        <ele>266.8</ele>
        <time>2021-05-20T14:01:46Z</time>
      </trkpt>
      <trkpt lat="46.75379" lon="5.59951">
        <ele>267.8</ele>
        <time>2021-05-20T14:01:51Z</time>
      </trkpt>
      <trkpt lat="46.75378" lon="5.59959">
        <ele>268.6</ele>
        <time>2021-05-20T14:01:56Z</time>
      </trkpt>
      <trkpt lat="46.75379" lon="5.59966">
        <ele>269.3</ele>
        <time>2021-05-20T14:02:00Z</time>
      </trkpt>
      <trkpt lat="46.75377" lon="5.59972">
        <ele>269.6</ele>
        <time>2021-05-20T14:02:06Z</time>
      </trkpt>
      <trkpt lat="46.75376" lon="5.5998">
        <ele>269.1</ele>
        <time>2021-05-20T14:02:11Z</time>
      </trkpt>
      <trkpt lat="46.75374" lon="5.59987">
        <ele>268.5</ele>
        <time>2021-05-20T14:02:16Z</time>
      </trkpt>
      <trkpt lat="46.7537" lon="5.59991">
        <ele>267.9</ele>
        <time>2021-05-20T14:02:21Z</time>
      </trkpt>
      <trkpt lat="46.75366" lon="5.59996">
        <ele>268.1</ele>
        <time>2021-05-20T14:02:26Z</time>
      </trkpt>
      <trkpt lat="46.75363" lon="5.60002">
        <ele>268.8</ele>
        <time>2021-05-20T14:02:32Z</time>
      </trkpt>
      <trkpt lat="46.7536" lon="5.60008">
        <ele>269.7</ele>
        <time>2021-05-20T14:02:37Z</time>
      </trkpt>
      <trkpt lat="46.75355" lon="5.60012">
        <ele>270.4</ele>
        <time>2021-05-20T14:02:42Z</time>
      </trkpt>
      <trkpt lat="46.75351" lon="5.60016">
        <ele>270.2</ele>
        <time>2021-05-20T14:02:48Z</time>
      </trkpt>
      <trkpt lat="46.75346" lon="5.60018">
        <ele>268.8</ele>
        <time>2021-05-20T14:02:55Z</time>
      </trkpt>
      <trkpt lat="46.75341" lon="5.6002">
        <ele>267.6</ele>
        <time>2021-05-20T14:03:00Z</time>
      </trkpt>
      <trkpt lat="46.75336" lon="5.60022">
        <ele>266.8</ele>
        <time>2021-05-20T14:03:04Z</time>
      </trkpt>
      <trkpt lat="46.75331" lon="5.60021">
        <ele>265.8</ele>
        <time>2021-05-20T14:03:10Z</time>
      </trkpt>
      <trkpt lat="46.75326" lon="5.60018">
        <ele>265.5</ele>
        <time>2021-05-20T14:03:15Z</time>
      </trkpt>
      <trkpt lat="46.75322" lon="5.60015">
        <ele>265.5</ele>
        <time>2021-05-20T14:03:20Z</time>
      </trkpt>
      <trkpt lat="46.75317" lon="5.60011">
        <ele>265.5</ele>
        <time>2021-05-20T14:03:25Z</time>
      </trkpt>
      <trkpt lat="46.75312" lon="5.60007">
        <ele>265.3</ele>
        <time>2021-05-20T14:03:31Z</time>
      </trkpt>
      <trkpt lat="46.75308" lon="5.60005">
        <ele>265.7</ele>
        <time>2021-05-20T14:03:36Z</time>
      </trkpt>
      <trkpt lat="46.75302" lon="5.60004">
        <ele>266.8</ele>
        <time>2021-05-20T14:03:41Z</time>
      </trkpt>
      <trkpt lat="46.75297" lon="5.60001">
        <ele>267.8</ele>
        <time>2021-05-20T14:03:45Z</time>
      </trkpt>
      <trkpt lat="46.75291" lon="5.59998">
        <ele>268.8</ele>
        <time>2021-05-20T14:03:49Z</time>
      </trkpt>
      <trkpt lat="46.75287" lon="5.59994">
        <ele>269.9</ele>
        <time>2021-05-20T14:03:54Z</time>
      </trkpt>
      <trkpt lat="46.75283" lon="5.59989">
        <ele>270.7</ele>
        <time>2021-05-20T14:03:58Z</time>
      </trkpt>
      <trkpt lat="46.75279" lon="5.59985">
        <ele>271.6</ele>
        <time>2021-05-20T14:04:03Z</time>
      </trkpt>
      <trkpt lat="46.75275" lon="5.59981">
        <ele>272.3</ele>
        <time>2021-05-20T14:04:08Z</time>
      </trkpt>
      <trkpt lat="46.75271" lon="5.59977">
        <ele>272.9</ele>
        <time>2021-05-20T14:04:13Z</time>
      </trkpt>
      <trkpt lat="46.75266" lon="5.59975">
        <ele>273.3</ele>
        <time>2021-05-20T14:04:18Z</time>
      </trkpt>
      <trkpt lat="46.75262" lon="5.59974">
        <ele>273.2</ele>
        <time>2021-05-20T14:04:24Z</time>
      </trkpt>
      <trkpt lat="46.75257" lon="5.59973">
        <ele>273</ele>
        <time>2021-05-20T14:04:29Z</time>
      </trkpt>
      <trkpt lat="46.75253" lon="5.59969">
        <ele>272.7</ele>
        <time>2021-05-20T14:04:33Z</time>
      </trkpt>
      <trkpt lat="46.75247" lon="5.59965">
        <ele>272.3</ele>
        <time>2021-05-20T14:04:37Z</time>
      </trkpt>
      <trkpt lat="46.75244" lon="5.59962">
        <ele>272.1</ele>
        <time>2021-05-20T14:04:41Z</time>
      </trkpt>
      <trkpt lat="46.75238" lon="5.5996">
        <ele>272.4</ele>
        <time>2021-05-20T14:04:45Z</time>
      </trkpt>
      <trkpt lat="46.75234" lon="5.59956">
        <ele>272.8</ele>
        <time>2021-05-20T14:04:50Z</time>
      </trkpt>
      <trkpt lat="46.7523" lon="5.59953">
        <ele>273</ele>
        <time>2021-05-20T14:04:54Z</time>
      </trkpt>
      <trkpt lat="46.75226" lon="5.59948">
        <ele>273.2</ele>
        <time>2021-05-20T14:04:58Z</time>
      </trkpt>
      <trkpt lat="46.75223" lon="5.59942">
        <ele>273.1</ele>
        <time>2021-05-20T14:05:04Z</time>
      </trkpt>
      <trkpt lat="46.75219" lon="5.5994">
        <ele>272.7</ele>
        <time>2021-05-20T14:05:09Z</time>
      </trkpt>
      <trkpt lat="46.75213" lon="5.59937">
        <ele>272.4</ele>
        <time>2021-05-20T14:05:14Z</time>
      </trkpt>
      <trkpt lat="46.7521" lon="5.59933">
        <ele>272.7</ele>
        <time>2021-05-20T14:05:44Z</time>
      </trkpt>
      <trkpt lat="46.75205" lon="5.59932">
        <ele>272</ele>
        <time>2021-05-20T14:06:13Z</time>
      </trkpt>
      <trkpt lat="46.752" lon="5.5993">
        <ele>271.3</ele>
        <time>2021-05-20T14:06:20Z</time>
      </trkpt>
      <trkpt lat="46.75198" lon="5.59936">
        <ele>270.6</ele>
        <time>2021-05-20T14:07:18Z</time>
      </trkpt>
      <trkpt lat="46.75194" lon="5.59939">
        <ele>270.7</ele>
        <time>2021-05-20T14:07:24Z</time>
      </trkpt>
      <trkpt lat="46.75193" lon="5.59946">
        <ele>274.5</ele>
        <time>2021-05-20T14:08:15Z</time>
      </trkpt>
      <trkpt lat="46.75197" lon="5.59942">
        <ele>276.5</ele>
        <time>2021-05-20T14:09:23Z</time>
      </trkpt>
      <trkpt lat="46.75202" lon="5.5994">
        <ele>276.1</ele>
        <time>2021-05-20T14:09:29Z</time>
      </trkpt>
      <trkpt lat="46.75207" lon="5.5994">
        <ele>275.8</ele>
        <time>2021-05-20T14:09:34Z</time>
      </trkpt>
      <trkpt lat="46.75213" lon="5.59939">
        <ele>275.2</ele>
        <time>2021-05-20T14:09:38Z</time>
      </trkpt>
      <trkpt lat="46.75219" lon="5.5994">
        <ele>274.4</ele>
        <time>2021-05-20T14:09:42Z</time>
      </trkpt>
      <trkpt lat="46.75223" lon="5.59939">
        <ele>273.7</ele>
        <time>2021-05-20T14:09:46Z</time>
      </trkpt>
      <trkpt lat="46.75218" lon="5.59943">
        <ele>272.5</ele>
        <time>2021-05-20T14:10:43Z</time>
      </trkpt>
      <trkpt lat="46.75213" lon="5.59941">
        <ele>272.4</ele>
        <time>2021-05-20T14:10:48Z</time>
      </trkpt>
      <trkpt lat="46.75209" lon="5.59939">
        <ele>272.4</ele>
        <time>2021-05-20T14:10:54Z</time>
      </trkpt>
      <trkpt lat="46.75204" lon="5.59942">
        <ele>273</ele>
        <time>2021-05-20T14:11:02Z</time>
      </trkpt>
      <trkpt lat="46.75199" lon="5.59945">
        <ele>273.7</ele>
        <time>2021-05-20T14:11:06Z</time>
      </trkpt>
      <trkpt lat="46.75195" lon="5.59948">
        <ele>274.2</ele>
        <time>2021-05-20T14:11:10Z</time>
      </trkpt>
      <trkpt lat="46.75193" lon="5.59955">
        <ele>274.7</ele>
        <time>2021-05-20T14:11:14Z</time>
      </trkpt>
      <trkpt lat="46.7519" lon="5.5996">
        <ele>274.9</ele>
        <time>2021-05-20T14:11:19Z</time>
      </trkpt>
      <trkpt lat="46.75188" lon="5.59967">
        <ele>273.9</ele>
        <time>2021-05-20T14:11:27Z</time>
      </trkpt>
      <trkpt lat="46.75189" lon="5.59974">
        <ele>272.7</ele>
        <time>2021-05-20T14:11:33Z</time>
      </trkpt>
      <trkpt lat="46.75192" lon="5.5998">
        <ele>271.6</ele>
        <time>2021-05-20T14:11:38Z</time>
      </trkpt>
      <trkpt lat="46.75196" lon="5.59985">
        <ele>270.5</ele>
        <time>2021-05-20T14:11:43Z</time>
      </trkpt>
      <trkpt lat="46.75199" lon="5.59992">
        <ele>268.8</ele>
        <time>2021-05-20T14:11:48Z</time>
      </trkpt>
      <trkpt lat="46.75201" lon="5.59999">
        <ele>266.7</ele>
        <time>2021-05-20T14:11:53Z</time>
      </trkpt>
      <trkpt lat="46.75202" lon="5.60005">
        <ele>265.2</ele>
        <time>2021-05-20T14:11:57Z</time>
      </trkpt>
      <trkpt lat="46.75203" lon="5.60013">
        <ele>263.7</ele>
        <time>2021-05-20T14:12:02Z</time>
      </trkpt>
      <trkpt lat="46.75204" lon="5.60019">
        <ele>262.6</ele>
        <time>2021-05-20T14:12:07Z</time>
      </trkpt>
      <trkpt lat="46.75205" lon="5.60027">
        <ele>262</ele>
        <time>2021-05-20T14:12:12Z</time>
      </trkpt>
      <trkpt lat="46.75203" lon="5.60034">
        <ele>261.7</ele>
        <time>2021-05-20T14:12:18Z</time>
      </trkpt>
      <trkpt lat="46.75199" lon="5.60037">
        <ele>262.1</ele>
        <time>2021-05-20T14:12:24Z</time>
      </trkpt>
      <trkpt lat="46.75194" lon="5.60035">
        <ele>263.2</ele>
        <time>2021-05-20T14:12:30Z</time>
      </trkpt>
      <trkpt lat="46.75189" lon="5.60034">
        <ele>264.1</ele>
        <time>2021-05-20T14:12:36Z</time>
      </trkpt>
      <trkpt lat="46.75184" lon="5.60032">
        <ele>264.7</ele>
        <time>2021-05-20T14:12:41Z</time>
      </trkpt>
      <trkpt lat="46.75179" lon="5.60032">
        <ele>265.2</ele>
        <time>2021-05-20T14:12:45Z</time>
      </trkpt>
      <trkpt lat="46.75173" lon="5.60032">
        <ele>265.9</ele>
        <time>2021-05-20T14:12:50Z</time>
      </trkpt>
      <trkpt lat="46.75168" lon="5.60032">
        <ele>266.5</ele>
        <time>2021-05-20T14:12:54Z</time>
      </trkpt>
      <trkpt lat="46.75163" lon="5.60033">
        <ele>267.6</ele>
        <time>2021-05-20T14:12:59Z</time>
      </trkpt>
      <trkpt lat="46.75158" lon="5.60034">
        <ele>268.8</ele>
        <time>2021-05-20T14:13:04Z</time>
      </trkpt>
      <trkpt lat="46.75154" lon="5.60034">
        <ele>269.7</ele>
        <time>2021-05-20T14:13:09Z</time>
      </trkpt>
      <trkpt lat="46.75148" lon="5.60034">
        <ele>270.6</ele>
        <time>2021-05-20T14:13:14Z</time>
      </trkpt>
      <trkpt lat="46.75143" lon="5.60034">
        <ele>271.7</ele>
        <time>2021-05-20T14:13:19Z</time>
      </trkpt>
      <trkpt lat="46.75138" lon="5.60034">
        <ele>272.6</ele>
        <time>2021-05-20T14:13:25Z</time>
      </trkpt>
      <trkpt lat="46.75133" lon="5.60034">
        <ele>272.8</ele>
        <time>2021-05-20T14:13:29Z</time>
      </trkpt>
      <trkpt lat="46.75128" lon="5.60033">
        <ele>273</ele>
        <time>2021-05-20T14:13:33Z</time>
      </trkpt>
      <trkpt lat="46.75123" lon="5.60033">
        <ele>273.5</ele>
        <time>2021-05-20T14:13:38Z</time>
      </trkpt>
      <trkpt lat="46.75117" lon="5.60033">
        <ele>274</ele>
        <time>2021-05-20T14:13:43Z</time>
      </trkpt>
      <trkpt lat="46.75112" lon="5.60032">
        <ele>274.3</ele>
        <time>2021-05-20T14:13:47Z</time>
      </trkpt>
      <trkpt lat="46.75107" lon="5.60031">
        <ele>274.5</ele>
        <time>2021-05-20T14:13:51Z</time>
      </trkpt>
      <trkpt lat="46.75102" lon="5.60028">
        <ele>274.5</ele>
        <time>2021-05-20T14:13:55Z</time>
      </trkpt>
      <trkpt lat="46.75097" lon="5.60027">
        <ele>274.9</ele>
        <time>2021-05-20T14:14:00Z</time>
      </trkpt>
      <trkpt lat="46.75092" lon="5.60027">
        <ele>275.5</ele>
        <time>2021-05-20T14:14:05Z</time>
      </trkpt>
      <trkpt lat="46.75086" lon="5.60026">
        <ele>275.8</ele>
        <time>2021-05-20T14:14:10Z</time>
      </trkpt>
      <trkpt lat="46.75081" lon="5.60024">
        <ele>275.8</ele>
        <time>2021-05-20T14:14:15Z</time>
      </trkpt>
      <trkpt lat="46.75076" lon="5.60022">
        <ele>275.9</ele>
        <time>2021-05-20T14:14:20Z</time>
      </trkpt>
      <trkpt lat="46.75072" lon="5.60021">
        <ele>276</ele>
        <time>2021-05-20T14:14:25Z</time>
      </trkpt>
      <trkpt lat="46.75067" lon="5.60021">
        <ele>275.8</ele>
        <time>2021-05-20T14:14:29Z</time>
      </trkpt>
      <trkpt lat="46.75062" lon="5.6002">
        <ele>275.9</ele>
        <time>2021-05-20T14:14:33Z</time>
      </trkpt>
      <trkpt lat="46.75057" lon="5.60019">
        <ele>276.2</ele>
        <time>2021-05-20T14:14:38Z</time>
      </trkpt>
      <trkpt lat="46.75052" lon="5.60019">
        <ele>276.7</ele>
        <time>2021-05-20T14:14:43Z</time>
      </trkpt>
      <trkpt lat="46.75048" lon="5.60018">
        <ele>277.2</ele>
        <time>2021-05-20T14:14:47Z</time>
      </trkpt>
      <trkpt lat="46.75043" lon="5.60018">
        <ele>277.5</ele>
        <time>2021-05-20T14:14:51Z</time>
      </trkpt>
      <trkpt lat="46.75038" lon="5.60017">
        <ele>277.9</ele>
        <time>2021-05-20T14:14:55Z</time>
      </trkpt>
      <trkpt lat="46.75033" lon="5.60017">
        <ele>278.5</ele>
        <time>2021-05-20T14:14:59Z</time>
      </trkpt>
      <trkpt lat="46.75028" lon="5.60017">
        <ele>279</ele>
        <time>2021-05-20T14:15:03Z</time>
      </trkpt>
      <trkpt lat="46.75023" lon="5.60017">
        <ele>279.8</ele>
        <time>2021-05-20T14:15:08Z</time>
      </trkpt>
      <trkpt lat="46.75018" lon="5.60016">
        <ele>280.3</ele>
        <time>2021-05-20T14:15:12Z</time>
      </trkpt>
      <trkpt lat="46.75013" lon="5.60015">
        <ele>280.9</ele>
        <time>2021-05-20T14:15:17Z</time>
      </trkpt>
      <trkpt lat="46.75008" lon="5.60013">
        <ele>281.6</ele>
        <time>2021-05-20T14:15:23Z</time>
      </trkpt>
      <trkpt lat="46.75003" lon="5.60013">
        <ele>281.8</ele>
        <time>2021-05-20T14:15:27Z</time>
      </trkpt>
      <trkpt lat="46.74999" lon="5.60012">
        <ele>282.1</ele>
        <time>2021-05-20T14:15:31Z</time>
      </trkpt>
      <trkpt lat="46.74994" lon="5.6001">
        <ele>282.3</ele>
        <time>2021-05-20T14:15:35Z</time>
      </trkpt>
      <trkpt lat="46.74989" lon="5.60007">
        <ele>282.4</ele>
        <time>2021-05-20T14:15:40Z</time>
      </trkpt>
      <trkpt lat="46.74984" lon="5.60004">
        <ele>282.8</ele>
        <time>2021-05-20T14:15:45Z</time>
      </trkpt>
      <trkpt lat="46.74979" lon="5.60002">
        <ele>283</ele>
        <time>2021-05-20T14:15:49Z</time>
      </trkpt>
      <trkpt lat="46.74973" lon="5.6">
        <ele>283.5</ele>
        <time>2021-05-20T14:15:54Z</time>
      </trkpt>
      <trkpt lat="46.74968" lon="5.59997">
        <ele>283.6</ele>
        <time>2021-05-20T14:15:59Z</time>
      </trkpt>
      <trkpt lat="46.74964" lon="5.59994">
        <ele>283.5</ele>
        <time>2021-05-20T14:16:03Z</time>
      </trkpt>
      <trkpt lat="46.74958" lon="5.59991">
        <ele>283.8</ele>
        <time>2021-05-20T14:16:08Z</time>
      </trkpt>
      <trkpt lat="46.74954" lon="5.59988">
        <ele>283.9</ele>
        <time>2021-05-20T14:16:12Z</time>
      </trkpt>
      <trkpt lat="46.7495" lon="5.59984">
        <ele>284.2</ele>
        <time>2021-05-20T14:16:16Z</time>
      </trkpt>
      <trkpt lat="46.74946" lon="5.5998">
        <ele>284.4</ele>
        <time>2021-05-20T14:16:20Z</time>
      </trkpt>
      <trkpt lat="46.74942" lon="5.59978">
        <ele>284.5</ele>
        <time>2021-05-20T14:16:24Z</time>
      </trkpt>
      <trkpt lat="46.74937" lon="5.59974">
        <ele>284.8</ele>
        <time>2021-05-20T14:16:29Z</time>
      </trkpt>
      <trkpt lat="46.74933" lon="5.59972">
        <ele>285.1</ele>
        <time>2021-05-20T14:16:35Z</time>
      </trkpt>
      <trkpt lat="46.74928" lon="5.59968">
        <ele>285.2</ele>
        <time>2021-05-20T14:16:40Z</time>
      </trkpt>
      <trkpt lat="46.74922" lon="5.59967">
        <ele>285.4</ele>
        <time>2021-05-20T14:16:44Z</time>
      </trkpt>
      <trkpt lat="46.74917" lon="5.59965">
        <ele>285.7</ele>
        <time>2021-05-20T14:16:48Z</time>
      </trkpt>
      <trkpt lat="46.74912" lon="5.59963">
        <ele>285.8</ele>
        <time>2021-05-20T14:16:52Z</time>
      </trkpt>
      <trkpt lat="46.74907" lon="5.59962">
        <ele>286</ele>
        <time>2021-05-20T14:16:56Z</time>
      </trkpt>
      <trkpt lat="46.74903" lon="5.5996">
        <ele>286</ele>
        <time>2021-05-20T14:17:00Z</time>
      </trkpt>
      <trkpt lat="46.74899" lon="5.59958">
        <ele>286</ele>
        <time>2021-05-20T14:17:04Z</time>
      </trkpt>
      <trkpt lat="46.74894" lon="5.59956">
        <ele>286.3</ele>
        <time>2021-05-20T14:17:09Z</time>
      </trkpt>
      <trkpt lat="46.74888" lon="5.59955">
        <ele>286.3</ele>
        <time>2021-05-20T14:17:14Z</time>
      </trkpt>
      <trkpt lat="46.74884" lon="5.59954">
        <ele>286.3</ele>
        <time>2021-05-20T14:17:18Z</time>
      </trkpt>
      <trkpt lat="46.74879" lon="5.59952">
        <ele>286.4</ele>
        <time>2021-05-20T14:17:23Z</time>
      </trkpt>
      <trkpt lat="46.74874" lon="5.59949">
        <ele>286</ele>
        <time>2021-05-20T14:17:30Z</time>
      </trkpt>
      <trkpt lat="46.7487" lon="5.59947">
        <ele>285.7</ele>
        <time>2021-05-20T14:17:35Z</time>
      </trkpt>
      <trkpt lat="46.74865" lon="5.59945">
        <ele>285.6</ele>
        <time>2021-05-20T14:17:39Z</time>
      </trkpt>
      <trkpt lat="46.7486" lon="5.59944">
        <ele>285.6</ele>
        <time>2021-05-20T14:17:44Z</time>
      </trkpt>
      <trkpt lat="46.74855" lon="5.59942">
        <ele>285.8</ele>
        <time>2021-05-20T14:17:49Z</time>
      </trkpt>
      <trkpt lat="46.7485" lon="5.59941">
        <ele>285.7</ele>
        <time>2021-05-20T14:17:54Z</time>
      </trkpt>
      <trkpt lat="46.74846" lon="5.59938">
        <ele>285.3</ele>
        <time>2021-05-20T14:17:59Z</time>
      </trkpt>
      <trkpt lat="46.7484" lon="5.59936">
        <ele>284.7</ele>
        <time>2021-05-20T14:18:04Z</time>
      </trkpt>
      <trkpt lat="46.74835" lon="5.59934">
        <ele>284.2</ele>
        <time>2021-05-20T14:18:09Z</time>
      </trkpt>
      <trkpt lat="46.74831" lon="5.59932">
        <ele>284.5</ele>
        <time>2021-05-20T14:18:13Z</time>
      </trkpt>
      <trkpt lat="46.74826" lon="5.5993">
        <ele>284.9</ele>
        <time>2021-05-20T14:18:17Z</time>
      </trkpt>
      <trkpt lat="46.74822" lon="5.59927">
        <ele>285.5</ele>
        <time>2021-05-20T14:18:22Z</time>
      </trkpt>
      <trkpt lat="46.74817" lon="5.59925">
        <ele>285.8</ele>
        <time>2021-05-20T14:18:26Z</time>
      </trkpt>
      <trkpt lat="46.74813" lon="5.59924">
        <ele>286</ele>
        <time>2021-05-20T14:18:30Z</time>
      </trkpt>
      <trkpt lat="46.74807" lon="5.59923">
        <ele>286.2</ele>
        <time>2021-05-20T14:18:35Z</time>
      </trkpt>
      <trkpt lat="46.74802" lon="5.59921">
        <ele>286</ele>
        <time>2021-05-20T14:18:40Z</time>
      </trkpt>
      <trkpt lat="46.74796" lon="5.5992">
        <ele>286.2</ele>
        <time>2021-05-20T14:18:45Z</time>
      </trkpt>
      <trkpt lat="46.74792" lon="5.59919">
        <ele>286.4</ele>
        <time>2021-05-20T14:18:49Z</time>
      </trkpt>
      <trkpt lat="46.74787" lon="5.59918">
        <ele>286.5</ele>
        <time>2021-05-20T14:18:53Z</time>
      </trkpt>
      <trkpt lat="46.74781" lon="5.59916">
        <ele>286.7</ele>
        <time>2021-05-20T14:18:57Z</time>
      </trkpt>
      <trkpt lat="46.74776" lon="5.59914">
        <ele>286.9</ele>
        <time>2021-05-20T14:19:02Z</time>
      </trkpt>
      <trkpt lat="46.74771" lon="5.59911">
        <ele>286.9</ele>
        <time>2021-05-20T14:19:07Z</time>
      </trkpt>
      <trkpt lat="46.74767" lon="5.5991">
        <ele>286.9</ele>
        <time>2021-05-20T14:19:11Z</time>
      </trkpt>
      <trkpt lat="46.74762" lon="5.59908">
        <ele>286.7</ele>
        <time>2021-05-20T14:19:15Z</time>
      </trkpt>
      <trkpt lat="46.74758" lon="5.59906">
        <ele>285.9</ele>
        <time>2021-05-20T14:19:20Z</time>
      </trkpt>
      <trkpt lat="46.74753" lon="5.59903">
        <ele>284.8</ele>
        <time>2021-05-20T14:19:25Z</time>
      </trkpt>
      <trkpt lat="46.74748" lon="5.59901">
        <ele>283.9</ele>
        <time>2021-05-20T14:19:30Z</time>
      </trkpt>
      <trkpt lat="46.74743" lon="5.59899">
        <ele>283.2</ele>
        <time>2021-05-20T14:19:35Z</time>
      </trkpt>
      <trkpt lat="46.74737" lon="5.59897">
        <ele>282.9</ele>
        <time>2021-05-20T14:19:40Z</time>
      </trkpt>
      <trkpt lat="46.74732" lon="5.59896">
        <ele>282.7</ele>
        <time>2021-05-20T14:19:44Z</time>
      </trkpt>
      <trkpt lat="46.74727" lon="5.59893">
        <ele>282.5</ele>
        <time>2021-05-20T14:19:49Z</time>
      </trkpt>
      <trkpt lat="46.74723" lon="5.59892">
        <ele>282.6</ele>
        <time>2021-05-20T14:19:53Z</time>
      </trkpt>
      <trkpt lat="46.74718" lon="5.59889">
        <ele>283.2</ele>
        <time>2021-05-20T14:19:58Z</time>
      </trkpt>
      <trkpt lat="46.74713" lon="5.59887">
        <ele>283.9</ele>
        <time>2021-05-20T14:20:03Z</time>
      </trkpt>
      <trkpt lat="46.74709" lon="5.59887">
        <ele>284.3</ele>
        <time>2021-05-20T14:20:07Z</time>
      </trkpt>
      <trkpt lat="46.74704" lon="5.59886">
        <ele>284.7</ele>
        <time>2021-05-20T14:20:11Z</time>
      </trkpt>
      <trkpt lat="46.74698" lon="5.59883">
        <ele>284.8</ele>
        <time>2021-05-20T14:20:16Z</time>
      </trkpt>
      <trkpt lat="46.74694" lon="5.59881">
        <ele>284.9</ele>
        <time>2021-05-20T14:20:21Z</time>
      </trkpt>
      <trkpt lat="46.74689" lon="5.59879">
        <ele>285</ele>
        <time>2021-05-20T14:20:25Z</time>
      </trkpt>
      <trkpt lat="46.74685" lon="5.59876">
        <ele>285.1</ele>
        <time>2021-05-20T14:20:29Z</time>
      </trkpt>
      <trkpt lat="46.7468" lon="5.59872">
        <ele>285.4</ele>
        <time>2021-05-20T14:20:34Z</time>
      </trkpt>
      <trkpt lat="46.74676" lon="5.59869">
        <ele>285.7</ele>
        <time>2021-05-20T14:20:38Z</time>
      </trkpt>
      <trkpt lat="46.74671" lon="5.59865">
        <ele>286.1</ele>
        <time>2021-05-20T14:20:43Z</time>
      </trkpt>
      <trkpt lat="46.74667" lon="5.59862">
        <ele>286.2</ele>
        <time>2021-05-20T14:20:48Z</time>
      </trkpt>
      <trkpt lat="46.74662" lon="5.59859">
        <ele>286</ele>
        <time>2021-05-20T14:20:53Z</time>
      </trkpt>
      <trkpt lat="46.74657" lon="5.59859">
        <ele>285.7</ele>
        <time>2021-05-20T14:21:05Z</time>
      </trkpt>
      <trkpt lat="46.74652" lon="5.59857">
        <ele>285.3</ele>
        <time>2021-05-20T14:21:11Z</time>
      </trkpt>
      <trkpt lat="46.74647" lon="5.59854">
        <ele>285</ele>
        <time>2021-05-20T14:21:16Z</time>
      </trkpt>
      <trkpt lat="46.74643" lon="5.59851">
        <ele>285.1</ele>
        <time>2021-05-20T14:21:34Z</time>
      </trkpt>
      <trkpt lat="46.74639" lon="5.59849">
        <ele>285.6</ele>
        <time>2021-05-20T14:21:46Z</time>
      </trkpt>
      <trkpt lat="46.74634" lon="5.59847">
        <ele>285.7</ele>
        <time>2021-05-20T14:21:51Z</time>
      </trkpt>
      <trkpt lat="46.74629" lon="5.59846">
        <ele>285.8</ele>
        <time>2021-05-20T14:21:56Z</time>
      </trkpt>
      <trkpt lat="46.74624" lon="5.59843">
        <ele>285.7</ele>
        <time>2021-05-20T14:22:01Z</time>
      </trkpt>
      <trkpt lat="46.74619" lon="5.59841">
        <ele>285.6</ele>
        <time>2021-05-20T14:22:06Z</time>
      </trkpt>
      <trkpt lat="46.74615" lon="5.5984">
        <ele>285.6</ele>
        <time>2021-05-20T14:22:10Z</time>
      </trkpt>
      <trkpt lat="46.7461" lon="5.59839">
        <ele>285.8</ele>
        <time>2021-05-20T14:22:14Z</time>
      </trkpt>
      <trkpt lat="46.74605" lon="5.59838">
        <ele>286.4</ele>
        <time>2021-05-20T14:22:19Z</time>
      </trkpt>
      <trkpt lat="46.746" lon="5.59836">
        <ele>286.9</ele>
        <time>2021-05-20T14:22:25Z</time>
      </trkpt>
      <trkpt lat="46.74595" lon="5.59835">
        <ele>287.3</ele>
        <time>2021-05-20T14:22:30Z</time>
      </trkpt>
      <trkpt lat="46.7459" lon="5.59834">
        <ele>287.3</ele>
        <time>2021-05-20T14:22:35Z</time>
      </trkpt>
      <trkpt lat="46.74586" lon="5.59832">
        <ele>287.3</ele>
        <time>2021-05-20T14:22:42Z</time>
      </trkpt>
      <trkpt lat="46.74581" lon="5.5983">
        <ele>287.2</ele>
        <time>2021-05-20T14:22:48Z</time>
      </trkpt>
      <trkpt lat="46.74576" lon="5.5983">
        <ele>287.5</ele>
        <time>2021-05-20T14:22:54Z</time>
      </trkpt>
      <trkpt lat="46.74572" lon="5.59827">
        <ele>285.6</ele>
        <time>2021-05-20T14:23:40Z</time>
      </trkpt>
      <trkpt lat="46.74566" lon="5.59826">
        <ele>284.6</ele>
        <time>2021-05-20T14:23:45Z</time>
      </trkpt>
      <trkpt lat="46.74561" lon="5.59825">
        <ele>283.8</ele>
        <time>2021-05-20T14:23:50Z</time>
      </trkpt>
      <trkpt lat="46.74557" lon="5.59825">
        <ele>283.7</ele>
        <time>2021-05-20T14:23:55Z</time>
      </trkpt>
      <trkpt lat="46.74552" lon="5.59824">
        <ele>283.1</ele>
        <time>2021-05-20T14:24:00Z</time>
      </trkpt>
      <trkpt lat="46.74547" lon="5.59823">
        <ele>283.5</ele>
        <time>2021-05-20T14:24:06Z</time>
      </trkpt>
      <trkpt lat="46.74542" lon="5.59823">
        <ele>284.3</ele>
        <time>2021-05-20T14:24:14Z</time>
      </trkpt>
      <trkpt lat="46.74537" lon="5.59824">
        <ele>284.4</ele>
        <time>2021-05-20T14:24:20Z</time>
      </trkpt>
      <trkpt lat="46.74533" lon="5.59824">
        <ele>283.9</ele>
        <time>2021-05-20T14:24:25Z</time>
      </trkpt>
      <trkpt lat="46.74528" lon="5.59825">
        <ele>282.6</ele>
        <time>2021-05-20T14:24:31Z</time>
      </trkpt>
      <trkpt lat="46.74524" lon="5.59825">
        <ele>283.2</ele>
        <time>2021-05-20T14:24:35Z</time>
      </trkpt>
      <trkpt lat="46.74519" lon="5.59825">
        <ele>284</ele>
        <time>2021-05-20T14:24:39Z</time>
      </trkpt>
      <trkpt lat="46.74514" lon="5.59824">
        <ele>284.4</ele>
        <time>2021-05-20T14:24:44Z</time>
      </trkpt>
      <trkpt lat="46.74509" lon="5.59824">
        <ele>285.2</ele>
        <time>2021-05-20T14:25:02Z</time>
      </trkpt>
      <trkpt lat="46.74504" lon="5.59824">
        <ele>284.9</ele>
        <time>2021-05-20T14:25:07Z</time>
      </trkpt>
      <trkpt lat="46.745" lon="5.59823">
        <ele>284.4</ele>
        <time>2021-05-20T14:25:11Z</time>
      </trkpt>
      <trkpt lat="46.74495" lon="5.59824">
        <ele>284.3</ele>
        <time>2021-05-20T14:25:15Z</time>
      </trkpt>
      <trkpt lat="46.74491" lon="5.59823">
        <ele>284.4</ele>
        <time>2021-05-20T14:25:20Z</time>
      </trkpt>
      <trkpt lat="46.74485" lon="5.59824">
        <ele>284.2</ele>
        <time>2021-05-20T14:25:25Z</time>
      </trkpt>
      <trkpt lat="46.74481" lon="5.59823">
        <ele>284.1</ele>
        <time>2021-05-20T14:25:29Z</time>
      </trkpt>
      <trkpt lat="46.74475" lon="5.59821">
        <ele>284.3</ele>
        <time>2021-05-20T14:25:35Z</time>
      </trkpt>
      <trkpt lat="46.7447" lon="5.59821">
        <ele>285</ele>
        <time>2021-05-20T14:25:41Z</time>
      </trkpt>
      <trkpt lat="46.74466" lon="5.59821">
        <ele>285.7</ele>
        <time>2021-05-20T14:25:46Z</time>
      </trkpt>
      <trkpt lat="46.7446" lon="5.59821">
        <ele>286.8</ele>
        <time>2021-05-20T14:25:51Z</time>
      </trkpt>
      <trkpt lat="46.74455" lon="5.59819">
        <ele>287.5</ele>
        <time>2021-05-20T14:25:56Z</time>
      </trkpt>
      <trkpt lat="46.7445" lon="5.59818">
        <ele>288</ele>
        <time>2021-05-20T14:26:02Z</time>
      </trkpt>
      <trkpt lat="46.74445" lon="5.59817">
        <ele>288</ele>
        <time>2021-05-20T14:26:08Z</time>
      </trkpt>
      <trkpt lat="46.7444" lon="5.59817">
        <ele>288.1</ele>
        <time>2021-05-20T14:26:12Z</time>
      </trkpt>
      <trkpt lat="46.74435" lon="5.59818">
        <ele>288.1</ele>
        <time>2021-05-20T14:26:16Z</time>
      </trkpt>
      <trkpt lat="46.7443" lon="5.59817">
        <ele>288</ele>
        <time>2021-05-20T14:26:20Z</time>
      </trkpt>
      <trkpt lat="46.74426" lon="5.59815">
        <ele>287.8</ele>
        <time>2021-05-20T14:26:24Z</time>
      </trkpt>
      <trkpt lat="46.74418" lon="5.59816">
        <ele>288.9</ele>
        <time>2021-05-20T14:26:28Z</time>
      </trkpt>
      <trkpt lat="46.74412" lon="5.59816">
        <ele>289.1</ele>
        <time>2021-05-20T14:26:32Z</time>
      </trkpt>
      <trkpt lat="46.74407" lon="5.59815">
        <ele>289.3</ele>
        <time>2021-05-20T14:26:37Z</time>
      </trkpt>
      <trkpt lat="46.74402" lon="5.59814">
        <ele>289.7</ele>
        <time>2021-05-20T14:26:44Z</time>
      </trkpt>
      <trkpt lat="46.74397" lon="5.59813">
        <ele>289.9</ele>
        <time>2021-05-20T14:26:52Z</time>
      </trkpt>
      <trkpt lat="46.74392" lon="5.59814">
        <ele>289.9</ele>
        <time>2021-05-20T14:26:58Z</time>
      </trkpt>
      <trkpt lat="46.74387" lon="5.59817">
        <ele>290</ele>
        <time>2021-05-20T14:27:02Z</time>
      </trkpt>
      <trkpt lat="46.74381" lon="5.59818">
        <ele>289.8</ele>
        <time>2021-05-20T14:27:08Z</time>
      </trkpt>
      <trkpt lat="46.74376" lon="5.59816">
        <ele>289.9</ele>
        <time>2021-05-20T14:27:14Z</time>
      </trkpt>
      <trkpt lat="46.74371" lon="5.59817">
        <ele>290</ele>
        <time>2021-05-20T14:27:19Z</time>
      </trkpt>
      <trkpt lat="46.74366" lon="5.59819">
        <ele>290</ele>
        <time>2021-05-20T14:27:23Z</time>
      </trkpt>
      <trkpt lat="46.74355" lon="5.59826">
        <ele>292.9</ele>
        <time>2021-05-20T14:27:30Z</time>
      </trkpt>
      <trkpt lat="46.74346" lon="5.59832">
        <ele>295.8</ele>
        <time>2021-05-20T14:27:34Z</time>
      </trkpt>
      <trkpt lat="46.7434" lon="5.59834">
        <ele>297.4</ele>
        <time>2021-05-20T14:27:38Z</time>
      </trkpt>
      <trkpt lat="46.74335" lon="5.59834">
        <ele>298</ele>
        <time>2021-05-20T14:27:42Z</time>
      </trkpt>
      <trkpt lat="46.7433" lon="5.59835">
        <ele>298.2</ele>
        <time>2021-05-20T14:27:46Z</time>
      </trkpt>
      <trkpt lat="46.74324" lon="5.59837">
        <ele>298.2</ele>
        <time>2021-05-20T14:27:50Z</time>
      </trkpt>
      <trkpt lat="46.74319" lon="5.59839">
        <ele>297.9</ele>
        <time>2021-05-20T14:27:54Z</time>
      </trkpt>
      <trkpt lat="46.74314" lon="5.59838">
        <ele>297.4</ele>
        <time>2021-05-20T14:28:01Z</time>
      </trkpt>
      <trkpt lat="46.74312" lon="5.59832">
        <ele>295.9</ele>
        <time>2021-05-20T14:28:17Z</time>
      </trkpt>
      <trkpt lat="46.74308" lon="5.59828">
        <ele>294</ele>
        <time>2021-05-20T14:28:23Z</time>
      </trkpt>
      <trkpt lat="46.74304" lon="5.59825">
        <ele>292.1</ele>
        <time>2021-05-20T14:28:28Z</time>
      </trkpt>
      <trkpt lat="46.743" lon="5.59819">
        <ele>289.9</ele>
        <time>2021-05-20T14:28:33Z</time>
      </trkpt>
      <trkpt lat="46.74297" lon="5.59814">
        <ele>288.2</ele>
        <time>2021-05-20T14:28:37Z</time>
      </trkpt>
      <trkpt lat="46.74294" lon="5.59809">
        <ele>286.4</ele>
        <time>2021-05-20T14:28:42Z</time>
      </trkpt>
      <trkpt lat="46.7429" lon="5.59804">
        <ele>285.1</ele>
        <time>2021-05-20T14:28:47Z</time>
      </trkpt>
      <trkpt lat="46.74287" lon="5.59799">
        <ele>284.2</ele>
        <time>2021-05-20T14:28:56Z</time>
      </trkpt>
      <trkpt lat="46.74284" lon="5.59794">
        <ele>284.3</ele>
        <time>2021-05-20T14:29:01Z</time>
      </trkpt>
      <trkpt lat="46.74281" lon="5.59788">
        <ele>283.9</ele>
        <time>2021-05-20T14:29:06Z</time>
      </trkpt>
      <trkpt lat="46.74278" lon="5.59782">
        <ele>283.4</ele>
        <time>2021-05-20T14:29:11Z</time>
      </trkpt>
      <trkpt lat="46.74275" lon="5.59776">
        <ele>283.1</ele>
        <time>2021-05-20T14:29:16Z</time>
      </trkpt>
      <trkpt lat="46.74272" lon="5.59771">
        <ele>282.3</ele>
        <time>2021-05-20T14:29:21Z</time>
      </trkpt>
      <trkpt lat="46.74269" lon="5.59765">
        <ele>281.1</ele>
        <time>2021-05-20T14:29:27Z</time>
      </trkpt>
      <trkpt lat="46.74268" lon="5.59758">
        <ele>280.3</ele>
        <time>2021-05-20T14:29:40Z</time>
      </trkpt>
      <trkpt lat="46.74265" lon="5.59752">
        <ele>280.1</ele>
        <time>2021-05-20T14:29:45Z</time>
      </trkpt>
      <trkpt lat="46.74261" lon="5.59746">
        <ele>279.8</ele>
        <time>2021-05-20T14:29:51Z</time>
      </trkpt>
      <trkpt lat="46.74258" lon="5.59741">
        <ele>279.2</ele>
        <time>2021-05-20T14:29:57Z</time>
      </trkpt>
      <trkpt lat="46.74255" lon="5.59735">
        <ele>278.5</ele>
        <time>2021-05-20T14:30:02Z</time>
      </trkpt>
      <trkpt lat="46.74251" lon="5.59731">
        <ele>278</ele>
        <time>2021-05-20T14:30:15Z</time>
      </trkpt>
      <trkpt lat="46.74247" lon="5.59725">
        <ele>277.9</ele>
        <time>2021-05-20T14:30:22Z</time>
      </trkpt>
      <trkpt lat="46.74245" lon="5.59718">
        <ele>278.2</ele>
        <time>2021-05-20T14:30:27Z</time>
      </trkpt>
      <trkpt lat="46.74243" lon="5.59712">
        <ele>277.9</ele>
        <time>2021-05-20T14:30:32Z</time>
      </trkpt>
      <trkpt lat="46.7424" lon="5.59706">
        <ele>277.5</ele>
        <time>2021-05-20T14:30:37Z</time>
      </trkpt>
      <trkpt lat="46.74236" lon="5.597">
        <ele>277</ele>
        <time>2021-05-20T14:30:42Z</time>
      </trkpt>
      <trkpt lat="46.74232" lon="5.59697">
        <ele>276.6</ele>
        <time>2021-05-20T14:30:47Z</time>
      </trkpt>
      <trkpt lat="46.74227" lon="5.59696">
        <ele>276.1</ele>
        <time>2021-05-20T14:30:52Z</time>
      </trkpt>
      <trkpt lat="46.74222" lon="5.59695">
        <ele>274.7</ele>
        <time>2021-05-20T14:30:58Z</time>
      </trkpt>
      <trkpt lat="46.74215" lon="5.59692">
        <ele>273.4</ele>
        <time>2021-05-20T14:31:02Z</time>
      </trkpt>
      <trkpt lat="46.74215" lon="5.59701">
        <ele>271.4</ele>
        <time>2021-05-20T14:31:07Z</time>
      </trkpt>
      <trkpt lat="46.74217" lon="5.59711">
        <ele>269</ele>
        <time>2021-05-20T14:31:11Z</time>
      </trkpt>
      <trkpt lat="46.74217" lon="5.59717">
        <ele>266.3</ele>
        <time>2021-05-20T14:31:17Z</time>
      </trkpt>
      <trkpt lat="46.74213" lon="5.5972">
        <ele>266.3</ele>
        <time>2021-05-20T14:31:22Z</time>
      </trkpt>
      <trkpt lat="46.74207" lon="5.59726">
        <ele>267.3</ele>
        <time>2021-05-20T14:31:26Z</time>
      </trkpt>
      <trkpt lat="46.74202" lon="5.5973">
        <ele>268.3</ele>
        <time>2021-05-20T14:31:30Z</time>
      </trkpt>
      <trkpt lat="46.74198" lon="5.59734">
        <ele>269.7</ele>
        <time>2021-05-20T14:31:35Z</time>
      </trkpt>
      <trkpt lat="46.74194" lon="5.59739">
        <ele>271.3</ele>
        <time>2021-05-20T14:31:40Z</time>
      </trkpt>
      <trkpt lat="46.74189" lon="5.59744">
        <ele>272.5</ele>
        <time>2021-05-20T14:31:44Z</time>
      </trkpt>
      <trkpt lat="46.74186" lon="5.59749">
        <ele>273.4</ele>
        <time>2021-05-20T14:31:48Z</time>
      </trkpt>
      <trkpt lat="46.74181" lon="5.59754">
        <ele>274.4</ele>
        <time>2021-05-20T14:31:55Z</time>
      </trkpt>
      <trkpt lat="46.74177" lon="5.59758">
        <ele>274.4</ele>
        <time>2021-05-20T14:32:00Z</time>
      </trkpt>
      <trkpt lat="46.74173" lon="5.59763">
        <ele>274.5</ele>
        <time>2021-05-20T14:32:05Z</time>
      </trkpt>
      <trkpt lat="46.74169" lon="5.59767">
        <ele>274.8</ele>
        <time>2021-05-20T14:32:09Z</time>
      </trkpt>
      <trkpt lat="46.74165" lon="5.59773">
        <ele>275.7</ele>
        <time>2021-05-20T14:32:14Z</time>
      </trkpt>
      <trkpt lat="46.74162" lon="5.59778">
        <ele>276.8</ele>
        <time>2021-05-20T14:32:19Z</time>
      </trkpt>
      <trkpt lat="46.74159" lon="5.59783">
        <ele>277.5</ele>
        <time>2021-05-20T14:32:23Z</time>
      </trkpt>
      <trkpt lat="46.74156" lon="5.59788">
        <ele>278.1</ele>
        <time>2021-05-20T14:32:28Z</time>
      </trkpt>
      <trkpt lat="46.74153" lon="5.59795">
        <ele>278.2</ele>
        <time>2021-05-20T14:32:33Z</time>
      </trkpt>
      <trkpt lat="46.74151" lon="5.59801">
        <ele>278.5</ele>
        <time>2021-05-20T14:32:38Z</time>
      </trkpt>
      <trkpt lat="46.74147" lon="5.59807">
        <ele>279.2</ele>
        <time>2021-05-20T14:32:43Z</time>
      </trkpt>
      <trkpt lat="46.74144" lon="5.59813">
        <ele>279.6</ele>
        <time>2021-05-20T14:32:48Z</time>
      </trkpt>
      <trkpt lat="46.74142" lon="5.5982">
        <ele>279.9</ele>
        <time>2021-05-20T14:32:53Z</time>
      </trkpt>
      <trkpt lat="46.74139" lon="5.59825">
        <ele>280.1</ele>
        <time>2021-05-20T14:32:58Z</time>
      </trkpt>
      <trkpt lat="46.74137" lon="5.59831">
        <ele>280.3</ele>
        <time>2021-05-20T14:33:03Z</time>
      </trkpt>
      <trkpt lat="46.74134" lon="5.59838">
        <ele>280.8</ele>
        <time>2021-05-20T14:33:08Z</time>
      </trkpt>
      <trkpt lat="46.74132" lon="5.59845">
        <ele>281.2</ele>
        <time>2021-05-20T14:33:13Z</time>
      </trkpt>
      <trkpt lat="46.74131" lon="5.59853">
        <ele>281.6</ele>
        <time>2021-05-20T14:33:18Z</time>
      </trkpt>
      <trkpt lat="46.74129" lon="5.5986">
        <ele>281.5</ele>
        <time>2021-05-20T14:33:23Z</time>
      </trkpt>
      <trkpt lat="46.74128" lon="5.59866">
        <ele>281.8</ele>
        <time>2021-05-20T14:33:28Z</time>
      </trkpt>
      <trkpt lat="46.74126" lon="5.59873">
        <ele>281.8</ele>
        <time>2021-05-20T14:33:34Z</time>
      </trkpt>
      <trkpt lat="46.74126" lon="5.59879">
        <ele>281.6</ele>
        <time>2021-05-20T14:33:39Z</time>
      </trkpt>
      <trkpt lat="46.74127" lon="5.59886">
        <ele>281</ele>
        <time>2021-05-20T14:33:44Z</time>
      </trkpt>
      <trkpt lat="46.74127" lon="5.59893">
        <ele>280.8</ele>
        <time>2021-05-20T14:33:49Z</time>
      </trkpt>
      <trkpt lat="46.74127" lon="5.599">
        <ele>280.9</ele>
        <time>2021-05-20T14:33:54Z</time>
      </trkpt>
      <trkpt lat="46.74128" lon="5.59907">
        <ele>281.1</ele>
        <time>2021-05-20T14:33:58Z</time>
      </trkpt>
      <trkpt lat="46.74129" lon="5.59915">
        <ele>281.4</ele>
        <time>2021-05-20T14:34:03Z</time>
      </trkpt>
      <trkpt lat="46.74132" lon="5.59922">
        <ele>282.4</ele>
        <time>2021-05-20T14:34:08Z</time>
      </trkpt>
      <trkpt lat="46.74133" lon="5.59928">
        <ele>283.8</ele>
        <time>2021-05-20T14:34:14Z</time>
      </trkpt>
      <trkpt lat="46.74134" lon="5.59935">
        <ele>284.2</ele>
        <time>2021-05-20T14:34:19Z</time>
      </trkpt>
      <trkpt lat="46.74134" lon="5.59943">
        <ele>284.2</ele>
        <time>2021-05-20T14:34:24Z</time>
      </trkpt>
      <trkpt lat="46.74134" lon="5.5995">
        <ele>284.4</ele>
        <time>2021-05-20T14:34:29Z</time>
      </trkpt>
      <trkpt lat="46.74137" lon="5.59956">
        <ele>284.6</ele>
        <time>2021-05-20T14:34:41Z</time>
      </trkpt>
      <trkpt lat="46.74141" lon="5.59961">
        <ele>284.7</ele>
        <time>2021-05-20T14:34:46Z</time>
      </trkpt>
      <trkpt lat="46.74145" lon="5.59964">
        <ele>284.7</ele>
        <time>2021-05-20T14:34:51Z</time>
      </trkpt>
      <trkpt lat="46.7415" lon="5.59968">
        <ele>284.9</ele>
        <time>2021-05-20T14:34:55Z</time>
      </trkpt>
      <trkpt lat="46.74154" lon="5.59972">
        <ele>285.3</ele>
        <time>2021-05-20T14:35:01Z</time>
      </trkpt>
      <trkpt lat="46.74158" lon="5.59976">
        <ele>285.8</ele>
        <time>2021-05-20T14:35:06Z</time>
      </trkpt>
      <trkpt lat="46.74162" lon="5.59979">
        <ele>286.1</ele>
        <time>2021-05-20T14:35:10Z</time>
      </trkpt>
      <trkpt lat="46.74166" lon="5.59982">
        <ele>286.4</ele>
        <time>2021-05-20T14:35:14Z</time>
      </trkpt>
      <trkpt lat="46.74171" lon="5.59986">
        <ele>286.7</ele>
        <time>2021-05-20T14:35:19Z</time>
      </trkpt>
      <trkpt lat="46.74175" lon="5.5999">
        <ele>286.7</ele>
        <time>2021-05-20T14:35:24Z</time>
      </trkpt>
      <trkpt lat="46.7418" lon="5.59993">
        <ele>286.4</ele>
        <time>2021-05-20T14:35:29Z</time>
      </trkpt>
      <trkpt lat="46.74185" lon="5.59996">
        <ele>286.1</ele>
        <time>2021-05-20T14:35:34Z</time>
      </trkpt>
      <trkpt lat="46.74189" lon="5.6">
        <ele>285.6</ele>
        <time>2021-05-20T14:35:39Z</time>
      </trkpt>
      <trkpt lat="46.74193" lon="5.60004">
        <ele>285.1</ele>
        <time>2021-05-20T14:35:44Z</time>
      </trkpt>
      <trkpt lat="46.74197" lon="5.60009">
        <ele>284.9</ele>
        <time>2021-05-20T14:35:49Z</time>
      </trkpt>
      <trkpt lat="46.74201" lon="5.60013">
        <ele>284.7</ele>
        <time>2021-05-20T14:35:54Z</time>
      </trkpt>
      <trkpt lat="46.74204" lon="5.6002">
        <ele>282.6</ele>
        <time>2021-05-20T14:36:01Z</time>
      </trkpt>
      <trkpt lat="46.74206" lon="5.60027">
        <ele>280.9</ele>
        <time>2021-05-20T14:36:06Z</time>
      </trkpt>
      <trkpt lat="46.74207" lon="5.60034">
        <ele>279.5</ele>
        <time>2021-05-20T14:36:11Z</time>
      </trkpt>
      <trkpt lat="46.74205" lon="5.60041">
        <ele>278.5</ele>
        <time>2021-05-20T14:36:17Z</time>
      </trkpt>
      <trkpt lat="46.74202" lon="5.60046">
        <ele>277.6</ele>
        <time>2021-05-20T14:36:24Z</time>
      </trkpt>
      <trkpt lat="46.74201" lon="5.60053">
        <ele>278.2</ele>
        <time>2021-05-20T14:36:34Z</time>
      </trkpt>
      <trkpt lat="46.74198" lon="5.60059">
        <ele>279.1</ele>
        <time>2021-05-20T14:36:39Z</time>
      </trkpt>
      <trkpt lat="46.74195" lon="5.60065">
        <ele>280</ele>
        <time>2021-05-20T14:36:45Z</time>
      </trkpt>
      <trkpt lat="46.74191" lon="5.60071">
        <ele>280.8</ele>
        <time>2021-05-20T14:36:51Z</time>
      </trkpt>
      <trkpt lat="46.74188" lon="5.60076">
        <ele>281.7</ele>
        <time>2021-05-20T14:36:57Z</time>
      </trkpt>
      <trkpt lat="46.74186" lon="5.60082">
        <ele>282.8</ele>
        <time>2021-05-20T14:37:04Z</time>
      </trkpt>
      <trkpt lat="46.74184" lon="5.60089">
        <ele>283.6</ele>
        <time>2021-05-20T14:37:10Z</time>
      </trkpt>
      <trkpt lat="46.74182" lon="5.60096">
        <ele>284.3</ele>
        <time>2021-05-20T14:37:16Z</time>
      </trkpt>
      <trkpt lat="46.74179" lon="5.60102">
        <ele>284.9</ele>
        <time>2021-05-20T14:37:22Z</time>
      </trkpt>
      <trkpt lat="46.74177" lon="5.60108">
        <ele>285.8</ele>
        <time>2021-05-20T14:37:27Z</time>
      </trkpt>
      <trkpt lat="46.74174" lon="5.60114">
        <ele>286.8</ele>
        <time>2021-05-20T14:37:32Z</time>
      </trkpt>
      <trkpt lat="46.74171" lon="5.6012">
        <ele>287.8</ele>
        <time>2021-05-20T14:37:37Z</time>
      </trkpt>
      <trkpt lat="46.74169" lon="5.60126">
        <ele>288.6</ele>
        <time>2021-05-20T14:37:42Z</time>
      </trkpt>
      <trkpt lat="46.74166" lon="5.60132">
        <ele>289.4</ele>
        <time>2021-05-20T14:37:47Z</time>
      </trkpt>
      <trkpt lat="46.74163" lon="5.60139">
        <ele>289.9</ele>
        <time>2021-05-20T14:37:52Z</time>
      </trkpt>
      <trkpt lat="46.7416" lon="5.60145">
        <ele>290.3</ele>
        <time>2021-05-20T14:37:57Z</time>
      </trkpt>
      <trkpt lat="46.74158" lon="5.60151">
        <ele>290.5</ele>
        <time>2021-05-20T14:38:02Z</time>
      </trkpt>
      <trkpt lat="46.74156" lon="5.60157">
        <ele>290.9</ele>
        <time>2021-05-20T14:38:08Z</time>
      </trkpt>
      <trkpt lat="46.74153" lon="5.60164">
        <ele>291.3</ele>
        <time>2021-05-20T14:38:14Z</time>
      </trkpt>
      <trkpt lat="46.74151" lon="5.6017">
        <ele>292</ele>
        <time>2021-05-20T14:38:20Z</time>
      </trkpt>
      <trkpt lat="46.74148" lon="5.60176">
        <ele>293</ele>
        <time>2021-05-20T14:38:25Z</time>
      </trkpt>
      <trkpt lat="46.74144" lon="5.6018">
        <ele>294.6</ele>
        <time>2021-05-20T14:38:31Z</time>
      </trkpt>
      <trkpt lat="46.7414" lon="5.60183">
        <ele>296.4</ele>
        <time>2021-05-20T14:38:37Z</time>
      </trkpt>
      <trkpt lat="46.74135" lon="5.60187">
        <ele>297.8</ele>
        <time>2021-05-20T14:38:42Z</time>
      </trkpt>
      <trkpt lat="46.7413" lon="5.60188">
        <ele>299</ele>
        <time>2021-05-20T14:38:47Z</time>
      </trkpt>
      <trkpt lat="46.74125" lon="5.60188">
        <ele>300.3</ele>
        <time>2021-05-20T14:38:51Z</time>
      </trkpt>
      <trkpt lat="46.7412" lon="5.60187">
        <ele>301.7</ele>
        <time>2021-05-20T14:38:56Z</time>
      </trkpt>
      <trkpt lat="46.74115" lon="5.60185">
        <ele>303.3</ele>
        <time>2021-05-20T14:39:01Z</time>
      </trkpt>
      <trkpt lat="46.74111" lon="5.60183">
        <ele>304.6</ele>
        <time>2021-05-20T14:39:05Z</time>
      </trkpt>
      <trkpt lat="46.74106" lon="5.6018">
        <ele>305.8</ele>
        <time>2021-05-20T14:39:09Z</time>
      </trkpt>
      <trkpt lat="46.74102" lon="5.60177">
        <ele>307.3</ele>
        <time>2021-05-20T14:39:14Z</time>
      </trkpt>
      <trkpt lat="46.74097" lon="5.60175">
        <ele>309.2</ele>
        <time>2021-05-20T14:39:20Z</time>
      </trkpt>
      <trkpt lat="46.74093" lon="5.60172">
        <ele>310.2</ele>
        <time>2021-05-20T14:39:43Z</time>
      </trkpt>
      <trkpt lat="46.74088" lon="5.6017">
        <ele>309.5</ele>
        <time>2021-05-20T14:39:49Z</time>
      </trkpt>
      <trkpt lat="46.74083" lon="5.60169">
        <ele>308.1</ele>
        <time>2021-05-20T14:39:56Z</time>
      </trkpt>
      <trkpt lat="46.74078" lon="5.60167">
        <ele>306.8</ele>
        <time>2021-05-20T14:40:01Z</time>
      </trkpt>
      <trkpt lat="46.74074" lon="5.60166">
        <ele>305.6</ele>
        <time>2021-05-20T14:40:05Z</time>
      </trkpt>
      <trkpt lat="46.74069" lon="5.60165">
        <ele>303.9</ele>
        <time>2021-05-20T14:40:10Z</time>
      </trkpt>
      <trkpt lat="46.74064" lon="5.60163">
        <ele>302.5</ele>
        <time>2021-05-20T14:40:15Z</time>
      </trkpt>
      <trkpt lat="46.74059" lon="5.60162">
        <ele>301.5</ele>
        <time>2021-05-20T14:40:20Z</time>
      </trkpt>
      <trkpt lat="46.74054" lon="5.60159">
        <ele>301.1</ele>
        <time>2021-05-20T14:40:25Z</time>
      </trkpt>
      <trkpt lat="46.74049" lon="5.60157">
        <ele>301</ele>
        <time>2021-05-20T14:40:30Z</time>
      </trkpt>
      <trkpt lat="46.74044" lon="5.60156">
        <ele>301.3</ele>
        <time>2021-05-20T14:40:34Z</time>
      </trkpt>
      <trkpt lat="46.74039" lon="5.60153">
        <ele>301.4</ele>
        <time>2021-05-20T14:40:39Z</time>
      </trkpt>
      <trkpt lat="46.74034" lon="5.60151">
        <ele>300.9</ele>
        <time>2021-05-20T14:40:44Z</time>
      </trkpt>
      <trkpt lat="46.7403" lon="5.60149">
        <ele>300.6</ele>
        <time>2021-05-20T14:40:48Z</time>
      </trkpt>
      <trkpt lat="46.74024" lon="5.60146">
        <ele>300.7</ele>
        <time>2021-05-20T14:40:53Z</time>
      </trkpt>
      <trkpt lat="46.7402" lon="5.60146">
        <ele>301.2</ele>
        <time>2021-05-20T14:40:58Z</time>
      </trkpt>
      <trkpt lat="46.74014" lon="5.60146">
        <ele>301.3</ele>
        <time>2021-05-20T14:41:03Z</time>
      </trkpt>
      <trkpt lat="46.74009" lon="5.60145">
        <ele>300.7</ele>
        <time>2021-05-20T14:41:08Z</time>
      </trkpt>
      <trkpt lat="46.74004" lon="5.60143">
        <ele>300.3</ele>
        <time>2021-05-20T14:41:13Z</time>
      </trkpt>
      <trkpt lat="46.73999" lon="5.60142">
        <ele>300.2</ele>
        <time>2021-05-20T14:41:18Z</time>
      </trkpt>
      <trkpt lat="46.73994" lon="5.60141">
        <ele>300.2</ele>
        <time>2021-05-20T14:41:23Z</time>
      </trkpt>
      <trkpt lat="46.73989" lon="5.6014">
        <ele>301</ele>
        <time>2021-05-20T14:41:28Z</time>
      </trkpt>
      <trkpt lat="46.73985" lon="5.60139">
        <ele>302</ele>
        <time>2021-05-20T14:41:33Z</time>
      </trkpt>
      <trkpt lat="46.7398" lon="5.60139">
        <ele>302.6</ele>
        <time>2021-05-20T14:41:38Z</time>
      </trkpt>
      <trkpt lat="46.73975" lon="5.60141">
        <ele>303</ele>
        <time>2021-05-20T14:41:43Z</time>
      </trkpt>
      <trkpt lat="46.7397" lon="5.60143">
        <ele>303.2</ele>
        <time>2021-05-20T14:41:48Z</time>
      </trkpt>
      <trkpt lat="46.73966" lon="5.60147">
        <ele>303.4</ele>
        <time>2021-05-20T14:41:54Z</time>
      </trkpt>
      <trkpt lat="46.73962" lon="5.60152">
        <ele>303.5</ele>
        <time>2021-05-20T14:41:59Z</time>
      </trkpt>
      <trkpt lat="46.73958" lon="5.60157">
        <ele>303.7</ele>
        <time>2021-05-20T14:42:04Z</time>
      </trkpt>
      <trkpt lat="46.73954" lon="5.60162">
        <ele>304.2</ele>
        <time>2021-05-20T14:42:10Z</time>
      </trkpt>
      <trkpt lat="46.7395" lon="5.60167">
        <ele>304.5</ele>
        <time>2021-05-20T14:42:16Z</time>
      </trkpt>
      <trkpt lat="46.73946" lon="5.60171">
        <ele>304.9</ele>
        <time>2021-05-20T14:42:24Z</time>
      </trkpt>
      <trkpt lat="46.73943" lon="5.60177">
        <ele>304.9</ele>
        <time>2021-05-20T14:42:31Z</time>
      </trkpt>
      <trkpt lat="46.73939" lon="5.60182">
        <ele>305.1</ele>
        <time>2021-05-20T14:42:37Z</time>
      </trkpt>
      <trkpt lat="46.73935" lon="5.60186">
        <ele>305.4</ele>
        <time>2021-05-20T14:42:42Z</time>
      </trkpt>
      <trkpt lat="46.73932" lon="5.60191">
        <ele>305.7</ele>
        <time>2021-05-20T14:42:46Z</time>
      </trkpt>
      <trkpt lat="46.73929" lon="5.60196">
        <ele>306.3</ele>
        <time>2021-05-20T14:42:50Z</time>
      </trkpt>
      <trkpt lat="46.73925" lon="5.602">
        <ele>307.1</ele>
        <time>2021-05-20T14:42:57Z</time>
      </trkpt>
      <trkpt lat="46.73922" lon="5.60206">
        <ele>307.5</ele>
        <time>2021-05-20T14:43:05Z</time>
      </trkpt>
      <trkpt lat="46.73919" lon="5.60211">
        <ele>308</ele>
        <time>2021-05-20T14:43:12Z</time>
      </trkpt>
      <trkpt lat="46.73916" lon="5.60217">
        <ele>308.4</ele>
        <time>2021-05-20T14:43:19Z</time>
      </trkpt>
      <trkpt lat="46.73914" lon="5.60224">
        <ele>309</ele>
        <time>2021-05-20T14:43:25Z</time>
      </trkpt>
      <trkpt lat="46.73911" lon="5.6023">
        <ele>310.4</ele>
        <time>2021-05-20T14:43:30Z</time>
      </trkpt>
      <trkpt lat="46.73908" lon="5.60236">
        <ele>312.1</ele>
        <time>2021-05-20T14:43:36Z</time>
      </trkpt>
      <trkpt lat="46.73906" lon="5.60242">
        <ele>313</ele>
        <time>2021-05-20T14:43:41Z</time>
      </trkpt>
      <trkpt lat="46.73904" lon="5.60249">
        <ele>313.7</ele>
        <time>2021-05-20T14:43:46Z</time>
      </trkpt>
      <trkpt lat="46.73902" lon="5.60255">
        <ele>315.6</ele>
        <time>2021-05-20T14:43:52Z</time>
      </trkpt>
      <trkpt lat="46.73899" lon="5.60261">
        <ele>317</ele>
        <time>2021-05-20T14:43:57Z</time>
      </trkpt>
      <trkpt lat="46.73897" lon="5.60267">
        <ele>317.9</ele>
        <time>2021-05-20T14:44:02Z</time>
      </trkpt>
      <trkpt lat="46.73894" lon="5.60273">
        <ele>318.8</ele>
        <time>2021-05-20T14:44:07Z</time>
      </trkpt>
      <trkpt lat="46.73892" lon="5.6028">
        <ele>319.8</ele>
        <time>2021-05-20T14:44:12Z</time>
      </trkpt>
      <trkpt lat="46.73889" lon="5.60286">
        <ele>320.8</ele>
        <time>2021-05-20T14:44:17Z</time>
      </trkpt>
      <trkpt lat="46.73886" lon="5.60291">
        <ele>322.2</ele>
        <time>2021-05-20T14:44:23Z</time>
      </trkpt>
      <trkpt lat="46.73884" lon="5.60298">
        <ele>323.9</ele>
        <time>2021-05-20T14:44:28Z</time>
      </trkpt>
      <trkpt lat="46.73884" lon="5.60305">
        <ele>325.5</ele>
        <time>2021-05-20T14:44:33Z</time>
      </trkpt>
      <trkpt lat="46.73887" lon="5.60311">
        <ele>326.7</ele>
        <time>2021-05-20T14:44:38Z</time>
      </trkpt>
      <trkpt lat="46.73889" lon="5.60317">
        <ele>327.3</ele>
        <time>2021-05-20T14:44:43Z</time>
      </trkpt>
      <trkpt lat="46.73891" lon="5.60324">
        <ele>326.8</ele>
        <time>2021-05-20T14:44:49Z</time>
      </trkpt>
      <trkpt lat="46.73892" lon="5.60331">
        <ele>326.1</ele>
        <time>2021-05-20T14:44:54Z</time>
      </trkpt>
      <trkpt lat="46.73893" lon="5.60337">
        <ele>324.3</ele>
        <time>2021-05-20T14:45:18Z</time>
      </trkpt>
      <trkpt lat="46.73892" lon="5.60344">
        <ele>324.3</ele>
        <time>2021-05-20T14:45:22Z</time>
      </trkpt>
      <trkpt lat="46.7389" lon="5.60351">
        <ele>324.5</ele>
        <time>2021-05-20T14:45:28Z</time>
      </trkpt>
      <trkpt lat="46.73887" lon="5.60357">
        <ele>324.8</ele>
        <time>2021-05-20T14:45:33Z</time>
      </trkpt>
      <trkpt lat="46.73885" lon="5.60364">
        <ele>325.3</ele>
        <time>2021-05-20T14:45:38Z</time>
      </trkpt>
      <trkpt lat="46.73882" lon="5.6037">
        <ele>325.7</ele>
        <time>2021-05-20T14:45:43Z</time>
      </trkpt>
      <trkpt lat="46.7388" lon="5.60377">
        <ele>326.1</ele>
        <time>2021-05-20T14:45:48Z</time>
      </trkpt>
      <trkpt lat="46.73879" lon="5.60383">
        <ele>326.5</ele>
        <time>2021-05-20T14:45:53Z</time>
      </trkpt>
      <trkpt lat="46.73877" lon="5.6039">
        <ele>326.9</ele>
        <time>2021-05-20T14:45:58Z</time>
      </trkpt>
      <trkpt lat="46.73875" lon="5.60396">
        <ele>327.6</ele>
        <time>2021-05-20T14:46:02Z</time>
      </trkpt>
      <trkpt lat="46.73873" lon="5.60402">
        <ele>329</ele>
        <time>2021-05-20T14:46:06Z</time>
      </trkpt>
      <trkpt lat="46.7387" lon="5.60408">
        <ele>330.6</ele>
        <time>2021-05-20T14:46:12Z</time>
      </trkpt>
      <trkpt lat="46.73867" lon="5.60413">
        <ele>331.5</ele>
        <time>2021-05-20T14:46:17Z</time>
      </trkpt>
      <trkpt lat="46.73865" lon="5.6042">
        <ele>332.5</ele>
        <time>2021-05-20T14:46:22Z</time>
      </trkpt>
      <trkpt lat="46.73863" lon="5.60427">
        <ele>333.7</ele>
        <time>2021-05-20T14:46:28Z</time>
      </trkpt>
      <trkpt lat="46.73861" lon="5.60434">
        <ele>334.7</ele>
        <time>2021-05-20T14:46:41Z</time>
      </trkpt>
      <trkpt lat="46.73857" lon="5.60439">
        <ele>335</ele>
        <time>2021-05-20T14:46:46Z</time>
      </trkpt>
      <trkpt lat="46.73856" lon="5.60447">
        <ele>335.1</ele>
        <time>2021-05-20T14:46:51Z</time>
      </trkpt>
      <trkpt lat="46.73853" lon="5.60452">
        <ele>335.7</ele>
        <time>2021-05-20T14:46:58Z</time>
      </trkpt>
      <trkpt lat="46.7385" lon="5.60458">
        <ele>336</ele>
        <time>2021-05-20T14:47:04Z</time>
      </trkpt>
      <trkpt lat="46.7385" lon="5.60465">
        <ele>336.3</ele>
        <time>2021-05-20T14:47:09Z</time>
      </trkpt>
      <trkpt lat="46.73849" lon="5.60472">
        <ele>337.7</ele>
        <time>2021-05-20T14:47:27Z</time>
      </trkpt>
      <trkpt lat="46.73847" lon="5.6048">
        <ele>338.4</ele>
        <time>2021-05-20T14:47:32Z</time>
      </trkpt>
      <trkpt lat="46.73845" lon="5.60486">
        <ele>338.6</ele>
        <time>2021-05-20T14:47:37Z</time>
      </trkpt>
      <trkpt lat="46.73842" lon="5.60492">
        <ele>339.1</ele>
        <time>2021-05-20T14:47:42Z</time>
      </trkpt>
      <trkpt lat="46.7384" lon="5.60499">
        <ele>338.8</ele>
        <time>2021-05-20T14:47:48Z</time>
      </trkpt>
      <trkpt lat="46.73839" lon="5.60507">
        <ele>338.8</ele>
        <time>2021-05-20T14:47:54Z</time>
      </trkpt>
      <trkpt lat="46.7384" lon="5.60513">
        <ele>339.2</ele>
        <time>2021-05-20T14:49:23Z</time>
      </trkpt>
      <trkpt lat="46.73838" lon="5.6052">
        <ele>339.4</ele>
        <time>2021-05-20T14:49:29Z</time>
      </trkpt>
      <trkpt lat="46.73836" lon="5.60526">
        <ele>339.6</ele>
        <time>2021-05-20T14:49:45Z</time>
      </trkpt>
      <trkpt lat="46.73836" lon="5.60533">
        <ele>339.7</ele>
        <time>2021-05-20T14:49:53Z</time>
      </trkpt>
      <trkpt lat="46.73834" lon="5.6054">
        <ele>339.7</ele>
        <time>2021-05-20T14:50:00Z</time>
      </trkpt>
      <trkpt lat="46.73832" lon="5.60547">
        <ele>339.7</ele>
        <time>2021-05-20T14:50:06Z</time>
      </trkpt>
      <trkpt lat="46.73832" lon="5.60554">
        <ele>339.6</ele>
        <time>2021-05-20T14:50:13Z</time>
      </trkpt>
      <trkpt lat="46.7383" lon="5.6056">
        <ele>339.5</ele>
        <time>2021-05-20T14:50:20Z</time>
      </trkpt>
      <trkpt lat="46.73829" lon="5.60568">
        <ele>339.8</ele>
        <time>2021-05-20T14:50:27Z</time>
      </trkpt>
      <trkpt lat="46.73828" lon="5.60574">
        <ele>340.4</ele>
        <time>2021-05-20T14:50:35Z</time>
      </trkpt>
      <trkpt lat="46.73827" lon="5.60581">
        <ele>340.4</ele>
        <time>2021-05-20T14:50:42Z</time>
      </trkpt>
      <trkpt lat="46.73827" lon="5.60588">
        <ele>340.5</ele>
        <time>2021-05-20T14:50:49Z</time>
      </trkpt>
      <trkpt lat="46.73826" lon="5.60596">
        <ele>340.8</ele>
        <time>2021-05-20T14:50:56Z</time>
      </trkpt>
      <trkpt lat="46.73822" lon="5.606">
        <ele>340.9</ele>
        <time>2021-05-20T14:51:02Z</time>
      </trkpt>
      <trkpt lat="46.73818" lon="5.60604">
        <ele>341.3</ele>
        <time>2021-05-20T14:51:10Z</time>
      </trkpt>
      <trkpt lat="46.73814" lon="5.60603">
        <ele>342.4</ele>
        <time>2021-05-20T14:51:19Z</time>
      </trkpt>
      <trkpt lat="46.7381" lon="5.60601">
        <ele>344.1</ele>
        <time>2021-05-20T14:51:25Z</time>
      </trkpt>
      <trkpt lat="46.73806" lon="5.60596">
        <ele>346.1</ele>
        <time>2021-05-20T14:51:30Z</time>
      </trkpt>
      <trkpt lat="46.73801" lon="5.60592">
        <ele>351.2</ele>
        <time>2021-05-20T14:52:03Z</time>
      </trkpt>
      <trkpt lat="46.73797" lon="5.60591">
        <ele>351.8</ele>
        <time>2021-05-20T14:52:11Z</time>
      </trkpt>
      <trkpt lat="46.73792" lon="5.60589">
        <ele>352.3</ele>
        <time>2021-05-20T14:52:18Z</time>
      </trkpt>
      <trkpt lat="46.73787" lon="5.60588">
        <ele>352.7</ele>
        <time>2021-05-20T14:52:25Z</time>
      </trkpt>
      <trkpt lat="46.73782" lon="5.60587">
        <ele>353</ele>
        <time>2021-05-20T14:52:31Z</time>
      </trkpt>
      <trkpt lat="46.73778" lon="5.60588">
        <ele>353.5</ele>
        <time>2021-05-20T14:52:36Z</time>
      </trkpt>
      <trkpt lat="46.73774" lon="5.60588">
        <ele>354.1</ele>
        <time>2021-05-20T14:52:47Z</time>
      </trkpt>
      <trkpt lat="46.73776" lon="5.60594">
        <ele>363.4</ele>
        <time>2021-05-20T14:59:55Z</time>
      </trkpt>
      <trkpt lat="46.73775" lon="5.60601">
        <ele>364.4</ele>
        <time>2021-05-20T15:00:00Z</time>
      </trkpt>
      <trkpt lat="46.73773" lon="5.60608">
        <ele>365.5</ele>
        <time>2021-05-20T15:00:06Z</time>
      </trkpt>
      <trkpt lat="46.7377" lon="5.60614">
        <ele>366.3</ele>
        <time>2021-05-20T15:00:11Z</time>
      </trkpt>
      <trkpt lat="46.73767" lon="5.60621">
        <ele>367.3</ele>
        <time>2021-05-20T15:00:17Z</time>
      </trkpt>
      <trkpt lat="46.73765" lon="5.60626">
        <ele>368.3</ele>
        <time>2021-05-20T15:00:22Z</time>
      </trkpt>
      <trkpt lat="46.73762" lon="5.60632">
        <ele>369.3</ele>
        <time>2021-05-20T15:00:27Z</time>
      </trkpt>
      <trkpt lat="46.73759" lon="5.60637">
        <ele>370.5</ele>
        <time>2021-05-20T15:00:32Z</time>
      </trkpt>
      <trkpt lat="46.73755" lon="5.60642">
        <ele>371.8</ele>
        <time>2021-05-20T15:00:38Z</time>
      </trkpt>
      <trkpt lat="46.73752" lon="5.60647">
        <ele>372.6</ele>
        <time>2021-05-20T15:00:44Z</time>
      </trkpt>
      <trkpt lat="46.73749" lon="5.60653">
        <ele>373.1</ele>
        <time>2021-05-20T15:00:50Z</time>
      </trkpt>
      <trkpt lat="46.73745" lon="5.60657">
        <ele>373.2</ele>
        <time>2021-05-20T15:00:56Z</time>
      </trkpt>
      <trkpt lat="46.73741" lon="5.60658">
        <ele>373</ele>
        <time>2021-05-20T15:01:26Z</time>
      </trkpt>
      <trkpt lat="46.73738" lon="5.60652">
        <ele>373.1</ele>
        <time>2021-05-20T15:01:42Z</time>
      </trkpt>
      <trkpt lat="46.73739" lon="5.60659">
        <ele>372.5</ele>
        <time>2021-05-20T15:02:01Z</time>
      </trkpt>
      <trkpt lat="46.73741" lon="5.60666">
        <ele>371.8</ele>
        <time>2021-05-20T15:02:08Z</time>
      </trkpt>
      <trkpt lat="46.73742" lon="5.60672">
        <ele>371.1</ele>
        <time>2021-05-20T15:02:14Z</time>
      </trkpt>
      <trkpt lat="46.73745" lon="5.60679">
        <ele>370.4</ele>
        <time>2021-05-20T15:02:20Z</time>
      </trkpt>
      <trkpt lat="46.73749" lon="5.60684">
        <ele>369.8</ele>
        <time>2021-05-20T15:02:24Z</time>
      </trkpt>
      <trkpt lat="46.73752" lon="5.6069">
        <ele>369</ele>
        <time>2021-05-20T15:02:30Z</time>
      </trkpt>
      <trkpt lat="46.73755" lon="5.60695">
        <ele>368.5</ele>
        <time>2021-05-20T15:02:36Z</time>
      </trkpt>
      <trkpt lat="46.73758" lon="5.60701">
        <ele>368.4</ele>
        <time>2021-05-20T15:02:43Z</time>
      </trkpt>
      <trkpt lat="46.73761" lon="5.60707">
        <ele>368.4</ele>
        <time>2021-05-20T15:02:47Z</time>
      </trkpt>
      <trkpt lat="46.73764" lon="5.60713">
        <ele>368.8</ele>
        <time>2021-05-20T15:02:51Z</time>
      </trkpt>
      <trkpt lat="46.73767" lon="5.60719">
        <ele>369</ele>
        <time>2021-05-20T15:02:57Z</time>
      </trkpt>
      <trkpt lat="46.7377" lon="5.60724">
        <ele>368.9</ele>
        <time>2021-05-20T15:03:04Z</time>
      </trkpt>
      <trkpt lat="46.73773" lon="5.6073">
        <ele>368.3</ele>
        <time>2021-05-20T15:04:00Z</time>
      </trkpt>
      <trkpt lat="46.73778" lon="5.60733">
        <ele>367.8</ele>
        <time>2021-05-20T15:04:07Z</time>
      </trkpt>
      <trkpt lat="46.73783" lon="5.60732">
        <ele>367.7</ele>
        <time>2021-05-20T15:04:12Z</time>
      </trkpt>
      <trkpt lat="46.73787" lon="5.60731">
        <ele>367.3</ele>
        <time>2021-05-20T15:04:18Z</time>
      </trkpt>
      <trkpt lat="46.73792" lon="5.6073">
        <ele>367.2</ele>
        <time>2021-05-20T15:04:23Z</time>
      </trkpt>
      <trkpt lat="46.73797" lon="5.6073">
        <ele>367.1</ele>
        <time>2021-05-20T15:04:28Z</time>
      </trkpt>
      <trkpt lat="46.73802" lon="5.6073">
        <ele>367.4</ele>
        <time>2021-05-20T15:04:34Z</time>
      </trkpt>
      <trkpt lat="46.73807" lon="5.60729">
        <ele>368.1</ele>
        <time>2021-05-20T15:04:40Z</time>
      </trkpt>
      <trkpt lat="46.73812" lon="5.60729">
        <ele>368.9</ele>
        <time>2021-05-20T15:04:45Z</time>
      </trkpt>
      <trkpt lat="46.73816" lon="5.60727">
        <ele>369.7</ele>
        <time>2021-05-20T15:04:51Z</time>
      </trkpt>
      <trkpt lat="46.73821" lon="5.60726">
        <ele>370.2</ele>
        <time>2021-05-20T15:04:57Z</time>
      </trkpt>
      <trkpt lat="46.73826" lon="5.60724">
        <ele>370.4</ele>
        <time>2021-05-20T15:05:05Z</time>
      </trkpt>
      <trkpt lat="46.7383" lon="5.6072">
        <ele>370.7</ele>
        <time>2021-05-20T15:05:19Z</time>
      </trkpt>
      <trkpt lat="46.73843" lon="5.60713">
        <ele>373.8</ele>
        <time>2021-05-20T15:05:23Z</time>
      </trkpt>
      <trkpt lat="46.73855" lon="5.60707">
        <ele>377</ele>
        <time>2021-05-20T15:05:27Z</time>
      </trkpt>
      <trkpt lat="46.7386" lon="5.60706">
        <ele>379.7</ele>
        <time>2021-05-20T15:05:32Z</time>
      </trkpt>
      <trkpt lat="46.73864" lon="5.60703">
        <ele>383.4</ele>
        <time>2021-05-20T15:05:37Z</time>
      </trkpt>
      <trkpt lat="46.73869" lon="5.60701">
        <ele>387</ele>
        <time>2021-05-20T15:05:43Z</time>
      </trkpt>
      <trkpt lat="46.73874" lon="5.607">
        <ele>389.5</ele>
        <time>2021-05-20T15:05:50Z</time>
      </trkpt>
      <trkpt lat="46.73879" lon="5.60698">
        <ele>390.5</ele>
        <time>2021-05-20T15:05:55Z</time>
      </trkpt>
      <trkpt lat="46.73883" lon="5.60696">
        <ele>390.8</ele>
        <time>2021-05-20T15:06:00Z</time>
      </trkpt>
      <trkpt lat="46.73888" lon="5.60693">
        <ele>390.1</ele>
        <time>2021-05-20T15:06:05Z</time>
      </trkpt>
      <trkpt lat="46.73892" lon="5.6069">
        <ele>389.8</ele>
        <time>2021-05-20T15:06:13Z</time>
      </trkpt>
      <trkpt lat="46.73897" lon="5.60687">
        <ele>388.9</ele>
        <time>2021-05-20T15:06:18Z</time>
      </trkpt>
      <trkpt lat="46.73901" lon="5.60685">
        <ele>386.8</ele>
        <time>2021-05-20T15:06:24Z</time>
      </trkpt>
      <trkpt lat="46.73906" lon="5.60683">
        <ele>384.4</ele>
        <time>2021-05-20T15:06:35Z</time>
      </trkpt>
      <trkpt lat="46.7391" lon="5.6068">
        <ele>381.3</ele>
        <time>2021-05-20T15:06:48Z</time>
      </trkpt>
      <trkpt lat="46.73915" lon="5.60677">
        <ele>378.7</ele>
        <time>2021-05-20T15:06:56Z</time>
      </trkpt>
      <trkpt lat="46.73919" lon="5.60675">
        <ele>377</ele>
        <time>2021-05-20T15:07:03Z</time>
      </trkpt>
      <trkpt lat="46.73923" lon="5.6067">
        <ele>376</ele>
        <time>2021-05-20T15:07:08Z</time>
      </trkpt>
      <trkpt lat="46.73928" lon="5.6067">
        <ele>374.5</ele>
        <time>2021-05-20T15:07:15Z</time>
      </trkpt>
      <trkpt lat="46.73933" lon="5.60669">
        <ele>372.7</ele>
        <time>2021-05-20T15:07:21Z</time>
      </trkpt>
      <trkpt lat="46.73937" lon="5.60667">
        <ele>370.9</ele>
        <time>2021-05-20T15:07:27Z</time>
      </trkpt>
      <trkpt lat="46.73942" lon="5.60664">
        <ele>369.1</ele>
        <time>2021-05-20T15:07:32Z</time>
      </trkpt>
      <trkpt lat="46.73947" lon="5.60663">
        <ele>367.7</ele>
        <time>2021-05-20T15:07:38Z</time>
      </trkpt>
      <trkpt lat="46.73952" lon="5.60664">
        <ele>366.5</ele>
        <time>2021-05-20T15:07:44Z</time>
      </trkpt>
      <trkpt lat="46.73956" lon="5.60663">
        <ele>365.4</ele>
        <time>2021-05-20T15:07:51Z</time>
      </trkpt>
      <trkpt lat="46.73961" lon="5.6066">
        <ele>363.9</ele>
        <time>2021-05-20T15:07:56Z</time>
      </trkpt>
      <trkpt lat="46.73966" lon="5.60659">
        <ele>361.9</ele>
        <time>2021-05-20T15:08:02Z</time>
      </trkpt>
      <trkpt lat="46.73971" lon="5.60659">
        <ele>359.6</ele>
        <time>2021-05-20T15:08:07Z</time>
      </trkpt>
      <trkpt lat="46.73975" lon="5.60661">
        <ele>358</ele>
        <time>2021-05-20T15:08:11Z</time>
      </trkpt>
      <trkpt lat="46.7398" lon="5.60664">
        <ele>356</ele>
        <time>2021-05-20T15:08:17Z</time>
      </trkpt>
      <trkpt lat="46.73985" lon="5.60665">
        <ele>354.4</ele>
        <time>2021-05-20T15:08:23Z</time>
      </trkpt>
      <trkpt lat="46.7399" lon="5.60664">
        <ele>352.6</ele>
        <time>2021-05-20T15:08:29Z</time>
      </trkpt>
      <trkpt lat="46.73995" lon="5.60665">
        <ele>350.7</ele>
        <time>2021-05-20T15:08:34Z</time>
      </trkpt>
      <trkpt lat="46.74" lon="5.60669">
        <ele>348.7</ele>
        <time>2021-05-20T15:08:40Z</time>
      </trkpt>
      <trkpt lat="46.74004" lon="5.60671">
        <ele>347.1</ele>
        <time>2021-05-20T15:08:46Z</time>
      </trkpt>
      <trkpt lat="46.74009" lon="5.60673">
        <ele>346</ele>
        <time>2021-05-20T15:08:55Z</time>
      </trkpt>
      <trkpt lat="46.74014" lon="5.60673">
        <ele>347.8</ele>
        <time>2021-05-20T15:09:06Z</time>
      </trkpt>
      <trkpt lat="46.7402" lon="5.60668">
        <ele>348.5</ele>
        <time>2021-05-20T15:10:35Z</time>
      </trkpt>
      <trkpt lat="46.74023" lon="5.60664">
        <ele>348.6</ele>
        <time>2021-05-20T15:10:42Z</time>
      </trkpt>
      <trkpt lat="46.74028" lon="5.60664">
        <ele>349.9</ele>
        <time>2021-05-20T15:11:33Z</time>
      </trkpt>
      <trkpt lat="46.74033" lon="5.60662">
        <ele>350.1</ele>
        <time>2021-05-20T15:11:38Z</time>
      </trkpt>
      <trkpt lat="46.74037" lon="5.60662">
        <ele>350.4</ele>
        <time>2021-05-20T15:11:46Z</time>
      </trkpt>
      <trkpt lat="46.7404" lon="5.60667">
        <ele>350.7</ele>
        <time>2021-05-20T15:12:27Z</time>
      </trkpt>
      <trkpt lat="46.74043" lon="5.60673">
        <ele>351.9</ele>
        <time>2021-05-20T15:12:43Z</time>
      </trkpt>
      <trkpt lat="46.74048" lon="5.60677">
        <ele>352.3</ele>
        <time>2021-05-20T15:12:49Z</time>
      </trkpt>
      <trkpt lat="46.74052" lon="5.60678">
        <ele>352.5</ele>
        <time>2021-05-20T15:12:53Z</time>
      </trkpt>
      <trkpt lat="46.74057" lon="5.6068">
        <ele>352.6</ele>
        <time>2021-05-20T15:12:57Z</time>
      </trkpt>
      <trkpt lat="46.74061" lon="5.60684">
        <ele>352.8</ele>
        <time>2021-05-20T15:13:02Z</time>
      </trkpt>
      <trkpt lat="46.74064" lon="5.60691">
        <ele>353</ele>
        <time>2021-05-20T15:13:07Z</time>
      </trkpt>
      <trkpt lat="46.74067" lon="5.60697">
        <ele>353</ele>
        <time>2021-05-20T15:13:11Z</time>
      </trkpt>
      <trkpt lat="46.74071" lon="5.60703">
        <ele>352.7</ele>
        <time>2021-05-20T15:13:15Z</time>
      </trkpt>
      <trkpt lat="46.74076" lon="5.60707">
        <ele>352.5</ele>
        <time>2021-05-20T15:13:19Z</time>
      </trkpt>
      <trkpt lat="46.7408" lon="5.6071">
        <ele>353.1</ele>
        <time>2021-05-20T15:13:23Z</time>
      </trkpt>
      <trkpt lat="46.74085" lon="5.60713">
        <ele>354.5</ele>
        <time>2021-05-20T15:13:28Z</time>
      </trkpt>
      <trkpt lat="46.74089" lon="5.60717">
        <ele>355.6</ele>
        <time>2021-05-20T15:13:32Z</time>
      </trkpt>
      <trkpt lat="46.74094" lon="5.60721">
        <ele>357.1</ele>
        <time>2021-05-20T15:13:36Z</time>
      </trkpt>
      <trkpt lat="46.74098" lon="5.60724">
        <ele>358.7</ele>
        <time>2021-05-20T15:13:40Z</time>
      </trkpt>
      <trkpt lat="46.74102" lon="5.60728">
        <ele>360.1</ele>
        <time>2021-05-20T15:13:45Z</time>
      </trkpt>
      <trkpt lat="46.74107" lon="5.60732">
        <ele>361.2</ele>
        <time>2021-05-20T15:13:50Z</time>
      </trkpt>
      <trkpt lat="46.74111" lon="5.60734">
        <ele>362.2</ele>
        <time>2021-05-20T15:13:54Z</time>
      </trkpt>
      <trkpt lat="46.74116" lon="5.60737">
        <ele>363.4</ele>
        <time>2021-05-20T15:13:58Z</time>
      </trkpt>
      <trkpt lat="46.74121" lon="5.60739">
        <ele>364.7</ele>
        <time>2021-05-20T15:14:03Z</time>
      </trkpt>
      <trkpt lat="46.74126" lon="5.60739">
        <ele>365.8</ele>
        <time>2021-05-20T15:14:07Z</time>
      </trkpt>
      <trkpt lat="46.74131" lon="5.60741">
        <ele>366.8</ele>
        <time>2021-05-20T15:14:12Z</time>
      </trkpt>
      <trkpt lat="46.74136" lon="5.60741">
        <ele>368.2</ele>
        <time>2021-05-20T15:14:17Z</time>
      </trkpt>
      <trkpt lat="46.74141" lon="5.60742">
        <ele>369.4</ele>
        <time>2021-05-20T15:14:22Z</time>
      </trkpt>
      <trkpt lat="46.74144" lon="5.60747">
        <ele>369.9</ele>
        <time>2021-05-20T15:14:27Z</time>
      </trkpt>
      <trkpt lat="46.74149" lon="5.60752">
        <ele>369.8</ele>
        <time>2021-05-20T15:14:33Z</time>
      </trkpt>
      <trkpt lat="46.74153" lon="5.60756">
        <ele>369.4</ele>
        <time>2021-05-20T15:14:37Z</time>
      </trkpt>
      <trkpt lat="46.74156" lon="5.6076">
        <ele>368.8</ele>
        <time>2021-05-20T15:14:41Z</time>
      </trkpt>
      <trkpt lat="46.7416" lon="5.60764">
        <ele>368.4</ele>
        <time>2021-05-20T15:14:45Z</time>
      </trkpt>
      <trkpt lat="46.74165" lon="5.60767">
        <ele>367.8</ele>
        <time>2021-05-20T15:14:49Z</time>
      </trkpt>
      <trkpt lat="46.74168" lon="5.60772">
        <ele>367.3</ele>
        <time>2021-05-20T15:14:53Z</time>
      </trkpt>
      <trkpt lat="46.74171" lon="5.60777">
        <ele>366.8</ele>
        <time>2021-05-20T15:14:57Z</time>
      </trkpt>
      <trkpt lat="46.74175" lon="5.60782">
        <ele>366.3</ele>
        <time>2021-05-20T15:15:01Z</time>
      </trkpt>
      <trkpt lat="46.74177" lon="5.60787">
        <ele>365.6</ele>
        <time>2021-05-20T15:15:06Z</time>
      </trkpt>
      <trkpt lat="46.74178" lon="5.60794">
        <ele>365.4</ele>
        <time>2021-05-20T15:15:12Z</time>
      </trkpt>
      <trkpt lat="46.7418" lon="5.60801">
        <ele>364.7</ele>
        <time>2021-05-20T15:15:18Z</time>
      </trkpt>
      <trkpt lat="46.74182" lon="5.60808">
        <ele>363.8</ele>
        <time>2021-05-20T15:15:23Z</time>
      </trkpt>
      <trkpt lat="46.74183" lon="5.60815">
        <ele>363.3</ele>
        <time>2021-05-20T15:15:28Z</time>
      </trkpt>
      <trkpt lat="46.74185" lon="5.60821">
        <ele>362.7</ele>
        <time>2021-05-20T15:15:33Z</time>
      </trkpt>
      <trkpt lat="46.7419" lon="5.60826">
        <ele>361.5</ele>
        <time>2021-05-20T15:15:38Z</time>
      </trkpt>
      <trkpt lat="46.74193" lon="5.60832">
        <ele>360.2</ele>
        <time>2021-05-20T15:15:43Z</time>
      </trkpt>
      <trkpt lat="46.74204" lon="5.60834">
        <ele>365.2</ele>
        <time>2021-05-20T15:15:47Z</time>
      </trkpt>
      <trkpt lat="46.74208" lon="5.60839">
        <ele>369.2</ele>
        <time>2021-05-20T15:15:53Z</time>
      </trkpt>
      <trkpt lat="46.74209" lon="5.60846">
        <ele>371</ele>
        <time>2021-05-20T15:16:01Z</time>
      </trkpt>
      <trkpt lat="46.7421" lon="5.60852">
        <ele>371.3</ele>
        <time>2021-05-20T15:16:08Z</time>
      </trkpt>
      <trkpt lat="46.74212" lon="5.60859">
        <ele>371.1</ele>
        <time>2021-05-20T15:16:14Z</time>
      </trkpt>
      <trkpt lat="46.74214" lon="5.60865">
        <ele>370.6</ele>
        <time>2021-05-20T15:16:19Z</time>
      </trkpt>
      <trkpt lat="46.74217" lon="5.6087">
        <ele>370.1</ele>
        <time>2021-05-20T15:16:24Z</time>
      </trkpt>
      <trkpt lat="46.7422" lon="5.60876">
        <ele>369.8</ele>
        <time>2021-05-20T15:16:30Z</time>
      </trkpt>
      <trkpt lat="46.74221" lon="5.60883">
        <ele>369.7</ele>
        <time>2021-05-20T15:16:36Z</time>
      </trkpt>
      <trkpt lat="46.74222" lon="5.60889">
        <ele>369.4</ele>
        <time>2021-05-20T15:16:41Z</time>
      </trkpt>
      <trkpt lat="46.74225" lon="5.60896">
        <ele>369.1</ele>
        <time>2021-05-20T15:16:47Z</time>
      </trkpt>
      <trkpt lat="46.74229" lon="5.60901">
        <ele>369.1</ele>
        <time>2021-05-20T15:16:51Z</time>
      </trkpt>
      <trkpt lat="46.74232" lon="5.60908">
        <ele>368.6</ele>
        <time>2021-05-20T15:16:56Z</time>
      </trkpt>
      <trkpt lat="46.74235" lon="5.60915">
        <ele>368.1</ele>
        <time>2021-05-20T15:17:01Z</time>
      </trkpt>
      <trkpt lat="46.74236" lon="5.60922">
        <ele>367.4</ele>
        <time>2021-05-20T15:17:06Z</time>
      </trkpt>
      <trkpt lat="46.74239" lon="5.60927">
        <ele>366.9</ele>
        <time>2021-05-20T15:17:12Z</time>
      </trkpt>
      <trkpt lat="46.74241" lon="5.60934">
        <ele>366.9</ele>
        <time>2021-05-20T15:17:17Z</time>
      </trkpt>
      <trkpt lat="46.74243" lon="5.6094">
        <ele>367</ele>
        <time>2021-05-20T15:17:24Z</time>
      </trkpt>
      <trkpt lat="46.74244" lon="5.60946">
        <ele>366.8</ele>
        <time>2021-05-20T15:17:29Z</time>
      </trkpt>
      <trkpt lat="46.74248" lon="5.60951">
        <ele>366.4</ele>
        <time>2021-05-20T15:17:33Z</time>
      </trkpt>
      <trkpt lat="46.74251" lon="5.60957">
        <ele>365.7</ele>
        <time>2021-05-20T15:17:38Z</time>
      </trkpt>
      <trkpt lat="46.74256" lon="5.6096">
        <ele>365.9</ele>
        <time>2021-05-20T15:17:42Z</time>
      </trkpt>
      <trkpt lat="46.7426" lon="5.60965">
        <ele>366.3</ele>
        <time>2021-05-20T15:17:46Z</time>
      </trkpt>
      <trkpt lat="46.74262" lon="5.60971">
        <ele>366.6</ele>
        <time>2021-05-20T15:17:52Z</time>
      </trkpt>
      <trkpt lat="46.74266" lon="5.60974">
        <ele>367.2</ele>
        <time>2021-05-20T15:17:56Z</time>
      </trkpt>
      <trkpt lat="46.7427" lon="5.60978">
        <ele>368.1</ele>
        <time>2021-05-20T15:18:00Z</time>
      </trkpt>
      <trkpt lat="46.74273" lon="5.60985">
        <ele>369.1</ele>
        <time>2021-05-20T15:18:07Z</time>
      </trkpt>
      <trkpt lat="46.74274" lon="5.60992">
        <ele>369.4</ele>
        <time>2021-05-20T15:18:12Z</time>
      </trkpt>
      <trkpt lat="46.74275" lon="5.60999">
        <ele>369.5</ele>
        <time>2021-05-20T15:18:19Z</time>
      </trkpt>
      <trkpt lat="46.74275" lon="5.61005">
        <ele>369.4</ele>
        <time>2021-05-20T15:18:24Z</time>
      </trkpt>
      <trkpt lat="46.74275" lon="5.61013">
        <ele>369.1</ele>
        <time>2021-05-20T15:18:29Z</time>
      </trkpt>
      <trkpt lat="46.74278" lon="5.61019">
        <ele>368.6</ele>
        <time>2021-05-20T15:18:34Z</time>
      </trkpt>
      <trkpt lat="46.74281" lon="5.61026">
        <ele>368.1</ele>
        <time>2021-05-20T15:18:38Z</time>
      </trkpt>
      <trkpt lat="46.74283" lon="5.61033">
        <ele>367.8</ele>
        <time>2021-05-20T15:18:42Z</time>
      </trkpt>
      <trkpt lat="46.74284" lon="5.61039">
        <ele>367.4</ele>
        <time>2021-05-20T15:18:47Z</time>
      </trkpt>
      <trkpt lat="46.74284" lon="5.61047">
        <ele>367</ele>
        <time>2021-05-20T15:18:53Z</time>
      </trkpt>
      <trkpt lat="46.74285" lon="5.61054">
        <ele>366.9</ele>
        <time>2021-05-20T15:18:59Z</time>
      </trkpt>
      <trkpt lat="46.74288" lon="5.6106">
        <ele>367</ele>
        <time>2021-05-20T15:19:05Z</time>
      </trkpt>
      <trkpt lat="46.74292" lon="5.61066">
        <ele>367.5</ele>
        <time>2021-05-20T15:19:10Z</time>
      </trkpt>
      <trkpt lat="46.74295" lon="5.61071">
        <ele>368.2</ele>
        <time>2021-05-20T15:19:15Z</time>
      </trkpt>
      <trkpt lat="46.74297" lon="5.61077">
        <ele>368.4</ele>
        <time>2021-05-20T15:19:21Z</time>
      </trkpt>
      <trkpt lat="46.743" lon="5.61083">
        <ele>368.6</ele>
        <time>2021-05-20T15:19:26Z</time>
      </trkpt>
      <trkpt lat="46.74303" lon="5.61088">
        <ele>369</ele>
        <time>2021-05-20T15:19:33Z</time>
      </trkpt>
      <trkpt lat="46.74304" lon="5.61095">
        <ele>370</ele>
        <time>2021-05-20T15:19:44Z</time>
      </trkpt>
      <trkpt lat="46.74306" lon="5.61101">
        <ele>372.2</ele>
        <time>2021-05-20T15:20:16Z</time>
      </trkpt>
      <trkpt lat="46.74312" lon="5.61103">
        <ele>372.1</ele>
        <time>2021-05-20T15:20:23Z</time>
      </trkpt>
      <trkpt lat="46.74317" lon="5.61102">
        <ele>372</ele>
        <time>2021-05-20T15:20:28Z</time>
      </trkpt>
      <trkpt lat="46.74322" lon="5.61101">
        <ele>372</ele>
        <time>2021-05-20T15:20:32Z</time>
      </trkpt>
      <trkpt lat="46.74328" lon="5.611">
        <ele>372.2</ele>
        <time>2021-05-20T15:20:36Z</time>
      </trkpt>
      <trkpt lat="46.74333" lon="5.611">
        <ele>372.2</ele>
        <time>2021-05-20T15:20:41Z</time>
      </trkpt>
      <trkpt lat="46.74338" lon="5.61099">
        <ele>372</ele>
        <time>2021-05-20T15:20:47Z</time>
      </trkpt>
      <trkpt lat="46.74343" lon="5.61099">
        <ele>372.1</ele>
        <time>2021-05-20T15:20:51Z</time>
      </trkpt>
      <trkpt lat="46.74351" lon="5.61098">
        <ele>373.6</ele>
        <time>2021-05-20T15:20:55Z</time>
      </trkpt>
      <trkpt lat="46.74358" lon="5.61097">
        <ele>375.2</ele>
        <time>2021-05-20T15:20:59Z</time>
      </trkpt>
      <trkpt lat="46.74363" lon="5.61097">
        <ele>377.2</ele>
        <time>2021-05-20T15:21:05Z</time>
      </trkpt>
      <trkpt lat="46.74368" lon="5.61096">
        <ele>379.7</ele>
        <time>2021-05-20T15:21:15Z</time>
      </trkpt>
      <trkpt lat="46.74373" lon="5.61096">
        <ele>381.3</ele>
        <time>2021-05-20T15:21:21Z</time>
      </trkpt>
      <trkpt lat="46.74377" lon="5.61098">
        <ele>382.6</ele>
        <time>2021-05-20T15:21:27Z</time>
      </trkpt>
      <trkpt lat="46.74383" lon="5.61098">
        <ele>383.7</ele>
        <time>2021-05-20T15:21:33Z</time>
      </trkpt>
      <trkpt lat="46.7439" lon="5.61099">
        <ele>384.7</ele>
        <time>2021-05-20T15:21:37Z</time>
      </trkpt>
      <trkpt lat="46.74396" lon="5.61099">
        <ele>385.9</ele>
        <time>2021-05-20T15:21:41Z</time>
      </trkpt>
      <trkpt lat="46.74401" lon="5.61099">
        <ele>387.3</ele>
        <time>2021-05-20T15:21:48Z</time>
      </trkpt>
      <trkpt lat="46.74405" lon="5.61101">
        <ele>387.6</ele>
        <time>2021-05-20T15:21:58Z</time>
      </trkpt>
      <trkpt lat="46.7441" lon="5.61103">
        <ele>385.6</ele>
        <time>2021-05-20T15:22:20Z</time>
      </trkpt>
      <trkpt lat="46.74417" lon="5.61104">
        <ele>383.4</ele>
        <time>2021-05-20T15:22:24Z</time>
      </trkpt>
      <trkpt lat="46.74422" lon="5.61105">
        <ele>381.9</ele>
        <time>2021-05-20T15:22:28Z</time>
      </trkpt>
      <trkpt lat="46.74427" lon="5.61105">
        <ele>380.8</ele>
        <time>2021-05-20T15:22:32Z</time>
      </trkpt>
      <trkpt lat="46.74431" lon="5.61104">
        <ele>379.9</ele>
        <time>2021-05-20T15:22:36Z</time>
      </trkpt>
      <trkpt lat="46.74437" lon="5.61103">
        <ele>378.9</ele>
        <time>2021-05-20T15:22:41Z</time>
      </trkpt>
      <trkpt lat="46.74441" lon="5.61102">
        <ele>377.3</ele>
        <time>2021-05-20T15:22:47Z</time>
      </trkpt>
      <trkpt lat="46.74446" lon="5.61103">
        <ele>375.5</ele>
        <time>2021-05-20T15:22:55Z</time>
      </trkpt>
      <trkpt lat="46.74451" lon="5.61105">
        <ele>375</ele>
        <time>2021-05-20T15:23:03Z</time>
      </trkpt>
      <trkpt lat="46.74456" lon="5.61104">
        <ele>373.9</ele>
        <time>2021-05-20T15:23:09Z</time>
      </trkpt>
      <trkpt lat="46.74461" lon="5.61105">
        <ele>372.9</ele>
        <time>2021-05-20T15:23:14Z</time>
      </trkpt>
      <trkpt lat="46.74465" lon="5.61108">
        <ele>371.9</ele>
        <time>2021-05-20T15:23:19Z</time>
      </trkpt>
      <trkpt lat="46.7447" lon="5.6111">
        <ele>371.1</ele>
        <time>2021-05-20T15:23:24Z</time>
      </trkpt>
      <trkpt lat="46.74474" lon="5.61113">
        <ele>370</ele>
        <time>2021-05-20T15:23:30Z</time>
      </trkpt>
      <trkpt lat="46.74479" lon="5.61115">
        <ele>368.3</ele>
        <time>2021-05-20T15:23:39Z</time>
      </trkpt>
      <trkpt lat="46.74484" lon="5.61117">
        <ele>367.1</ele>
        <time>2021-05-20T15:23:46Z</time>
      </trkpt>
      <trkpt lat="46.74489" lon="5.61118">
        <ele>366.2</ele>
        <time>2021-05-20T15:23:54Z</time>
      </trkpt>
      <trkpt lat="46.74493" lon="5.61117">
        <ele>366.1</ele>
        <time>2021-05-20T15:24:03Z</time>
      </trkpt>
      <trkpt lat="46.74498" lon="5.61117">
        <ele>365.6</ele>
        <time>2021-05-20T15:24:10Z</time>
      </trkpt>
      <trkpt lat="46.74503" lon="5.61118">
        <ele>364.8</ele>
        <time>2021-05-20T15:24:16Z</time>
      </trkpt>
      <trkpt lat="46.74508" lon="5.61119">
        <ele>363.9</ele>
        <time>2021-05-20T15:24:20Z</time>
      </trkpt>
      <trkpt lat="46.74512" lon="5.6112">
        <ele>363</ele>
        <time>2021-05-20T15:24:25Z</time>
      </trkpt>
      <trkpt lat="46.74517" lon="5.61122">
        <ele>362</ele>
        <time>2021-05-20T15:24:31Z</time>
      </trkpt>
      <trkpt lat="46.74533" lon="5.6112">
        <ele>362.2</ele>
        <time>2021-05-20T15:24:35Z</time>
      </trkpt>
      <trkpt lat="46.74537" lon="5.6112">
        <ele>361.7</ele>
        <time>2021-05-20T15:24:40Z</time>
      </trkpt>
      <trkpt lat="46.74541" lon="5.61123">
        <ele>360.5</ele>
        <time>2021-05-20T15:24:49Z</time>
      </trkpt>
      <trkpt lat="46.74549" lon="5.61125">
        <ele>357.9</ele>
        <time>2021-05-20T15:25:15Z</time>
      </trkpt>
      <trkpt lat="46.74555" lon="5.61124">
        <ele>355.6</ele>
        <time>2021-05-20T15:25:25Z</time>
      </trkpt>
      <trkpt lat="46.74559" lon="5.61125">
        <ele>354.7</ele>
        <time>2021-05-20T15:25:31Z</time>
      </trkpt>
      <trkpt lat="46.74565" lon="5.61127">
        <ele>353.4</ele>
        <time>2021-05-20T15:25:43Z</time>
      </trkpt>
      <trkpt lat="46.7457" lon="5.61128">
        <ele>353</ele>
        <time>2021-05-20T15:25:50Z</time>
      </trkpt>
      <trkpt lat="46.74581" lon="5.61131">
        <ele>354.5</ele>
        <time>2021-05-20T15:25:54Z</time>
      </trkpt>
      <trkpt lat="46.74586" lon="5.61132">
        <ele>355.6</ele>
        <time>2021-05-20T15:25:58Z</time>
      </trkpt>
      <trkpt lat="46.74591" lon="5.61133">
        <ele>355.6</ele>
        <time>2021-05-20T15:26:06Z</time>
      </trkpt>
      <trkpt lat="46.74595" lon="5.61135">
        <ele>355.1</ele>
        <time>2021-05-20T15:26:10Z</time>
      </trkpt>
      <trkpt lat="46.74601" lon="5.61136">
        <ele>354</ele>
        <time>2021-05-20T15:26:16Z</time>
      </trkpt>
      <trkpt lat="46.74605" lon="5.61137">
        <ele>353.1</ele>
        <time>2021-05-20T15:26:21Z</time>
      </trkpt>
      <trkpt lat="46.7461" lon="5.61139">
        <ele>351.9</ele>
        <time>2021-05-20T15:26:27Z</time>
      </trkpt>
      <trkpt lat="46.74621" lon="5.61144">
        <ele>350.3</ele>
        <time>2021-05-20T15:26:31Z</time>
      </trkpt>
      <trkpt lat="46.74626" lon="5.61146">
        <ele>348.2</ele>
        <time>2021-05-20T15:26:38Z</time>
      </trkpt>
      <trkpt lat="46.7463" lon="5.61147">
        <ele>346.9</ele>
        <time>2021-05-20T15:26:47Z</time>
      </trkpt>
      <trkpt lat="46.74635" lon="5.61149">
        <ele>345.9</ele>
        <time>2021-05-20T15:26:54Z</time>
      </trkpt>
      <trkpt lat="46.74639" lon="5.61152">
        <ele>344.2</ele>
        <time>2021-05-20T15:27:03Z</time>
      </trkpt>
      <trkpt lat="46.74644" lon="5.61155">
        <ele>342.9</ele>
        <time>2021-05-20T15:27:08Z</time>
      </trkpt>
      <trkpt lat="46.74649" lon="5.61157">
        <ele>340.7</ele>
        <time>2021-05-20T15:27:14Z</time>
      </trkpt>
      <trkpt lat="46.74653" lon="5.61158">
        <ele>338.3</ele>
        <time>2021-05-20T15:27:22Z</time>
      </trkpt>
      <trkpt lat="46.74656" lon="5.61163">
        <ele>334.6</ele>
        <time>2021-05-20T15:27:32Z</time>
      </trkpt>
      <trkpt lat="46.74662" lon="5.61164">
        <ele>332.4</ele>
        <time>2021-05-20T15:27:40Z</time>
      </trkpt>
      <trkpt lat="46.74666" lon="5.61166">
        <ele>331.1</ele>
        <time>2021-05-20T15:27:47Z</time>
      </trkpt>
      <trkpt lat="46.74671" lon="5.61167">
        <ele>329.8</ele>
        <time>2021-05-20T15:27:52Z</time>
      </trkpt>
      <trkpt lat="46.74675" lon="5.61169">
        <ele>327.9</ele>
        <time>2021-05-20T15:28:00Z</time>
      </trkpt>
      <trkpt lat="46.74681" lon="5.61169">
        <ele>326.8</ele>
        <time>2021-05-20T15:28:16Z</time>
      </trkpt>
      <trkpt lat="46.74686" lon="5.6117">
        <ele>326.6</ele>
        <time>2021-05-20T15:28:20Z</time>
      </trkpt>
      <trkpt lat="46.74691" lon="5.6117">
        <ele>326.6</ele>
        <time>2021-05-20T15:28:25Z</time>
      </trkpt>
      <trkpt lat="46.74696" lon="5.61172">
        <ele>325.7</ele>
        <time>2021-05-20T15:28:32Z</time>
      </trkpt>
      <trkpt lat="46.74701" lon="5.61174">
        <ele>325.1</ele>
        <time>2021-05-20T15:28:39Z</time>
      </trkpt>
      <trkpt lat="46.74706" lon="5.61176">
        <ele>324.7</ele>
        <time>2021-05-20T15:28:44Z</time>
      </trkpt>
      <trkpt lat="46.74709" lon="5.61181">
        <ele>322.5</ele>
        <time>2021-05-20T15:28:50Z</time>
      </trkpt>
      <trkpt lat="46.74705" lon="5.61179">
        <ele>314.6</ele>
        <time>2021-05-20T15:29:09Z</time>
      </trkpt>
      <trkpt lat="46.74707" lon="5.61186">
        <ele>313.1</ele>
        <time>2021-05-20T15:29:20Z</time>
      </trkpt>
      <trkpt lat="46.74709" lon="5.61193">
        <ele>313.2</ele>
        <time>2021-05-20T15:29:25Z</time>
      </trkpt>
      <trkpt lat="46.74711" lon="5.612">
        <ele>313.1</ele>
        <time>2021-05-20T15:29:29Z</time>
      </trkpt>
      <trkpt lat="46.74713" lon="5.61207">
        <ele>313.2</ele>
        <time>2021-05-20T15:29:33Z</time>
      </trkpt>
      <trkpt lat="46.74716" lon="5.61213">
        <ele>313.3</ele>
        <time>2021-05-20T15:29:37Z</time>
      </trkpt>
      <trkpt lat="46.7472" lon="5.61219">
        <ele>313.2</ele>
        <time>2021-05-20T15:29:41Z</time>
      </trkpt>
      <trkpt lat="46.7472" lon="5.61227">
        <ele>313.5</ele>
        <time>2021-05-20T15:29:46Z</time>
      </trkpt>
      <trkpt lat="46.74722" lon="5.61234">
        <ele>314</ele>
        <time>2021-05-20T15:29:51Z</time>
      </trkpt>
      <trkpt lat="46.74723" lon="5.6124">
        <ele>314.4</ele>
        <time>2021-05-20T15:29:56Z</time>
      </trkpt>
      <trkpt lat="46.74724" lon="5.61247">
        <ele>314.9</ele>
        <time>2021-05-20T15:30:03Z</time>
      </trkpt>
      <trkpt lat="46.74722" lon="5.61253">
        <ele>315.8</ele>
        <time>2021-05-20T15:30:13Z</time>
      </trkpt>
      <trkpt lat="46.74721" lon="5.61261">
        <ele>316.6</ele>
        <time>2021-05-20T15:30:19Z</time>
      </trkpt>
      <trkpt lat="46.74725" lon="5.61269">
        <ele>317.9</ele>
        <time>2021-05-20T15:30:23Z</time>
      </trkpt>
      <trkpt lat="46.74724" lon="5.61275">
        <ele>319.2</ele>
        <time>2021-05-20T15:30:27Z</time>
      </trkpt>
      <trkpt lat="46.74725" lon="5.61282">
        <ele>320.1</ele>
        <time>2021-05-20T15:30:33Z</time>
      </trkpt>
      <trkpt lat="46.74726" lon="5.61289">
        <ele>320.3</ele>
        <time>2021-05-20T15:30:38Z</time>
      </trkpt>
      <trkpt lat="46.74724" lon="5.61296">
        <ele>320.4</ele>
        <time>2021-05-20T15:30:43Z</time>
      </trkpt>
      <trkpt lat="46.74722" lon="5.61303">
        <ele>320.4</ele>
        <time>2021-05-20T15:30:48Z</time>
      </trkpt>
      <trkpt lat="46.74723" lon="5.6131">
        <ele>320.7</ele>
        <time>2021-05-20T15:30:55Z</time>
      </trkpt>
      <trkpt lat="46.74723" lon="5.61318">
        <ele>320.7</ele>
        <time>2021-05-20T15:31:00Z</time>
      </trkpt>
      <trkpt lat="46.74723" lon="5.61326">
        <ele>320.6</ele>
        <time>2021-05-20T15:31:05Z</time>
      </trkpt>
      <trkpt lat="46.74725" lon="5.61333">
        <ele>320.5</ele>
        <time>2021-05-20T15:31:10Z</time>
      </trkpt>
      <trkpt lat="46.74716" lon="5.61345">
        <ele>316.1</ele>
        <time>2021-05-20T15:31:14Z</time>
      </trkpt>
      <trkpt lat="46.74709" lon="5.61357">
        <ele>311.1</ele>
        <time>2021-05-20T15:31:18Z</time>
      </trkpt>
      <trkpt lat="46.74707" lon="5.61363">
        <ele>307.3</ele>
        <time>2021-05-20T15:31:22Z</time>
      </trkpt>
      <trkpt lat="46.74706" lon="5.6137">
        <ele>303.7</ele>
        <time>2021-05-20T15:31:27Z</time>
      </trkpt>
      <trkpt lat="46.74705" lon="5.61377">
        <ele>300.9</ele>
        <time>2021-05-20T15:31:32Z</time>
      </trkpt>
      <trkpt lat="46.74705" lon="5.61384">
        <ele>297.9</ele>
        <time>2021-05-20T15:31:39Z</time>
      </trkpt>
      <trkpt lat="46.74706" lon="5.61391">
        <ele>295.5</ele>
        <time>2021-05-20T15:31:48Z</time>
      </trkpt>
      <trkpt lat="46.74705" lon="5.614">
        <ele>294.9</ele>
        <time>2021-05-20T15:31:52Z</time>
      </trkpt>
      <trkpt lat="46.74706" lon="5.61409">
        <ele>295.7</ele>
        <time>2021-05-20T15:31:56Z</time>
      </trkpt>
      <trkpt lat="46.74707" lon="5.61416">
        <ele>297.2</ele>
        <time>2021-05-20T15:32:02Z</time>
      </trkpt>
      <trkpt lat="46.74705" lon="5.61423">
        <ele>298</ele>
        <time>2021-05-20T15:32:10Z</time>
      </trkpt>
      <trkpt lat="46.74703" lon="5.61429">
        <ele>296.4</ele>
        <time>2021-05-20T15:32:15Z</time>
      </trkpt>
      <trkpt lat="46.74702" lon="5.61435">
        <ele>293.3</ele>
        <time>2021-05-20T15:32:23Z</time>
      </trkpt>
      <trkpt lat="46.74702" lon="5.61442">
        <ele>290.9</ele>
        <time>2021-05-20T15:32:30Z</time>
      </trkpt>
      <trkpt lat="46.74698" lon="5.61451">
        <ele>290</ele>
        <time>2021-05-20T15:32:34Z</time>
      </trkpt>
      <trkpt lat="46.74696" lon="5.61456">
        <ele>289.3</ele>
        <time>2021-05-20T15:32:38Z</time>
      </trkpt>
      <trkpt lat="46.74694" lon="5.61464">
        <ele>289.6</ele>
        <time>2021-05-20T15:32:43Z</time>
      </trkpt>
      <trkpt lat="46.74693" lon="5.61474">
        <ele>290.1</ele>
        <time>2021-05-20T15:32:47Z</time>
      </trkpt>
      <trkpt lat="46.74691" lon="5.61482">
        <ele>290.8</ele>
        <time>2021-05-20T15:32:51Z</time>
      </trkpt>
      <trkpt lat="46.7469" lon="5.61489">
        <ele>291</ele>
        <time>2021-05-20T15:32:55Z</time>
      </trkpt>
      <trkpt lat="46.74688" lon="5.61496">
        <ele>290.6</ele>
        <time>2021-05-20T15:33:00Z</time>
      </trkpt>
      <trkpt lat="46.74684" lon="5.615">
        <ele>289.5</ele>
        <time>2021-05-20T15:33:06Z</time>
      </trkpt>
      <trkpt lat="46.74681" lon="5.61507">
        <ele>288.4</ele>
        <time>2021-05-20T15:33:13Z</time>
      </trkpt>
      <trkpt lat="46.74678" lon="5.61513">
        <ele>287.7</ele>
        <time>2021-05-20T15:33:18Z</time>
      </trkpt>
      <trkpt lat="46.74677" lon="5.6152">
        <ele>287.4</ele>
        <time>2021-05-20T15:33:23Z</time>
      </trkpt>
      <trkpt lat="46.74679" lon="5.61527">
        <ele>289</ele>
        <time>2021-05-20T15:33:27Z</time>
      </trkpt>
      <trkpt lat="46.7468" lon="5.61533">
        <ele>291.4</ele>
        <time>2021-05-20T15:33:31Z</time>
      </trkpt>
      <trkpt lat="46.74679" lon="5.6154">
        <ele>293.3</ele>
        <time>2021-05-20T15:33:35Z</time>
      </trkpt>
      <trkpt lat="46.74675" lon="5.61545">
        <ele>294.4</ele>
        <time>2021-05-20T15:33:39Z</time>
      </trkpt>
      <trkpt lat="46.74675" lon="5.61552">
        <ele>294.9</ele>
        <time>2021-05-20T15:33:45Z</time>
      </trkpt>
      <trkpt lat="46.74674" lon="5.6156">
        <ele>294.9</ele>
        <time>2021-05-20T15:33:50Z</time>
      </trkpt>
      <trkpt lat="46.74675" lon="5.61567">
        <ele>295.2</ele>
        <time>2021-05-20T15:33:54Z</time>
      </trkpt>
      <trkpt lat="46.74677" lon="5.61575">
        <ele>297</ele>
        <time>2021-05-20T15:33:58Z</time>
      </trkpt>
      <trkpt lat="46.74678" lon="5.61583">
        <ele>299.7</ele>
        <time>2021-05-20T15:34:03Z</time>
      </trkpt>
      <trkpt lat="46.74677" lon="5.61589">
        <ele>301.3</ele>
        <time>2021-05-20T15:34:08Z</time>
      </trkpt>
      <trkpt lat="46.74677" lon="5.61596">
        <ele>302.4</ele>
        <time>2021-05-20T15:34:13Z</time>
      </trkpt>
      <trkpt lat="46.74675" lon="5.61604">
        <ele>302.6</ele>
        <time>2021-05-20T15:34:26Z</time>
      </trkpt>
      <trkpt lat="46.74675" lon="5.6161">
        <ele>302.5</ele>
        <time>2021-05-20T15:34:31Z</time>
      </trkpt>
      <trkpt lat="46.74675" lon="5.61617">
        <ele>303.5</ele>
        <time>2021-05-20T15:34:36Z</time>
      </trkpt>
      <trkpt lat="46.74674" lon="5.61625">
        <ele>304</ele>
        <time>2021-05-20T15:34:41Z</time>
      </trkpt>
      <trkpt lat="46.74673" lon="5.61632">
        <ele>304.5</ele>
        <time>2021-05-20T15:34:46Z</time>
      </trkpt>
      <trkpt lat="46.74672" lon="5.61639">
        <ele>305.3</ele>
        <time>2021-05-20T15:34:54Z</time>
      </trkpt>
      <trkpt lat="46.74671" lon="5.61646">
        <ele>305.8</ele>
        <time>2021-05-20T15:35:00Z</time>
      </trkpt>
      <trkpt lat="46.7467" lon="5.61653">
        <ele>306.1</ele>
        <time>2021-05-20T15:35:06Z</time>
      </trkpt>
      <trkpt lat="46.74668" lon="5.61659">
        <ele>306.6</ele>
        <time>2021-05-20T15:35:11Z</time>
      </trkpt>
      <trkpt lat="46.74666" lon="5.61666">
        <ele>307</ele>
        <time>2021-05-20T15:35:16Z</time>
      </trkpt>
      <trkpt lat="46.74665" lon="5.61673">
        <ele>306.8</ele>
        <time>2021-05-20T15:35:21Z</time>
      </trkpt>
      <trkpt lat="46.74668" lon="5.6168">
        <ele>306</ele>
        <time>2021-05-20T15:35:26Z</time>
      </trkpt>
      <trkpt lat="46.74672" lon="5.61683">
        <ele>304.6</ele>
        <time>2021-05-20T15:35:38Z</time>
      </trkpt>
      <trkpt lat="46.74677" lon="5.61686">
        <ele>303.6</ele>
        <time>2021-05-20T15:35:47Z</time>
      </trkpt>
      <trkpt lat="46.74682" lon="5.61687">
        <ele>303</ele>
        <time>2021-05-20T15:35:53Z</time>
      </trkpt>
      <trkpt lat="46.74686" lon="5.61685">
        <ele>302.1</ele>
        <time>2021-05-20T15:36:00Z</time>
      </trkpt>
      <trkpt lat="46.74691" lon="5.61686">
        <ele>301.3</ele>
        <time>2021-05-20T15:36:05Z</time>
      </trkpt>
      <trkpt lat="46.74696" lon="5.61686">
        <ele>300.2</ele>
        <time>2021-05-20T15:36:13Z</time>
      </trkpt>
      <trkpt lat="46.747" lon="5.61688">
        <ele>299.9</ele>
        <time>2021-05-20T15:36:35Z</time>
      </trkpt>
      <trkpt lat="46.74705" lon="5.61692">
        <ele>300</ele>
        <time>2021-05-20T15:36:42Z</time>
      </trkpt>
      <trkpt lat="46.7471" lon="5.6169">
        <ele>300.6</ele>
        <time>2021-05-20T15:36:53Z</time>
      </trkpt>
      <trkpt lat="46.74715" lon="5.61687">
        <ele>300.6</ele>
        <time>2021-05-20T15:36:59Z</time>
      </trkpt>
      <trkpt lat="46.74719" lon="5.61684">
        <ele>300</ele>
        <time>2021-05-20T15:37:04Z</time>
      </trkpt>
      <trkpt lat="46.74724" lon="5.61683">
        <ele>299.1</ele>
        <time>2021-05-20T15:37:08Z</time>
      </trkpt>
      <trkpt lat="46.74729" lon="5.61681">
        <ele>297.8</ele>
        <time>2021-05-20T15:37:13Z</time>
      </trkpt>
      <trkpt lat="46.74734" lon="5.6168">
        <ele>296.5</ele>
        <time>2021-05-20T15:37:19Z</time>
      </trkpt>
      <trkpt lat="46.74738" lon="5.61677">
        <ele>295.1</ele>
        <time>2021-05-20T15:37:25Z</time>
      </trkpt>
      <trkpt lat="46.74743" lon="5.61675">
        <ele>293.9</ele>
        <time>2021-05-20T15:37:30Z</time>
      </trkpt>
      <trkpt lat="46.74748" lon="5.61674">
        <ele>292.6</ele>
        <time>2021-05-20T15:37:35Z</time>
      </trkpt>
      <trkpt lat="46.74752" lon="5.61671">
        <ele>291.2</ele>
        <time>2021-05-20T15:37:40Z</time>
      </trkpt>
      <trkpt lat="46.74756" lon="5.61667">
        <ele>288.9</ele>
        <time>2021-05-20T15:37:50Z</time>
      </trkpt>
      <trkpt lat="46.74761" lon="5.61664">
        <ele>287.5</ele>
        <time>2021-05-20T15:38:09Z</time>
      </trkpt>
      <trkpt lat="46.74765" lon="5.61659">
        <ele>287.9</ele>
        <time>2021-05-20T15:38:15Z</time>
      </trkpt>
      <trkpt lat="46.74769" lon="5.61656">
        <ele>288.3</ele>
        <time>2021-05-20T15:38:20Z</time>
      </trkpt>
      <trkpt lat="46.74773" lon="5.61651">
        <ele>287.8</ele>
        <time>2021-05-20T15:38:30Z</time>
      </trkpt>
      <trkpt lat="46.74776" lon="5.61646">
        <ele>287.3</ele>
        <time>2021-05-20T15:38:36Z</time>
      </trkpt>
      <trkpt lat="46.7478" lon="5.61642">
        <ele>286.6</ele>
        <time>2021-05-20T15:38:42Z</time>
      </trkpt>
      <trkpt lat="46.74784" lon="5.61638">
        <ele>285.7</ele>
        <time>2021-05-20T15:38:47Z</time>
      </trkpt>
      <trkpt lat="46.74789" lon="5.61635">
        <ele>284.9</ele>
        <time>2021-05-20T15:38:53Z</time>
      </trkpt>
      <trkpt lat="46.74792" lon="5.6163">
        <ele>284.3</ele>
        <time>2021-05-20T15:38:58Z</time>
      </trkpt>
      <trkpt lat="46.74796" lon="5.61626">
        <ele>284</ele>
        <time>2021-05-20T15:39:03Z</time>
      </trkpt>
      <trkpt lat="46.748" lon="5.61623">
        <ele>283.5</ele>
        <time>2021-05-20T15:39:08Z</time>
      </trkpt>
      <trkpt lat="46.74804" lon="5.6162">
        <ele>282.9</ele>
        <time>2021-05-20T15:39:13Z</time>
      </trkpt>
      <trkpt lat="46.74808" lon="5.61617">
        <ele>282.9</ele>
        <time>2021-05-20T15:39:18Z</time>
      </trkpt>
      <trkpt lat="46.74812" lon="5.61612">
        <ele>283.2</ele>
        <time>2021-05-20T15:39:23Z</time>
      </trkpt>
      <trkpt lat="46.74817" lon="5.61609">
        <ele>283.5</ele>
        <time>2021-05-20T15:39:28Z</time>
      </trkpt>
      <trkpt lat="46.74821" lon="5.61606">
        <ele>283.6</ele>
        <time>2021-05-20T15:39:32Z</time>
      </trkpt>
      <trkpt lat="46.74825" lon="5.61603">
        <ele>283.6</ele>
        <time>2021-05-20T15:39:36Z</time>
      </trkpt>
      <trkpt lat="46.7483" lon="5.616">
        <ele>283.5</ele>
        <time>2021-05-20T15:39:41Z</time>
      </trkpt>
      <trkpt lat="46.74833" lon="5.61595">
        <ele>283</ele>
        <time>2021-05-20T15:39:47Z</time>
      </trkpt>
      <trkpt lat="46.74838" lon="5.61593">
        <ele>282.3</ele>
        <time>2021-05-20T15:39:54Z</time>
      </trkpt>
      <trkpt lat="46.74842" lon="5.61589">
        <ele>281.6</ele>
        <time>2021-05-20T15:39:59Z</time>
      </trkpt>
      <trkpt lat="46.74846" lon="5.61585">
        <ele>280.8</ele>
        <time>2021-05-20T15:40:04Z</time>
      </trkpt>
      <trkpt lat="46.7485" lon="5.61581">
        <ele>280</ele>
        <time>2021-05-20T15:40:09Z</time>
      </trkpt>
      <trkpt lat="46.74853" lon="5.61577">
        <ele>279.3</ele>
        <time>2021-05-20T15:40:14Z</time>
      </trkpt>
      <trkpt lat="46.74857" lon="5.61571">
        <ele>278.6</ele>
        <time>2021-05-20T15:40:19Z</time>
      </trkpt>
      <trkpt lat="46.74861" lon="5.61566">
        <ele>278.2</ele>
        <time>2021-05-20T15:40:25Z</time>
      </trkpt>
      <trkpt lat="46.74865" lon="5.61562">
        <ele>277.9</ele>
        <time>2021-05-20T15:40:51Z</time>
      </trkpt>
      <trkpt lat="46.74867" lon="5.61556">
        <ele>278.1</ele>
        <time>2021-05-20T15:40:57Z</time>
      </trkpt>
      <trkpt lat="46.74869" lon="5.6155">
        <ele>278.4</ele>
        <time>2021-05-20T15:41:02Z</time>
      </trkpt>
      <trkpt lat="46.74872" lon="5.61542">
        <ele>278.5</ele>
        <time>2021-05-20T15:41:07Z</time>
      </trkpt>
      <trkpt lat="46.74873" lon="5.61535">
        <ele>278.6</ele>
        <time>2021-05-20T15:41:12Z</time>
      </trkpt>
      <trkpt lat="46.74875" lon="5.61529">
        <ele>278.5</ele>
        <time>2021-05-20T15:41:17Z</time>
      </trkpt>
      <trkpt lat="46.74878" lon="5.61523">
        <ele>278</ele>
        <time>2021-05-20T15:41:31Z</time>
      </trkpt>
      <trkpt lat="46.74879" lon="5.61517">
        <ele>278.1</ele>
        <time>2021-05-20T15:41:36Z</time>
      </trkpt>
      <trkpt lat="46.7488" lon="5.6151">
        <ele>278.1</ele>
        <time>2021-05-20T15:41:42Z</time>
      </trkpt>
      <trkpt lat="46.74882" lon="5.61504">
        <ele>277.8</ele>
        <time>2021-05-20T15:41:47Z</time>
      </trkpt>
      <trkpt lat="46.74885" lon="5.61497">
        <ele>277.3</ele>
        <time>2021-05-20T15:41:52Z</time>
      </trkpt>
      <trkpt lat="46.74884" lon="5.61504">
        <ele>274.1</ele>
        <time>2021-05-20T15:42:12Z</time>
      </trkpt>
      <trkpt lat="46.74884" lon="5.61497">
        <ele>273.2</ele>
        <time>2021-05-20T15:42:26Z</time>
      </trkpt>
      <trkpt lat="46.74886" lon="5.6149">
        <ele>273.4</ele>
        <time>2021-05-20T15:42:33Z</time>
      </trkpt>
      <trkpt lat="46.74888" lon="5.61485">
        <ele>273.5</ele>
        <time>2021-05-20T15:42:39Z</time>
      </trkpt>
      <trkpt lat="46.74891" lon="5.61479">
        <ele>273.4</ele>
        <time>2021-05-20T15:42:45Z</time>
      </trkpt>
      <trkpt lat="46.74894" lon="5.61474">
        <ele>273.3</ele>
        <time>2021-05-20T15:42:49Z</time>
      </trkpt>
      <trkpt lat="46.74898" lon="5.61469">
        <ele>273.2</ele>
        <time>2021-05-20T15:42:53Z</time>
      </trkpt>
      <trkpt lat="46.74903" lon="5.61465">
        <ele>272.3</ele>
        <time>2021-05-20T15:42:58Z</time>
      </trkpt>
      <trkpt lat="46.74907" lon="5.61462">
        <ele>271.3</ele>
        <time>2021-05-20T15:43:03Z</time>
      </trkpt>
      <trkpt lat="46.74912" lon="5.61458">
        <ele>270.6</ele>
        <time>2021-05-20T15:43:08Z</time>
      </trkpt>
      <trkpt lat="46.74916" lon="5.61455">
        <ele>270.1</ele>
        <time>2021-05-20T15:43:13Z</time>
      </trkpt>
      <trkpt lat="46.74921" lon="5.61453">
        <ele>269.5</ele>
        <time>2021-05-20T15:43:18Z</time>
      </trkpt>
      <trkpt lat="46.74926" lon="5.6145">
        <ele>268.6</ele>
        <time>2021-05-20T15:43:23Z</time>
      </trkpt>
      <trkpt lat="46.7493" lon="5.61445">
        <ele>267.5</ele>
        <time>2021-05-20T15:43:28Z</time>
      </trkpt>
      <trkpt lat="46.74935" lon="5.61441">
        <ele>267.3</ele>
        <time>2021-05-20T15:43:32Z</time>
      </trkpt>
      <trkpt lat="46.74939" lon="5.61438">
        <ele>267.4</ele>
        <time>2021-05-20T15:43:36Z</time>
      </trkpt>
      <trkpt lat="46.74943" lon="5.61435">
        <ele>267.4</ele>
        <time>2021-05-20T15:43:40Z</time>
      </trkpt>
      <trkpt lat="46.74948" lon="5.61431">
        <ele>267.4</ele>
        <time>2021-05-20T15:43:45Z</time>
      </trkpt>
      <trkpt lat="46.74953" lon="5.61429">
        <ele>267.3</ele>
        <time>2021-05-20T15:43:50Z</time>
      </trkpt>
      <trkpt lat="46.74958" lon="5.61426">
        <ele>266.8</ele>
        <time>2021-05-20T15:43:56Z</time>
      </trkpt>
      <trkpt lat="46.74963" lon="5.61424">
        <ele>266.5</ele>
        <time>2021-05-20T15:44:01Z</time>
      </trkpt>
      <trkpt lat="46.74968" lon="5.6142">
        <ele>265.7</ele>
        <time>2021-05-20T15:44:07Z</time>
      </trkpt>
      <trkpt lat="46.74972" lon="5.61419">
        <ele>265.1</ele>
        <time>2021-05-20T15:44:11Z</time>
      </trkpt>
      <trkpt lat="46.74976" lon="5.61417">
        <ele>264.3</ele>
        <time>2021-05-20T15:44:16Z</time>
      </trkpt>
      <trkpt lat="46.74981" lon="5.61416">
        <ele>263.3</ele>
        <time>2021-05-20T15:44:21Z</time>
      </trkpt>
      <trkpt lat="46.74987" lon="5.61416">
        <ele>262.4</ele>
        <time>2021-05-20T15:44:26Z</time>
      </trkpt>
      <trkpt lat="46.74992" lon="5.61416">
        <ele>261.1</ele>
        <time>2021-05-20T15:44:32Z</time>
      </trkpt>
      <trkpt lat="46.74997" lon="5.61415">
        <ele>259.8</ele>
        <time>2021-05-20T15:44:37Z</time>
      </trkpt>
      <trkpt lat="46.75001" lon="5.61413">
        <ele>258.5</ele>
        <time>2021-05-20T15:44:42Z</time>
      </trkpt>
      <trkpt lat="46.75005" lon="5.61409">
        <ele>257.1</ele>
        <time>2021-05-20T15:44:47Z</time>
      </trkpt>
      <trkpt lat="46.7501" lon="5.61405">
        <ele>254.2</ele>
        <time>2021-05-20T15:44:57Z</time>
      </trkpt>
      <trkpt lat="46.75016" lon="5.61405">
        <ele>253.3</ele>
        <time>2021-05-20T15:45:01Z</time>
      </trkpt>
      <trkpt lat="46.75023" lon="5.61403">
        <ele>253</ele>
        <time>2021-05-20T15:45:05Z</time>
      </trkpt>
      <trkpt lat="46.75028" lon="5.61403">
        <ele>252.5</ele>
        <time>2021-05-20T15:45:10Z</time>
      </trkpt>
      <trkpt lat="46.75033" lon="5.61402">
        <ele>252</ele>
        <time>2021-05-20T15:45:15Z</time>
      </trkpt>
      <trkpt lat="46.75038" lon="5.61402">
        <ele>250.9</ele>
        <time>2021-05-20T15:45:20Z</time>
      </trkpt>
      <trkpt lat="46.75042" lon="5.61398">
        <ele>250.1</ele>
        <time>2021-05-20T15:45:26Z</time>
      </trkpt>
      <trkpt lat="46.75047" lon="5.61395">
        <ele>249.3</ele>
        <time>2021-05-20T15:45:31Z</time>
      </trkpt>
      <trkpt lat="46.75051" lon="5.61392">
        <ele>247.3</ele>
        <time>2021-05-20T15:45:36Z</time>
      </trkpt>
      <trkpt lat="46.75055" lon="5.61387">
        <ele>245.8</ele>
        <time>2021-05-20T15:45:41Z</time>
      </trkpt>
      <trkpt lat="46.75059" lon="5.61383">
        <ele>245</ele>
        <time>2021-05-20T15:45:46Z</time>
      </trkpt>
      <trkpt lat="46.75063" lon="5.61379">
        <ele>245.3</ele>
        <time>2021-05-20T15:45:50Z</time>
      </trkpt>
      <trkpt lat="46.75068" lon="5.61376">
        <ele>246</ele>
        <time>2021-05-20T15:45:54Z</time>
      </trkpt>
      <trkpt lat="46.75072" lon="5.61372">
        <ele>246.6</ele>
        <time>2021-05-20T15:45:58Z</time>
      </trkpt>
      <trkpt lat="46.75076" lon="5.61367">
        <ele>246.3</ele>
        <time>2021-05-20T15:46:03Z</time>
      </trkpt>
      <trkpt lat="46.75079" lon="5.61363">
        <ele>246</ele>
        <time>2021-05-20T15:46:08Z</time>
      </trkpt>
      <trkpt lat="46.75082" lon="5.61357">
        <ele>245.1</ele>
        <time>2021-05-20T15:46:13Z</time>
      </trkpt>
      <trkpt lat="46.75085" lon="5.61351">
        <ele>244.2</ele>
        <time>2021-05-20T15:46:18Z</time>
      </trkpt>
      <trkpt lat="46.75089" lon="5.61347">
        <ele>242.9</ele>
        <time>2021-05-20T15:46:23Z</time>
      </trkpt>
      <trkpt lat="46.75094" lon="5.61344">
        <ele>241.7</ele>
        <time>2021-05-20T15:46:27Z</time>
      </trkpt>
      <trkpt lat="46.75097" lon="5.61338">
        <ele>240.9</ele>
        <time>2021-05-20T15:46:32Z</time>
      </trkpt>
      <trkpt lat="46.75102" lon="5.61335">
        <ele>242</ele>
        <time>2021-05-20T15:46:37Z</time>
      </trkpt>
      <trkpt lat="46.75106" lon="5.61331">
        <ele>244.6</ele>
        <time>2021-05-20T15:46:41Z</time>
      </trkpt>
      <trkpt lat="46.7511" lon="5.61325">
        <ele>247.8</ele>
        <time>2021-05-20T15:46:45Z</time>
      </trkpt>
      <trkpt lat="46.75114" lon="5.61322">
        <ele>250.7</ele>
        <time>2021-05-20T15:46:49Z</time>
      </trkpt>
      <trkpt lat="46.75118" lon="5.61319">
        <ele>254</ele>
        <time>2021-05-20T15:47:00Z</time>
      </trkpt>
      <trkpt lat="46.75121" lon="5.61313">
        <ele>253</ele>
        <time>2021-05-20T15:47:07Z</time>
      </trkpt>
      <trkpt lat="46.75125" lon="5.61307">
        <ele>252.2</ele>
        <time>2021-05-20T15:47:12Z</time>
      </trkpt>
      <trkpt lat="46.75128" lon="5.61301">
        <ele>252.5</ele>
        <time>2021-05-20T15:47:16Z</time>
      </trkpt>
      <trkpt lat="46.7513" lon="5.61295">
        <ele>253.4</ele>
        <time>2021-05-20T15:47:20Z</time>
      </trkpt>
      <trkpt lat="46.75134" lon="5.61289">
        <ele>255.9</ele>
        <time>2021-05-20T15:47:25Z</time>
      </trkpt>
      <trkpt lat="46.75138" lon="5.61285">
        <ele>256.6</ele>
        <time>2021-05-20T15:47:30Z</time>
      </trkpt>
      <trkpt lat="46.75142" lon="5.61282">
        <ele>255.5</ele>
        <time>2021-05-20T15:47:35Z</time>
      </trkpt>
      <trkpt lat="46.75146" lon="5.61278">
        <ele>254.6</ele>
        <time>2021-05-20T15:47:39Z</time>
      </trkpt>
      <trkpt lat="46.7515" lon="5.61273">
        <ele>253.5</ele>
        <time>2021-05-20T15:47:43Z</time>
      </trkpt>
      <trkpt lat="46.75153" lon="5.61269">
        <ele>252.3</ele>
        <time>2021-05-20T15:47:47Z</time>
      </trkpt>
      <trkpt lat="46.75157" lon="5.61264">
        <ele>251.5</ele>
        <time>2021-05-20T15:47:51Z</time>
      </trkpt>
      <trkpt lat="46.75161" lon="5.61261">
        <ele>251.3</ele>
        <time>2021-05-20T15:47:55Z</time>
      </trkpt>
      <trkpt lat="46.75166" lon="5.61258">
        <ele>251.7</ele>
        <time>2021-05-20T15:48:00Z</time>
      </trkpt>
      <trkpt lat="46.75171" lon="5.61257">
        <ele>252.1</ele>
        <time>2021-05-20T15:48:05Z</time>
      </trkpt>
      <trkpt lat="46.75177" lon="5.61256">
        <ele>253.9</ele>
        <time>2021-05-20T15:48:09Z</time>
      </trkpt>
      <trkpt lat="46.75182" lon="5.61254">
        <ele>255.6</ele>
        <time>2021-05-20T15:48:13Z</time>
      </trkpt>
      <trkpt lat="46.75188" lon="5.61254">
        <ele>256.8</ele>
        <time>2021-05-20T15:48:17Z</time>
      </trkpt>
      <trkpt lat="46.75193" lon="5.61254">
        <ele>255.9</ele>
        <time>2021-05-20T15:48:23Z</time>
      </trkpt>
      <trkpt lat="46.75197" lon="5.61253">
        <ele>253.5</ele>
        <time>2021-05-20T15:48:27Z</time>
      </trkpt>
      <trkpt lat="46.75203" lon="5.61252">
        <ele>250</ele>
        <time>2021-05-20T15:48:32Z</time>
      </trkpt>
      <trkpt lat="46.75207" lon="5.61249">
        <ele>247.4</ele>
        <time>2021-05-20T15:48:36Z</time>
      </trkpt>
      <trkpt lat="46.75211" lon="5.61245">
        <ele>245.1</ele>
        <time>2021-05-20T15:48:40Z</time>
      </trkpt>
      <trkpt lat="46.75215" lon="5.61242">
        <ele>243.6</ele>
        <time>2021-05-20T15:48:44Z</time>
      </trkpt>
      <trkpt lat="46.75219" lon="5.61238">
        <ele>243.8</ele>
        <time>2021-05-20T15:48:49Z</time>
      </trkpt>
      <trkpt lat="46.75223" lon="5.61238">
        <ele>243.9</ele>
        <time>2021-05-20T15:48:54Z</time>
      </trkpt>
      <trkpt lat="46.75228" lon="5.61235">
        <ele>245.2</ele>
        <time>2021-05-20T15:48:58Z</time>
      </trkpt>
      <trkpt lat="46.75233" lon="5.6123">
        <ele>247.4</ele>
        <time>2021-05-20T15:49:02Z</time>
      </trkpt>
      <trkpt lat="46.75237" lon="5.61226">
        <ele>249.9</ele>
        <time>2021-05-20T15:49:06Z</time>
      </trkpt>
      <trkpt lat="46.75241" lon="5.6122">
        <ele>252.8</ele>
        <time>2021-05-20T15:49:11Z</time>
      </trkpt>
      <trkpt lat="46.75245" lon="5.61215">
        <ele>255</ele>
        <time>2021-05-20T15:49:16Z</time>
      </trkpt>
      <trkpt lat="46.7525" lon="5.6121">
        <ele>256.3</ele>
        <time>2021-05-20T15:49:21Z</time>
      </trkpt>
      <trkpt lat="46.75252" lon="5.61204">
        <ele>257.9</ele>
        <time>2021-05-20T15:49:26Z</time>
      </trkpt>
      <trkpt lat="46.75253" lon="5.61196">
        <ele>258.7</ele>
        <time>2021-05-20T15:49:31Z</time>
      </trkpt>
      <trkpt lat="46.75256" lon="5.6119">
        <ele>258.9</ele>
        <time>2021-05-20T15:49:36Z</time>
      </trkpt>
      <trkpt lat="46.75258" lon="5.61184">
        <ele>258.7</ele>
        <time>2021-05-20T15:49:41Z</time>
      </trkpt>
      <trkpt lat="46.75262" lon="5.61182">
        <ele>257.8</ele>
        <time>2021-05-20T15:49:46Z</time>
      </trkpt>
      <trkpt lat="46.75266" lon="5.61175">
        <ele>256.4</ele>
        <time>2021-05-20T15:49:51Z</time>
      </trkpt>
      <trkpt lat="46.75269" lon="5.61171">
        <ele>255.1</ele>
        <time>2021-05-20T15:49:55Z</time>
      </trkpt>
      <trkpt lat="46.75272" lon="5.61165">
        <ele>253.8</ele>
        <time>2021-05-20T15:49:59Z</time>
      </trkpt>
      <trkpt lat="46.75275" lon="5.61161">
        <ele>252.4</ele>
        <time>2021-05-20T15:50:03Z</time>
      </trkpt>
      <trkpt lat="46.7528" lon="5.61158">
        <ele>251.4</ele>
        <time>2021-05-20T15:50:07Z</time>
      </trkpt>
      <trkpt lat="46.75285" lon="5.61155">
        <ele>250.3</ele>
        <time>2021-05-20T15:50:12Z</time>
      </trkpt>
      <trkpt lat="46.7529" lon="5.61153">
        <ele>249.6</ele>
        <time>2021-05-20T15:50:16Z</time>
      </trkpt>
      <trkpt lat="46.75295" lon="5.61153">
        <ele>249</ele>
        <time>2021-05-20T15:50:20Z</time>
      </trkpt>
      <trkpt lat="46.753" lon="5.61154">
        <ele>248.6</ele>
        <time>2021-05-20T15:50:25Z</time>
      </trkpt>
      <trkpt lat="46.75304" lon="5.6115">
        <ele>248.3</ele>
        <time>2021-05-20T15:50:35Z</time>
      </trkpt>
      <trkpt lat="46.75309" lon="5.6115">
        <ele>248.5</ele>
        <time>2021-05-20T15:50:40Z</time>
      </trkpt>
      <trkpt lat="46.75314" lon="5.6115">
        <ele>249</ele>
        <time>2021-05-20T15:50:46Z</time>
      </trkpt>
      <trkpt lat="46.7532" lon="5.6115">
        <ele>250</ele>
        <time>2021-05-20T15:50:51Z</time>
      </trkpt>
      <trkpt lat="46.75325" lon="5.61154">
        <ele>249.5</ele>
        <time>2021-05-20T15:50:55Z</time>
      </trkpt>
      <trkpt lat="46.75328" lon="5.61158">
        <ele>248.1</ele>
        <time>2021-05-20T15:51:00Z</time>
      </trkpt>
      <trkpt lat="46.75333" lon="5.6116">
        <ele>246.5</ele>
        <time>2021-05-20T15:51:04Z</time>
      </trkpt>
      <trkpt lat="46.75338" lon="5.61163">
        <ele>245.3</ele>
        <time>2021-05-20T15:51:08Z</time>
      </trkpt>
      <trkpt lat="46.75343" lon="5.61165">
        <ele>245</ele>
        <time>2021-05-20T15:51:12Z</time>
      </trkpt>
      <trkpt lat="46.75349" lon="5.61167">
        <ele>245.3</ele>
        <time>2021-05-20T15:51:16Z</time>
      </trkpt>
      <trkpt lat="46.75353" lon="5.61168">
        <ele>245.3</ele>
        <time>2021-05-20T15:51:20Z</time>
      </trkpt>
      <trkpt lat="46.75358" lon="5.61169">
        <ele>245</ele>
        <time>2021-05-20T15:51:24Z</time>
      </trkpt>
      <trkpt lat="46.75363" lon="5.61169">
        <ele>244.4</ele>
        <time>2021-05-20T15:51:28Z</time>
      </trkpt>
      <trkpt lat="46.75368" lon="5.61172">
        <ele>244</ele>
        <time>2021-05-20T15:51:33Z</time>
      </trkpt>
      <trkpt lat="46.75372" lon="5.61178">
        <ele>244.4</ele>
        <time>2021-05-20T15:51:38Z</time>
      </trkpt>
      <trkpt lat="46.75374" lon="5.61185">
        <ele>245.1</ele>
        <time>2021-05-20T15:51:43Z</time>
      </trkpt>
      <trkpt lat="46.75378" lon="5.6119">
        <ele>244.6</ele>
        <time>2021-05-20T15:51:47Z</time>
      </trkpt>
      <trkpt lat="46.75382" lon="5.61194">
        <ele>243.7</ele>
        <time>2021-05-20T15:51:51Z</time>
      </trkpt>
      <trkpt lat="46.75385" lon="5.61199">
        <ele>242.9</ele>
        <time>2021-05-20T15:51:55Z</time>
      </trkpt>
      <trkpt lat="46.75388" lon="5.61204">
        <ele>242.1</ele>
        <time>2021-05-20T15:51:59Z</time>
      </trkpt>
      <trkpt lat="46.75392" lon="5.61209">
        <ele>241.1</ele>
        <time>2021-05-20T15:52:03Z</time>
      </trkpt>
      <trkpt lat="46.75396" lon="5.61214">
        <ele>240</ele>
        <time>2021-05-20T15:52:08Z</time>
      </trkpt>
      <trkpt lat="46.754" lon="5.6122">
        <ele>239.9</ele>
        <time>2021-05-20T15:52:13Z</time>
      </trkpt>
      <trkpt lat="46.75402" lon="5.61226">
        <ele>240.3</ele>
        <time>2021-05-20T15:52:18Z</time>
      </trkpt>
      <trkpt lat="46.75405" lon="5.61232">
        <ele>240.7</ele>
        <time>2021-05-20T15:52:23Z</time>
      </trkpt>
      <trkpt lat="46.75408" lon="5.61238">
        <ele>241.5</ele>
        <time>2021-05-20T15:52:27Z</time>
      </trkpt>
      <trkpt lat="46.7541" lon="5.61243">
        <ele>242.1</ele>
        <time>2021-05-20T15:52:32Z</time>
      </trkpt>
      <trkpt lat="46.75412" lon="5.6125">
        <ele>242.2</ele>
        <time>2021-05-20T15:52:38Z</time>
      </trkpt>
      <trkpt lat="46.75413" lon="5.61257">
        <ele>241.2</ele>
        <time>2021-05-20T15:52:45Z</time>
      </trkpt>
      <trkpt lat="46.75418" lon="5.61258">
        <ele>240.3</ele>
        <time>2021-05-20T15:52:53Z</time>
      </trkpt>
      <trkpt lat="46.75423" lon="5.61258">
        <ele>239.4</ele>
        <time>2021-05-20T15:52:59Z</time>
      </trkpt>
      <trkpt lat="46.75427" lon="5.61256">
        <ele>239.3</ele>
        <time>2021-05-20T15:53:03Z</time>
      </trkpt>
      <trkpt lat="46.75432" lon="5.61253">
        <ele>238.7</ele>
        <time>2021-05-20T15:53:08Z</time>
      </trkpt>
      <trkpt lat="46.75438" lon="5.61248">
        <ele>241.7</ele>
        <time>2021-05-20T15:53:12Z</time>
      </trkpt>
      <trkpt lat="46.75443" lon="5.61242">
        <ele>245.1</ele>
        <time>2021-05-20T15:53:16Z</time>
      </trkpt>
      <trkpt lat="46.75449" lon="5.61243">
        <ele>248.2</ele>
        <time>2021-05-20T15:53:21Z</time>
      </trkpt>
      <trkpt lat="46.75453" lon="5.6124">
        <ele>250.3</ele>
        <time>2021-05-20T15:53:27Z</time>
      </trkpt>
      <trkpt lat="46.75456" lon="5.61234">
        <ele>250.8</ele>
        <time>2021-05-20T15:53:33Z</time>
      </trkpt>
      <trkpt lat="46.75459" lon="5.61228">
        <ele>250.5</ele>
        <time>2021-05-20T15:53:38Z</time>
      </trkpt>
      <trkpt lat="46.75462" lon="5.61223">
        <ele>250.1</ele>
        <time>2021-05-20T15:53:43Z</time>
      </trkpt>
      <trkpt lat="46.75465" lon="5.61218">
        <ele>249.6</ele>
        <time>2021-05-20T15:53:48Z</time>
      </trkpt>
      <trkpt lat="46.75469" lon="5.61214">
        <ele>248.9</ele>
        <time>2021-05-20T15:53:52Z</time>
      </trkpt>
      <trkpt lat="46.75472" lon="5.61208">
        <ele>248.2</ele>
        <time>2021-05-20T15:53:57Z</time>
      </trkpt>
      <trkpt lat="46.75473" lon="5.61201">
        <ele>247.6</ele>
        <time>2021-05-20T15:54:03Z</time>
      </trkpt>
      <trkpt lat="46.75477" lon="5.61196">
        <ele>247.5</ele>
        <time>2021-05-20T15:54:08Z</time>
      </trkpt>
      <trkpt lat="46.75481" lon="5.61191">
        <ele>247.6</ele>
        <time>2021-05-20T15:54:13Z</time>
      </trkpt>
      <trkpt lat="46.75479" lon="5.61184">
        <ele>248</ele>
        <time>2021-05-20T15:54:20Z</time>
      </trkpt>
      <trkpt lat="46.75475" lon="5.61178">
        <ele>248.5</ele>
        <time>2021-05-20T15:54:25Z</time>
      </trkpt>
      <trkpt lat="46.75474" lon="5.61171">
        <ele>248.9</ele>
        <time>2021-05-20T15:54:31Z</time>
      </trkpt>
      <trkpt lat="46.75473" lon="5.61164">
        <ele>249.4</ele>
        <time>2021-05-20T15:54:38Z</time>
      </trkpt>
      <trkpt lat="46.75474" lon="5.61158">
        <ele>249.7</ele>
        <time>2021-05-20T15:58:14Z</time>
      </trkpt>
      <trkpt lat="46.75474" lon="5.61151">
        <ele>250.3</ele>
        <time>2021-05-20T15:58:29Z</time>
      </trkpt>
    </trkseg>
  </trk>
</gpx>